GFSSE_con_mlcape_000.txt.gz
CAPE
1047 1552 1972 1920 2043 1746 1670 1599 1729 1770 1315 1005 926 1244 1486 1663 1624 1794 1704 1536 1628 1445 1305 1136 1014 813 1023 1029 924 933 856 1094 1234 999 1146 1195 1141 805 806 851 364 501 644
1533 1929 1912 1877 1941 1750 1732 1754 1844 1866 1328 876 898 1135 1372 1758 1571 1759 1722 1714 1532 1527 1321 1211 1159 1128 1097 1292 1150 819 1109 1583 1343 950 1344 1136 974 743 612 699 463 690 670
1789 2131 2316 2057 1900 1857 1582 1585 1683 1781 1506 923 845 1145 1381 1500 1430 1684 1698 1728 1315 1276 915 1008 821 1149 1019 1119 1221 791 1420 1512 1369 1206 1144 649 701 783 737 751 719 778 716
2263 2374 2501 2244 2167 2110 1846 1830 1971 1850 1607 859 855 1161 1225 1157 976 1608 1861 1468 1485 1364 1093 729 860 998 1010 1125 1200 1368 819 1381 1474 625 747 333 310 977 1130 1049 891 833 787
2387 2385 2619 2457 2485 2338 2102 2093 2165 1959 1654 1128 971 1393 1296 1202 1343 1627 1650 1290 1369 1404 988 1045 1056 980 1051 1110 1389 1188 506 1498 829 502 455 492 318 1181 1073 933 900 769 724
1705 2461 2449 2421 2715 2587 2225 1998 2066 2029 1725 1481 1276 1559 1592 1555 1685 1569 1316 1488 1029 1376 1015 935 703 1110 1158 1300 1359 1337 688 1259 492 827 655 462 579 1222 1022 832 697 723 717
2394 2653 2285 2061 2773 2744 2467 2094 2125 2003 1912 1824 1927 1945 2022 1898 1904 1492 1791 1632 1424 1412 1304 1303 688 1235 979 1376 1358 1208 522 464 874 503 533 706 565 1010 983 851 962 822 520
2628 2793 2500 2545 2647 2754 2881 2762 2717 2622 2648 2367 2398 2497 2393 2138 1891 2141 1425 1450 1218 1290 1483 1103 1084 1211 1170 1388 1415 996 512 403 731 821 866 1160 747 1021 1132 1158 968 856 245
2719 2955 2489 2599 2625 2706 2906 2844 2943 3102 3023 2662 2675 2664 2475 2170 2010 1921 1668 1444 1279 1402 1157 1123 1248 1292 1191 1331 1276 1060 459 462 931 888 1028 728 670 1161 1230 1021 854 897 524
2626 3119 2758 2673 2728 2642 2845 2669 2523 2757 2898 2584 2460 2263 2105 2138 2273 1990 1895 1635 1350 1316 1098 898 1205 1255 1237 1186 1115 1015 764 367 522 850 970 614 1009 1218 851 939 1025 715 701
2768 3035 2829 2772 2463 2669 2530 2497 2198 2200 1867 1657 1910 2100 2275 2046 1896 1830 1623 1679 1319 1287 1221 1101 1020 912 1313 1155 1091 991 512 126 151 735 798 406 905 1127 1153 1020 812 692 651
2364 2613 2431 2650 2277 2186 2337 2161 1889 1970 1737 1843 2006 2321 2045 1562 1920 1851 1827 1695 1389 1167 1129 1004 867 956 874 1047 955 866 610 281 502 720 267 101 294 1020 1129 1156 776 951 758
2388 2385 2447 2344 2090 2202 1770 1615 1960 1770 1603 1130 903 1334 1654 1961 1586 1501 1423 1492 1145 1278 1065 1021 1267 1119 916 680 777 615 451 607 600 753 538 364 395 847 1057 1040 956 781 687
2073 1929 2461 2437 2220 2069 1742 1093 1448 1898 1806 1168 837 1095 1227 1005 625 1412 1568 1321 1387 1534 1372 1385 1451 1195 995 698 596 652 645 757 685 569 545 297 366 650 1125 1097 930 878 850
1358 1785 1779 2363 2517 2125 1263 230 786 1634 1592 1619 1347 900 354 132 360 1019 1075 961 1388 1169 1535 721 890 665 731 754 683 668 931 813 575 767 384 254 244 494 973 1250 1158 1080 961
1310 1528 2107 2238 2559 2397 2110 1822 1606 1599 1032 903 1355 1163 461 576 1178 1316 1002 468 883 1232 719 843 663 890 642 745 594 659 774 851 636 955 667 708 181 419 1378 1112 972 928 992
1789 1918 2224 2481 2610 2765 2712 2653 2230 1756 1522 1186 1158 1096 658 696 597 880 677 614 847 1057 913 646 765 703 654 807 717 625 719 720 928 566 742 839 441 419 902 1502 1150 616 460
2120 2143 2529 2344 2515 2687 2677 2475 1933 1361 1509 1263 697 792 999 1011 901 1130 768 611 607 1041 821 550 526 639 493 894 724 749 729 653 799 851 741 632 579 648 656 1113 957 657 607
2584 2393 2488 2576 2716 2711 2541 1996 1563 1107 949 1066 1004 788 919 880 1006 742 802 653 509 513 1134 702 249 368 595 615 462 518 597 667 552 892 900 575 594 841 733 425 297 304 799
2366 2598 2603 2645 2610 2746 2291 1906 1473 1081 971 823 545 718 749 683 618 680 828 685 466 376 612 684 395 175 328 456 341 414 482 759 1154 901 666 617 707 744 614 452 290 330 409
2392 2701 2657 2592 2546 2143 2101 1626 984 863 756 812 486 528 620 416 542 512 652 626 485 550 474 562 355 220 384 448 438 318 262 486 865 943 496 392 507 691 425 314 240 222 234
2551 2560 2592 2381 2402 2036 1546 1110 920 960 909 520 862 402 141 364 369 501 448 786 541 411 487 463 370 202 297 379 265 175 133 275 747 863 711 601 307 397 403 353 208 69 222
2703 2684 2456 2164 1865 1806 1429 1221 1074 723 459 362 276 208 355 184 307 410 412 501 599 633 374 441 437 230 231 369 329 192 111 158 216 331 427 424 444 412 394 286 308 283 297
2901 2755 2608 2040 2155 1866 1414 1050 921 727 242 244 137 152 134 184 440 348 359 433 596 718 368 745 371 220 190 174 204 220 296 335 169 228 165 312 311 240 329 357 311 538 386
2890 2740 2562 2296 2296 1819 1729 832 773 279 93 136 82 92 320 372 478 338 295 313 602 784 629 410 467 307 152 97 124 157 243 292 199 91 99 65 296 252 284 261 325 417 422
1448 2229 2541 2177 1925 1419 1058 816 536 453 399 408 383 383 280 375 407 342 266 402 521 604 460 345 424 355 153 161 171 132 171 140 150 176 62 89 124 291 359 405 438 277 296

GFSSE_con_mlcape_003.txt.gz
CAPE
1028 1504 1914 1970 2015 1682 1590 1663 1683 1476 1392 1207 1009 1037 1328 1727 1485 1183 1526 1523 1713 1316 1096 930 1036 1058 920 748 412 370 863 1060 1139 1172 1150 979 943 961 888 777 521 440 414
1021 1585 1978 2338 2152 1944 1797 1812 1780 1337 1243 1231 1242 1164 1316 1528 1672 1596 1481 1799 1700 1438 1372 1204 1163 1129 888 956 691 847 1106 1178 1223 1374 1176 1154 1040 620 554 649 577 549 555
1134 1869 2291 2237 2068 1892 1924 1961 1748 1590 1158 1178 1357 1361 1219 1205 1599 1370 1743 1481 1298 1289 1354 1159 1196 1180 1107 1360 627 799 1231 1260 1104 1082 1129 864 794 934 931 869 795 718 526
1819 2285 2304 2132 1961 1588 1741 1927 1917 1678 1209 1016 1344 1521 1392 1162 1340 2020 1658 1616 1444 1204 900 1025 1021 1092 1108 1172 793 479 1200 1329 1243 1248 541 418 1033 1041 1086 963 861 802 742
2449 2484 2505 2535 1914 1906 2083 2126 2050 1899 1263 1005 1199 1332 1175 1077 1290 2045 1684 1916 1518 1141 1194 1081 1044 931 1010 1166 983 337 1251 1233 415 711 579 442 640 1325 824 985 903 834 365
2814 2450 2521 2587 2288 2287 2302 2363 2246 1961 1458 1121 1296 1506 1434 1369 1506 1982 1573 1381 1296 1207 1095 1241 1090 1158 1067 982 962 315 871 233 415 560 618 464 673 1174 1095 887 718 932 561
2634 2403 2168 2620 2621 2436 2301 2305 2243 2100 1650 1435 1449 1799 1746 1768 1838 1628 1653 1867 1464 1501 1352 1099 955 1182 1127 1354 820 727 824 253 469 475 602 619 502 1152 1034 743 853 810 481
2298 2211 2366 2667 2663 2593 2349 2409 2284 2157 2050 1783 1920 2084 2148 2207 2084 1774 1998 1816 1697 1365 1515 1095 914 1353 930 1339 1159 471 787 418 512 712 520 426 387 1022 1078 959 872 663 531
2464 2351 2178 2629 2971 2834 2692 2387 2298 2433 2277 2093 2318 2484 2478 2469 2007 2257 1933 1774 1598 1483 1414 1355 1298 1446 1279 949 1191 755 781 275 568 692 531 407 510 1151 1274 1140 907 373 749
2498 2113 2156 2788 2872 2783 2816 2885 2828 2931 2824 2782 2778 2744 2611 2396 2063 2208 1960 1705 1733 1368 1113 1370 1465 1431 1269 1296 1045 1062 724 613 451 608 777 335 695 1397 1271 1105 942 684 282
2522 2351 2289 2277 2487 2425 2360 2594 2733 2866 3124 3027 2854 2755 2253 2227 2342 2230 1920 1852 1775 1611 1478 1231 1366 1082 1189 1257 1230 1055 1259 586 179 333 841 246 813 1110 1046 1124 878 881 451
2243 2346 2583 2732 2692 2615 2664 2478 2480 2330 2192 1988 1632 1634 2266 1939 1817 2049 1932 2003 1918 1492 1508 1411 1216 1103 1039 979 1051 1210 1145 426 188 547 732 264 657 1171 822 948 913 727 856
2285 2291 2403 2331 2283 2138 2218 1899 1675 1762 1578 1522 1519 1867 1728 1879 1844 1561 1857 2067 1664 1431 1216 1086 1157 952 817 1158 908 717 347 281 627 507 550 216 323 992 1274 957 740 819 629
2135 2260 2187 2122 1779 1701 1385 1168 1255 1453 1290 942 627 696 1226 1248 1065 1398 1486 1529 1384 1292 1115 1428 1154 749 667 893 875 854 470 296 524 479 184 258 261 877 1232 1129 874 762 683
1766 2496 2184 2085 1835 1592 1050 647 90 611 1180 1194 988 563 573 450 819 670 1099 1083 1148 1246 1219 928 967 727 746 866 675 747 643 408 551 336 415 480 284 569 1171 1003 980 862 883
1984 2352 2419 2100 1830 1460 793 17 0 0 974 1502 1303 1241 784 387 228 355 938 651 762 602 707 805 555 637 456 554 628 551 492 474 375 320 310 168 274 405 1127 1082 1206 1066 1008
1604 2209 2378 2470 2093 1701 1289 1056 213 958 1296 1076 504 1 1217 636 713 738 654 552 357 407 457 372 551 577 607 683 621 510 568 213 508 466 384 380 470 191 532 990 1029 1155 1139
1660 1939 2379 2767 2665 2512 2446 2006 1858 1895 1474 1086 767 455 1039 807 596 623 631 456 431 455 418 390 376 547 442 676 521 581 763 721 850 457 616 659 446 384 602 971 1030 1068 702
1865 2109 2307 2651 2728 2736 2627 2363 1689 1597 1495 1408 1231 1009 794 882 720 552 709 544 403 360 379 372 369 508 338 495 674 493 686 588 593 718 695 627 570 524 483 812 1458 999 870
2235 2360 2432 2695 2781 2642 2484 1937 1621 950 755 693 787 620 597 567 703 461 461 608 553 301 327 474 297 173 228 379 575 517 434 572 647 472 561 673 475 573 676 418 517 829 651
2227 2304 2262 2456 2470 2167 2239 1389 1186 806 780 572 517 488 605 462 385 350 320 380 474 389 231 228 368 218 58 436 388 306 320 328 120 406 485 517 524 635 511 217 390 266 437
2029 2122 2118 2254 2220 1948 1814 1460 1063 605 561 498 367 387 381 210 264 257 398 387 412 433 410 355 299 239 254 315 167 131 79 132 233 514 692 441 366 555 454 510 517 335 184
1926 2069 2052 2004 2014 1690 1441 1131 928 714 463 325 270 202 185 159 125 142 161 237 440 402 344 396 305 210 152 292 205 35 63 48 129 322 566 509 444 347 433 379 270 245 189
1924 2065 1997 1993 1728 1404 1205 867 678 596 462 67 78 113 132 102 111 163 125 197 364 475 391 339 284 202 184 95 199 196 134 164 78 43 245 357 508 432 405 271 272 222 171
2203 1748 590 1855 1855 1337 1247 782 552 378 124 151 94 51 57 35 68 138 222 203 318 328 437 405 259 175 149 117 64 70 87 142 150 83 46 122 367 339 283 292 266 277 251
2055 796 375 1839 1367 976 585 460 225 276 40 17 1 13 40 45 42 197 229 222 214 291 272 420 304 165 111 64 35 36 62 91 73 100 124 59 72 138 200 227 217 207 280

GFSSE_con_mlcape_006.txt.gz
CAPE
1307 2017 2239 2301 2001 1888 1625 1315 1203 1167 1297 1211 1703 1933 1617 1586 1556 1721 1783 1369 1215 1007 875 1062 1161 1154 930 680 712 985 533 643 1050 897 896 929 876 812 653 502 515 285 274
1417 2023 2089 2235 2054 2073 1740 1508 1428 1318 1275 1150 1182 1606 1750 1634 1724 1716 1475 1602 1522 1275 1202 1135 1195 996 1210 829 823 1049 981 1239 1111 937 952 981 1073 981 684 489 414 299 300
1168 1953 2246 2070 2138 2111 1875 1613 1530 1472 1394 1225 1350 1315 1592 1757 1782 1455 1787 1890 1699 1576 1438 1393 1181 1038 1120 818 828 1235 1289 1249 1357 1251 1110 793 585 737 786 543 482 579 414
1193 1887 2122 2088 2275 2241 1986 1870 1583 1409 1342 1269 1279 1276 1212 1374 1686 1781 1553 1416 1359 1337 1239 1320 1277 1091 1165 665 681 1400 1119 960 982 954 490 744 764 956 793 625 692 526 548
1325 1839 2063 2048 1966 2091 2184 1940 1902 1413 1306 1414 1490 1559 1426 1298 1880 1812 1898 1694 1689 1241 1115 1166 1216 1199 1014 709 499 1190 1298 1210 848 460 470 739 734 1065 879 773 713 651 561
1823 2009 2587 2129 1866 2100 2178 2131 1969 1583 1407 1496 1539 1447 1415 1480 1910 1930 2050 1659 1692 1281 1319 1322 1233 1079 1038 946 598 1077 1038 524 560 630 583 515 746 845 896 820 798 231 543
2038 2412 2609 2189 2277 2561 2533 2360 2149 1775 1426 1467 1516 1655 1677 1759 2037 1914 1384 1761 1612 1565 1459 1536 1259 1369 1156 762 747 889 183 295 395 511 584 394 564 1013 836 798 903 519 483
1836 2211 2291 2168 2319 2399 2564 2503 2267 1958 1581 1563 1732 1988 2009 2075 2052 1479 2032 1811 1877 1635 1651 1479 1251 1326 1378 1264 667 924 212 223 467 609 348 262 508 1083 957 951 924 600 505
2074 1858 2392 2177 2100 2200 2369 2382 2379 2142 1921 1794 2032 2260 2240 2258 2111 2040 1889 1815 1741 1570 1723 1281 1266 1541 1159 897 1033 642 616 197 652 655 432 161 315 939 1125 1089 848 641 137
1822 1738 1927 2214 2322 2249 2266 2393 2323 2297 2307 2198 2623 2641 2529 2535 2225 2357 1968 1774 1609 1676 1446 1356 1288 1579 1432 1033 464 848 527 164 385 637 489 148 320 1309 1146 1087 711 705 462
1847 1556 1896 2346 2434 2256 2372 2642 2478 2741 2717 2709 2786 2841 2673 2132 1911 2171 1921 1498 1647 1551 1628 1345 1117 1472 1280 1155 631 817 870 414 271 186 644 237 462 1391 1301 1110 863 462 707
2019 1784 2014 2361 2239 2047 2217 2645 2712 2809 2836 2665 2449 2424 2148 1595 1682 1740 1497 1508 1800 1748 1750 1634 1485 1231 1233 1139 914 781 972 616 162 355 645 199 513 1364 1133 1007 970 743 395
2110 2143 2062 2089 1968 1606 1642 2031 1978 1946 2030 1909 1666 1658 1756 1736 1837 1936 1482 1519 1221 1572 1253 1466 1491 1268 1066 850 719 592 382 280 129 402 291 282 347 855 1155 1084 827 894 721
2044 2056 2312 2373 2292 2234 1954 1553 1387 1197 1262 893 1011 1251 1512 1508 1321 1260 1286 1095 1080 982 824 1000 959 840 908 794 841 687 362 228 314 373 458 273 189 478 1122 1140 803 699 922
2093 2169 2225 2259 2036 1800 1587 1384 1043 1150 1048 678 517 488 785 967 1068 1083 850 1012 980 1042 830 823 994 694 629 765 906 622 545 296 334 323 100 239 174 454 1017 1253 884 833 845
2052 2179 2172 1943 1694 1297 1008 701 571 605 959 1084 993 478 360 344 372 628 600 464 675 691 576 699 573 757 623 546 689 654 520 336 328 371 299 255 122 352 631 1341 1147 921 851
1958 2171 2148 1869 1714 1236 945 372 31 0 38 985 1131 1047 740 538 349 174 198 342 397 555 505 406 492 520 576 588 560 499 479 433 323 384 231 290 185 344 401 1156 1234 1167 979
1773 2246 2209 2052 1585 1194 984 563 183 8 659 922 899 455 52 526 562 437 419 584 417 373 313 214 250 344 504 554 574 544 462 258 235 374 236 328 248 227 620 580 1339 1151 1021
1877 2038 2061 2096 1721 1512 1453 1309 1263 1273 1272 1118 1019 711 191 666 640 489 533 466 395 300 277 296 236 335 347 364 405 495 511 402 457 445 374 382 376 317 193 431 802 909 818
1355 1573 1821 2030 2042 2037 2025 1814 1714 1285 1189 1154 925 886 807 694 610 398 327 330 398 297 309 278 228 332 263 343 488 567 611 372 360 345 497 574 561 477 401 269 766 849 794
1491 1614 1664 1773 1849 1799 1648 1345 1200 821 535 549 544 609 585 466 608 448 209 162 192 367 242 242 238 117 168 273 301 292 308 436 492 366 337 552 448 423 367 409 156 483 509
1647 1745 1619 1271 1479 1560 1490 1313 865 669 427 263 195 246 344 232 247 157 170 93 52 223 250 195 237 168 143 87 160 116 122 201 167 151 358 393 429 411 408 397 334 336 374
530 616 1200 1362 1418 1382 1347 997 647 436 268 166 125 103 102 146 87 64 66 52 13 116 258 232 173 140 126 164 178 67 45 23 101 211 341 470 409 316 387 462 388 170 237
0 228 262 1063 1567 1307 990 659 408 236 195 56 46 30 7 30 44 47 67 76 47 60 211 237 252 176 109 122 194 230 128 129 57 8 45 177 339 331 293 268 322 315 192
0 156 378 1222 1304 980 775 391 231 7 10 0 0 0 0 9 17 12 62 64 57 65 128 215 239 196 146 100 101 114 121 108 64 48 12 0 65 176 340 359 312 298 219
1076 745 579 1377 1002 711 443 107 4 0 0 0 0 2 2 2 8 0 58 78 106 113 181 181 265 154 148 116 53 21 40 59 55 47 26 2 11 29 138 204 216 271 260

GFSSE_con_mlcape_009.txt.gz
CAPE
1165 1717 1471 1382 1276 1402 1488 1543 1588 1659 1490 1155 1259 1498 1410 1382 1283 1339 1432 1498 1392 1293 1319 1353 1163 1053 851 594 607 773 711 856 940 621 571 540 703 599 402 429 255 171 68
1367 1836 1998 1983 1987 1534 1541 1507 1303 1277 1520 1647 1454 1378 1651 1772 1773 1538 1458 1437 1315 1135 1308 1391 1402 1142 910 789 813 899 688 969 797 597 472 640 638 479 408 313 169 207 287
1429 1917 1880 1778 2019 1915 1551 1377 1471 1351 1432 1726 1777 1625 1736 1958 1992 2006 1929 1702 1488 1427 1387 1426 1390 1474 1065 1007 982 1065 1161 976 832 867 891 601 640 473 442 378 265 222 209
1392 1787 1929 1895 1946 1827 1618 1489 1487 1581 1558 1638 1685 1918 2090 2152 2230 2174 2175 1939 1772 1604 1612 1469 1261 1484 991 976 1192 1181 1288 1120 974 1128 445 458 685 686 438 465 487 407 265
1504 1772 1788 2003 2138 2249 2062 1733 1590 1647 1668 1774 1608 1671 2159 2354 2124 2051 1887 1701 1570 1586 1407 1507 1200 963 1061 923 1373 1179 1043 1122 1105 541 519 578 713 767 593 633 390 484 347
1615 1834 1971 2210 2430 2515 2311 2048 1787 1796 1674 1749 1839 1772 1888 2301 2316 2182 2148 2045 1834 1433 1411 1410 1072 752 1154 891 1052 1159 1375 1162 633 490 619 579 798 798 675 638 576 461 316
1781 2005 2351 2384 2373 2617 2538 2401 2188 1825 1859 1867 1960 1956 1867 2198 2358 2276 1899 2152 1895 1697 1538 1180 1293 1214 732 1092 876 1085 847 799 523 489 518 411 532 784 803 774 240 348 429
1623 2250 2588 2579 2422 2610 2636 2506 2391 1883 1920 1984 2015 1944 2064 2150 2309 1810 1901 1891 2080 1866 1736 1426 1506 1451 1178 1288 820 763 356 498 521 569 507 446 548 813 840 857 456 266 603
1900 1908 2229 2480 2488 2622 2743 2676 2534 2105 2023 2159 2215 2264 2248 2358 2191 1748 2207 1909 1822 1775 1779 1353 1289 1465 1275 1200 951 510 262 498 559 544 439 269 614 864 952 1065 674 336 657
1815 2149 2058 2219 2329 2469 2981 2933 2706 2383 2147 2092 2368 2466 2504 2531 2233 2301 1925 1746 1831 1740 1497 1210 1173 1193 925 806 1271 741 434 500 500 548 391 134 414 1144 1216 1047 839 245 312
1781 2026 2227 2136 2161 2325 2505 2901 2820 2692 2491 2401 2581 2647 2654 2404 2168 2273 1802 1568 1833 1639 1557 1285 1026 856 785 659 806 1017 838 292 343 335 451 169 206 1207 1256 1123 726 583 248
1748 1825 2134 2107 2199 2156 2495 2685 2662 2620 2680 2510 2580 2609 2409 2186 1841 2060 2017 1627 1867 1846 1753 1450 1266 1146 973 567 629 968 683 355 185 156 512 299 175 977 1300 1145 615 626 679
1802 1502 1757 1876 1824 2202 2385 2728 2302 2521 2539 2436 2333 2304 2286 1527 1585 2147 1736 1796 1564 1824 1482 1743 1567 1347 865 648 484 447 568 273 90 387 496 490 212 732 1482 1252 839 550 370
2080 1922 1839 2081 1993 2060 2096 1613 1660 1532 1931 1672 1870 1790 1596 1231 1234 1382 1360 1274 1131 1296 1112 1197 1152 992 942 855 620 459 444 293 59 383 483 475 354 665 1381 1311 1090 990 769
2146 2064 2016 2103 1888 1723 1419 1220 1283 1277 1158 1232 1067 971 1218 1334 1027 1329 1176 1096 940 1076 834 710 820 652 614 652 668 442 429 257 99 319 258 299 541 308 576 1366 1192 1009 974
2088 1995 2083 2133 2150 1987 1783 1558 1088 991 899 798 608 624 816 1019 751 944 759 712 714 781 795 865 570 615 622 558 572 606 317 412 191 240 317 240 452 224 352 1156 1264 991 939
1999 1977 2094 2130 2066 1852 1558 1324 1016 751 922 941 846 746 418 298 451 491 577 468 381 534 606 612 471 377 492 518 522 587 379 381 260 252 246 139 237 255 369 552 1247 1048 1017
1913 2057 2022 2050 1842 1556 1089 779 468 282 199 349 789 871 830 397 278 246 233 254 228 338 418 394 278 223 306 405 478 486 479 392 310 249 283 231 144 209 224 407 839 1001 967
1562 1932 1949 1949 1790 1407 1077 787 455 195 3 0 602 571 301 237 124 395 291 177 419 318 295 321 183 174 172 346 361 403 380 322 257 349 291 194 184 230 157 298 345 842 954
1671 1957 1989 1912 1774 1415 1143 955 790 874 714 663 621 578 594 281 297 430 442 471 393 324 255 237 197 184 161 230 325 460 422 342 285 320 307 261 251 295 233 214 188 296 602
606 1298 1436 1783 1807 1465 1157 995 1066 1006 834 654 639 551 511 475 470 282 275 221 241 152 226 260 226 92 96 208 226 201 215 424 405 369 385 440 435 435 352 361 292 410 599
0 670 50 46 95 953 1090 1006 1069 772 558 386 235 215 247 253 305 236 161 153 186 68 90 255 220 85 41 157 168 92 109 222 299 299 339 406 485 445 419 464 384 293 204
157 63 0 2 8 595 1008 1012 671 484 368 232 115 59 44 51 122 116 111 77 88 102 20 126 216 95 0 73 79 53 51 38 97 146 151 335 377 404 438 403 303 300 287
41 0 0 0 22 494 818 780 668 448 279 124 29 0 11 0 2 44 58 81 76 60 49 47 209 160 47 43 77 108 81 36 22 40 121 295 468 383 329 312 341 366 286
13 0 0 0 3 614 1007 735 385 164 38 22 0 0 0 0 0 5 48 66 85 68 48 65 171 194 95 1 41 89 96 112 43 19 0 0 93 205 197 209 245 235 237
0 2 5 142 636 713 765 376 84 12 0 13 0 0 0 0 0 10 15 55 86 77 47 45 165 205 132 99 33 57 73 82 41 28 29 11 0 0 78 163 201 225 205

GFSSE_con_mlcape_012.txt.gz
CAPE
884 1164 1840 1651 1407 1099 962 960 1324 1718 1684 1743 1680 1766 1706 1548 1647 1766 1648 1358 1345 1484 1676 1473 836 839 658 749 686 378 918 1023 732 983 1010 647 774 627 607 245 0 89 446
1109 1317 1618 1813 1607 1536 1492 1264 1234 1306 1569 1567 1548 1575 1572 1396 1460 1705 1638 1604 1519 1425 1432 1411 1357 1086 991 634 739 867 1208 1079 752 462 348 733 702 573 360 123 0 244 31
1268 1482 1618 1932 1991 1939 1772 1699 1550 1421 1396 1507 1575 1589 1579 1570 1649 1812 1711 1589 1394 1383 1452 1511 1405 1213 1012 995 1027 882 1068 873 737 601 743 555 453 527 263 298 202 382 114
1349 1747 1679 1931 2232 2041 1904 1802 1675 1705 1850 1668 1709 1865 2000 2171 2218 2052 1874 1659 1580 1557 1625 1479 1601 1366 1164 1220 1085 1066 1072 993 959 977 455 519 450 648 404 297 229 152 323
1598 1902 1861 2129 2206 2051 2128 1949 1875 2094 2190 2195 2172 2194 2352 2259 2247 2064 2032 2107 1908 1835 1678 1448 1331 1246 1086 1065 1282 1206 1176 1153 1191 631 375 459 547 596 644 514 442 196 124
1651 1943 1793 2382 2463 2102 2055 2203 2332 2376 2246 2007 2142 2287 2541 2356 2243 2165 2050 1978 1700 1762 1447 1051 1181 1336 1088 1140 1279 1111 1094 1094 979 533 537 610 594 721 715 431 538 312 294
1566 1841 2004 2101 2698 2522 2259 1968 2099 2229 2256 2059 2018 2043 2160 2353 2364 2304 2156 1924 1956 1652 1301 1153 965 990 1232 841 1262 1254 1147 816 493 605 515 751 706 594 822 712 418 430 96
1424 1775 2125 2433 2696 2697 2479 2271 1704 1965 2229 2323 2202 2139 2160 2389 2308 2317 1947 2079 1981 1674 1373 904 1287 1224 1200 809 1108 1090 1093 832 471 509 578 428 586 591 828 702 197 584 404
1542 1678 2275 2539 2593 2683 2629 2699 2234 2140 2269 2263 2226 2261 2260 2413 2418 1895 2133 1919 2149 1697 1288 1153 1121 1542 1251 1004 734 788 708 840 533 571 566 406 640 654 897 835 224 559 646
1511 1665 1858 2370 2343 2762 2934 2667 2596 2215 2300 2424 2436 2357 2400 2457 2197 1815 2272 2046 2065 1808 1809 1523 1135 1034 1381 1337 649 423 534 643 552 555 436 322 655 915 1093 1090 592 585 595
1643 1683 1661 1922 2122 2524 2365 2649 2484 2469 2372 2448 2492 2535 2453 2260 2140 2178 2162 1923 2009 1961 1683 1645 1363 993 728 1224 886 658 438 591 502 563 410 280 393 1039 1174 1132 828 246 637
1432 1535 1820 1943 2031 2356 2441 2617 2506 2395 2346 2364 2420 2429 2328 2134 1870 2228 1946 1878 2098 1953 1971 1731 1446 1084 1042 697 839 711 799 346 384 354 490 388 269 779 1238 1043 880 380 264
1616 1634 1778 1811 1984 2071 2309 2490 2643 2510 2441 2337 2366 2308 2191 2071 1765 1998 2010 1888 1762 2162 1836 1968 1535 1186 873 752 573 442 564 436 241 186 424 551 334 509 1332 988 904 842 619
1731 1555 1467 1673 1720 1968 2010 1894 1889 1512 1581 1795 1484 1570 1899 1601 1270 1575 1611 1331 1454 1528 1409 1500 1301 1151 835 897 662 496 396 403 229 143 515 675 418 375 1328 1286 1123 776 698
1689 1708 1421 1492 1534 1619 1579 1632 1678 1235 1128 923 973 976 1062 1075 794 1159 1209 1330 1194 1037 1167 986 946 898 822 821 779 622 496 379 237 85 411 820 649 399 845 1264 1231 1093 858
1785 1929 1812 1679 1559 1538 1358 1210 1132 1095 917 732 740 902 976 829 781 716 845 761 956 902 929 813 775 792 694 656 585 610 492 426 194 37 261 363 452 382 217 660 1232 1153 1037
1955 2029 1877 1775 1707 1613 1439 1234 973 810 939 796 744 641 653 724 544 523 626 749 734 659 652 704 761 690 654 663 608 537 537 449 401 108 177 287 342 463 439 440 948 1196 928
1960 1987 1962 1943 1796 1780 1678 1521 1315 997 722 747 827 813 779 662 459 466 572 669 558 471 423 395 469 394 357 436 516 499 575 488 475 378 154 242 181 207 311 323 462 435 823
1703 1778 1801 1941 1753 1593 1471 1153 774 555 371 401 320 376 484 821 635 340 276 282 386 350 277 350 346 328 156 203 440 420 490 485 442 429 220 298 266 244 218 233 194 164 554
1029 640 681 491 328 835 763 680 597 503 333 200 76 11 339 569 440 401 243 313 317 240 311 302 304 258 210 138 287 444 418 443 361 411 385 333 310 250 179 223 191 311 241
77 17 83 259 158 81 587 616 830 789 722 716 621 581 561 555 481 290 265 296 356 421 418 309 276 242 196 208 218 152 216 306 385 363 397 401 335 305 232 297 243 327 227
53 44 12 3 0 14 56 666 778 639 497 340 231 201 200 239 320 346 265 234 151 234 184 167 262 210 166 192 115 131 96 199 331 423 433 451 438 537 436 375 342 361 408
18 0 0 5 0 0 35 584 588 400 329 221 142 103 35 21 62 136 190 213 142 131 139 97 225 250 184 75 129 50 63 53 137 212 296 388 430 480 488 501 535 514 446
7 0 0 0 3 0 78 572 520 453 241 61 9 1 0 0 2 15 82 112 118 54 112 118 129 263 221 93 75 78 47 20 55 74 146 191 311 363 386 455 494 501 403
80 98 0 0 0 2 359 559 436 109 0 0 0 0 0 0 0 0 2 38 46 41 116 115 126 123 228 149 94 89 91 122 35 8 21 119 209 373 439 394 358 425 457
17 0 0 0 56 427 708 350 70 0 0 0 0 0 0 0 0 0 11 24 46 61 94 108 123 134 161 227 131 68 79 91 128 95 47 10 1 0 26 129 173 213 296

GFSSE_con_mlcape_015.txt.gz
CAPE
861 1540 1836 1356 1189 1293 1496 1714 1800 1858 1733 1758 1783 1498 1459 1584 1726 1665 1568 1328 1470 1425 1430 942 736 839 1078 1165 821 755 1077 1016 821 908 960 805 748 598 473 133 59 113 192
960 1520 1775 1450 1301 1318 1742 2020 2042 2031 1982 2046 2108 2057 1969 1901 2039 1947 1589 1448 1719 1654 1612 1199 1078 824 991 1104 744 1018 1255 889 1174 950 790 792 806 554 265 37 447 465 522
974 1258 1409 1599 1515 1467 1628 1929 2124 2051 2055 2172 2230 2098 1905 1952 1975 1935 1850 1682 1565 1538 1606 1567 1379 1144 1057 889 960 1164 1297 809 537 492 817 451 578 365 204 4 539 0 174
990 1149 1255 1747 1666 1749 1708 1762 1785 1833 1978 1986 1982 2010 1887 1879 2052 2005 1935 1765 1531 1633 1721 1592 1623 1352 1287 902 1153 1203 983 904 858 980 505 208 191 467 562 460 229 363 335
1155 1262 1545 2047 2068 2080 2009 1854 1983 2070 1860 1890 2007 2043 2170 2357 2217 2143 1963 1847 1805 1842 1701 1509 1704 1453 1054 1208 1204 1149 1260 1158 1210 663 636 629 458 539 500 442 220 286 245
1400 1392 2077 2092 2298 2217 2089 1996 2083 2167 2178 2102 2134 2396 2391 2420 2017 1984 1768 1755 1833 1618 1638 1280 1474 1344 1079 1384 1359 1323 1353 1337 1145 585 690 577 556 697 757 505 316 135 281
1622 1603 2059 2357 2356 2242 2244 2054 2021 2224 2230 2260 2418 2604 2498 2073 2210 2097 2165 1707 1428 1203 1259 1224 1308 1406 1172 1490 1477 1412 1448 1296 607 767 754 503 625 771 750 636 513 245 522
1704 1636 1996 2191 2144 2310 2123 2099 2057 2180 2233 2159 2110 2236 2339 2418 2280 2517 2083 1906 1595 1074 1035 975 1237 1444 1242 1297 1367 1104 1168 1046 848 706 583 649 595 733 888 746 742 159 546
1848 1878 2171 2365 2671 2269 2135 1983 2108 2244 2395 2485 2424 2338 2353 2632 2303 2413 2097 2168 2008 1527 1303 1022 1409 1339 1405 1072 1474 1332 1139 859 596 860 799 369 437 773 1000 633 752 413 566
1996 2089 2271 2580 2658 2732 2597 2251 2025 2230 2398 2581 2508 2448 2314 2388 2484 2087 2114 2104 2192 1873 1536 1252 1248 1679 1407 956 973 1015 1204 1108 786 922 929 312 441 788 1111 650 293 820 748
1750 1854 1624 2210 2521 2941 2904 2750 2522 2224 2362 2408 2559 2464 2376 1905 1936 1555 2141 1970 2202 1836 1466 1127 1259 1123 1079 1243 897 825 843 726 832 942 695 579 525 880 1194 1100 568 809 714
1590 1835 1867 2415 2330 2190 2690 2829 2805 2670 2417 2503 2554 2536 2160 1960 2172 1633 2191 1907 1968 1993 1929 1479 976 1030 1283 1356 893 896 619 925 793 961 846 485 368 876 1195 1092 668 524 770
1886 1904 2143 2394 2321 2359 2607 2719 2663 2372 2465 2507 2565 2608 2463 2404 2189 1668 1941 1674 1730 2195 1768 1611 1340 1257 1314 1044 993 1029 1053 775 646 766 840 582 430 599 1250 1067 660 449 365
1803 1533 1977 2189 2252 2371 2651 2570 2422 1991 1970 1988 1695 1460 1402 1450 1619 1828 1691 2017 2063 1893 2203 1916 1662 1326 1511 1306 1114 961 916 989 524 632 686 713 530 424 948 890 608 709 619
1945 1827 1822 2013 2066 2207 2278 2263 1986 2141 1934 1890 1392 1052 648 182 67 753 1544 1790 1786 1845 1815 1800 1798 1698 1309 1194 1127 1025 853 832 720 423 463 761 621 502 550 1271 551 1079 883
2073 1888 2092 1632 1941 2151 1850 1880 1856 1385 1350 1542 1452 696 649 250 297 522 788 981 1636 1460 1593 1592 1437 1415 1277 1157 1025 891 923 1118 740 543 233 616 579 570 506 978 218 1164 978
1996 1982 1612 1733 1820 1666 1514 1531 1212 1085 1213 1147 1219 869 610 522 426 463 985 1128 1486 1347 947 1409 1447 1496 1382 1381 1143 636 947 1097 1020 601 416 504 704 397 461 178 319 430 996
2201 1472 1359 1508 1525 1566 1487 1578 1547 1437 1339 1246 1263 1215 1169 1066 929 671 584 889 1232 1446 1050 956 866 989 976 1003 1038 867 653 876 1010 919 641 406 648 605 418 410 188 265 168
1173 621 560 878 1306 1367 1350 1435 1538 1572 1402 1244 1127 1200 1338 1269 1276 1195 950 777 988 1084 1065 850 625 569 792 694 693 804 649 525 858 914 818 575 520 662 537 667 257 199 157
470 220 260 266 159 1023 1091 854 1003 1036 880 707 572 556 481 455 623 1105 895 834 908 614 759 845 801 745 848 683 490 513 905 693 624 837 967 757 569 667 764 732 619 288 182
371 128 109 8 105 42 345 779 1057 1142 1383 1130 1161 1017 783 877 982 1043 992 842 539 450 765 879 714 712 681 794 494 411 499 655 725 1030 1067 719 776 790 851 858 562 549 556
184 81 11 27 47 0 97 211 791 966 920 701 553 509 444 419 520 571 616 816 494 595 338 526 624 582 509 774 334 348 231 423 550 803 993 984 995 1030 960 974 865 926 850
169 47 1 13 2 0 3 244 513 874 683 683 459 277 198 151 198 220 241 364 838 240 152 162 296 285 353 579 635 269 170 111 391 715 905 1102 1058 1152 1053 1252 1168 916 1043
18 5 0 0 0 0 8 203 714 839 592 165 84 77 98 68 51 113 245 224 366 289 154 95 250 207 578 447 476 392 233 122 121 219 573 796 992 1076 1169 1256 1096 1078 1252
143 166 0 0 0 6 73 552 779 365 69 11 64 75 132 88 68 103 119 316 457 419 222 73 112 261 322 521 349 432 309 279 177 109 187 425 502 669 837 1102 1011 1114 1201
120 85 0 0 21 452 953 593 177 26 0 13 40 66 79 62 73 181 134 228 395 490 352 172 203 243 233 491 594 435 266 190 179 184 130 135 222 261 360 611 714 590 668

GFSSE_con_mlcape_018.txt.gz
CAPE
973 1384 1694 1299 1138 1297 1402 1597 1601 1565 1452 1379 1300 1431 1648 1654 1725 1853 1675 1652 1691 1630 1415 1192 1107 1080 1030 1056 924 1112 1227 863 1300 1092 1036 914 796 647 359 83 397 98 459
1074 1306 1480 1411 1327 1535 1797 1796 1884 1897 1750 1761 1543 1631 1666 1605 1527 1934 1684 1458 1587 1818 1554 1191 1040 1142 1258 1250 1083 1219 1274 1040 1076 1126 886 921 811 518 100 178 349 137 393
1110 1269 1201 1595 1569 1848 1912 1932 2034 2125 2196 2205 2033 1952 1988 2071 1985 1987 1835 1633 1495 1715 1596 1592 1398 1269 1249 1036 1023 1233 1156 1087 1041 953 879 541 489 315 134 582 291 471 489
1089 1212 1322 1502 1687 1876 1978 2109 2203 2288 2493 2418 2293 2232 2150 2176 2110 2003 1983 1868 1687 1732 1784 1596 1508 1341 1179 843 1271 1290 1038 805 745 900 639 295 132 397 134 510 63 420 203
1020 1060 1573 1681 1737 1846 1819 1899 2072 2224 2260 2189 2143 2092 1966 2007 2037 1987 2004 1800 1824 1701 1744 1865 1718 1535 1336 1016 1316 1352 1085 1037 1121 675 258 207 151 547 720 364 603 329 517
1067 1083 1710 1778 2015 2035 1912 2010 1993 1947 2038 2083 2066 2031 2322 2534 2390 2279 2013 1949 1990 1826 1800 1487 1840 1714 1273 1426 1399 1350 1367 1455 741 610 485 354 537 395 666 376 125 316 309
1262 1395 1703 2106 2103 2011 1947 1971 2102 2183 1993 2014 2148 2617 2589 2351 2182 2065 1842 1775 1526 1533 1700 1441 1624 1545 1283 1564 1488 1457 1469 1367 829 431 532 252 866 652 741 791 153 264 488
1404 1566 1772 2199 2197 2008 2042 2046 2203 2113 2278 2378 2582 2670 2534 2145 2315 2060 2262 1919 1530 1442 1344 1408 1489 1687 1423 1699 1423 1548 1355 1153 553 456 425 271 667 699 759 901 437 633 629
1594 1658 1957 1974 2126 2151 1974 2211 2329 2386 2293 2250 2250 2401 2424 2299 2030 2325 1988 1998 1699 1547 1327 1218 1484 1624 1415 1218 1608 1329 1435 953 608 554 342 310 415 813 1001 860 765 225 656
1774 1823 1937 1897 1895 1986 1987 2089 2088 2175 2256 2409 2414 2278 2367 2496 2327 2026 1859 1511 1761 1476 1441 1472 1259 1445 1522 1145 1274 1461 1368 1129 797 702 677 310 163 749 1158 891 899 374 715
1794 1900 1874 2159 2255 2341 2448 2127 1864 2264 2308 2631 2490 2423 1984 1609 1875 1647 1187 1802 1758 1836 1628 1425 1271 1203 1036 1073 1218 1027 1306 650 826 778 660 525 188 706 1157 982 506 911 734
1576 1697 1481 1855 2126 2372 2329 2292 2112 2100 1921 2059 2040 2209 1804 1413 1433 1467 1550 1512 1881 1940 1926 1496 1056 744 802 615 976 1193 581 653 890 924 716 611 126 666 1260 1045 586 729 878
1646 1735 1601 1597 1730 1954 2002 1998 2095 2214 1993 2085 2235 2397 1931 1361 1418 1281 1050 1354 1132 1405 1267 849 790 797 996 1054 999 885 602 772 926 829 845 728 326 501 1346 1193 782 440 889
1918 1760 1873 1871 1776 1962 1780 1880 2019 1921 2055 1811 1317 1065 1303 1584 1425 994 1245 1188 1346 1460 1400 1429 1454 1278 1286 1296 871 941 1000 815 485 573 745 783 559 454 914 1093 752 625 379
1996 1899 1843 2017 1978 2034 2225 1774 1819 1875 1813 1807 1446 1027 690 560 166 0 6 447 1075 1328 1386 1334 1382 1261 1292 1392 1288 1066 1027 861 625 535 296 746 584 600 520 1137 436 570 682
2014 2069 2300 2420 2123 1934 1985 1938 1858 1864 1590 1264 1003 917 957 542 52 23 0 95 548 1130 1232 1320 1136 1242 1139 1068 1200 1260 1100 1217 771 787 481 448 492 454 485 614 603 386 826
2025 1753 1589 1511 1973 2043 1831 1658 1247 1202 954 877 978 1121 864 888 765 378 278 61 253 1043 1383 1197 1324 1268 1191 1080 1019 1108 1162 1019 978 1219 642 394 495 393 452 351 687 16 166
1887 1743 1233 826 1144 1382 1649 1555 1169 1261 1084 1086 1247 1217 947 723 839 754 557 349 335 1032 1207 868 745 998 1103 1041 854 919 1004 923 1109 1270 968 560 347 468 558 304 377 130 121
2569 1370 565 132 1123 1690 1588 1541 1559 1786 1724 1343 1351 1415 1442 1576 1362 1083 889 811 996 1055 962 1065 908 775 745 756 813 714 847 1166 843 915 1019 929 703 349 483 578 208 158 162
2513 1298 850 790 734 1544 1839 1861 1414 1447 1388 1391 1213 1147 1226 1323 1328 1163 967 1012 1146 1083 828 735 636 638 543 836 818 536 513 864 1232 736 923 1047 818 631 558 658 500 374 162
1568 956 722 558 227 984 1074 1095 848 936 1213 1459 1489 1820 1702 1328 1092 1085 927 820 1176 653 658 596 784 739 728 743 851 688 368 570 1331 876 1046 1065 909 903 800 766 741 413 560
1257 784 910 228 110 171 494 1153 1306 1457 1510 1369 1472 1521 1437 1210 1193 1228 1165 838 801 666 801 759 704 757 654 690 544 198 112 267 484 1087 1043 998 999 986 899 1017 1002 954 855
1188 1111 661 235 58 50 91 866 1218 1443 1692 1299 901 297 295 370 369 481 717 897 868 711 523 746 512 513 552 435 530 216 141 129 412 796 1028 964 1098 1130 1132 1097 1225 1203 1265
853 614 667 267 63 88 90 677 1613 1308 1000 351 209 237 301 288 272 215 198 388 679 791 777 771 530 175 350 585 601 415 396 526 246 412 622 940 1292 1254 1239 1163 1287 1331 1397
466 605 229 455 357 430 530 1211 1567 1014 257 233 175 358 361 311 209 217 260 206 322 651 805 850 559 67 83 560 483 303 424 463 502 369 192 215 944 976 943 1222 1101 1119 1252
823 473 96 209 204 987 1697 1554 772 331 341 133 294 175 61 57 108 279 310 358 293 542 671 881 700 47 27 303 507 495 401 425 327 412 108 115 210 384 508 695 938 1011 670

GFSSE_con_mlcape_021.txt.gz
CAPE
924 949 1375 1217 1324 1490 1452 1541 1675 1685 1496 1454 1562 1704 1836 1853 1548 1346 1264 1478 1637 1467 1264 1136 1046 951 1143 1143 1102 1264 507 1043 1116 1037 972 910 783 711 415 529 590 302 459
1248 1310 1459 1418 1456 1689 1853 1694 1746 1680 1526 1560 1558 1700 1770 1890 1783 1477 1509 1447 1566 1726 1417 1284 1229 1326 1261 1111 1253 1423 988 1299 1135 1172 985 904 812 432 197 281 160 455 190
1052 1213 1164 1437 1696 1828 1969 2058 2035 1924 1928 1848 1778 2015 1964 1873 2025 1641 1498 1527 1723 1841 1662 1619 1366 1391 1231 1299 1169 1238 1133 1252 1189 917 1032 379 272 114 635 769 329 641 233
1003 974 1280 1460 1719 1977 2002 2113 2112 2267 2340 2191 2116 2192 2160 2265 2180 2009 1935 1645 1759 1778 1661 1655 1528 1470 1400 1204 1435 1180 1362 965 629 1123 827 411 3 187 757 100 309 406 514
1051 1149 1628 1627 1698 1954 2104 2222 2393 2570 2622 2552 2534 2453 2357 2284 2178 2144 2036 1687 1600 1822 1770 1834 1613 1474 1147 979 1283 1228 1056 829 515 933 985 344 129 223 713 146 481 236 358
1009 1496 1647 1696 1720 1833 2010 2147 2299 2472 2546 2573 2493 2252 2130 2190 2139 2139 2124 1941 1785 1862 1677 1728 1818 1665 1311 1098 1308 1240 1162 1020 710 1012 334 359 765 691 757 642 150 702 477
976 2076 1496 1949 1856 1835 1913 1978 2049 2153 2250 2253 2252 2323 2545 2587 2426 2159 1910 1704 1811 1439 1245 1543 1723 1611 1444 1616 1500 1456 1460 833 939 816 364 485 790 514 627 298 403 629 515
1074 1710 1424 2070 2146 2134 2030 2263 2380 2179 2154 2189 2478 2575 2720 2264 2296 2246 2214 1907 1715 1431 1022 1149 1401 1573 1491 1601 1611 1394 1504 603 816 374 339 822 598 658 816 543 300 510 394
1236 1595 1629 1648 2016 2213 2258 2357 2359 2342 2228 2375 2576 2566 2383 2384 2208 2042 1959 1872 1563 1421 1189 1045 1269 1732 1343 1529 1408 1581 1049 498 879 667 290 954 530 620 831 965 525 800 691
1346 1591 1714 1919 1909 1869 1961 2346 2147 2264 2233 2216 2206 2221 2164 1811 1760 1960 1385 1326 1501 1584 1570 1463 1215 1625 1620 1255 1419 1166 1249 1094 636 784 487 817 298 485 1154 1026 873 324 685
1348 1322 1898 1884 1972 2056 1996 2001 2210 2198 2529 2519 2297 2346 1920 1420 1882 1975 1082 1360 1425 1538 1524 1342 1414 1092 1728 1392 1441 1195 1128 441 373 516 448 443 322 392 1182 1137 939 545 692
1214 1163 1671 1847 2212 2173 2079 2116 1809 1956 1873 1919 1842 2020 1986 1734 1654 1349 1788 1363 1046 1554 1640 1421 1247 1161 609 718 1062 1160 625 302 634 611 765 454 260 266 1202 1142 521 1000 644
1500 1264 1428 1756 2157 2234 2090 1928 1725 1804 1749 1566 1737 2103 1817 1972 1964 1455 1370 1538 1134 861 790 939 844 722 787 384 919 820 601 453 795 964 861 570 277 187 1157 1261 883 371 881
1269 1333 1416 1629 1780 1900 1987 1798 1922 1861 1907 1469 1733 2310 2499 2048 1937 1458 1311 1388 1488 1170 1205 890 996 834 1001 1191 1057 867 625 840 555 510 744 743 543 297 700 1311 829 647 544
1099 1232 1588 1903 2050 2064 1942 1839 1874 1629 1179 1580 1534 1273 748 930 1409 403 63 49 463 1231 735 580 691 944 932 1287 1260 1164 1047 842 769 602 641 738 589 322 429 785 955 626 133
1106 1236 1588 1823 2069 1957 1850 2097 1830 1633 1354 1364 1444 1184 1272 965 797 355 151 22 1 555 937 490 979 969 681 957 1309 1056 1241 1176 1121 929 617 627 631 435 373 413 530 624 133
1262 1436 1791 2092 2015 2109 1911 1834 1689 1125 862 1090 973 1363 1428 1390 1100 621 425 441 3 6 26 32 467 931 951 799 769 1247 942 1069 1120 1027 937 773 718 465 374 373 497 537 213
1524 1550 1821 1601 1844 1940 1987 1716 1208 1221 987 863 1098 1008 1182 1263 1299 1272 988 753 498 0 0 22 716 588 898 979 879 916 1120 839 884 963 1005 1017 470 571 522 271 312 365 1
1892 1967 2112 1653 1529 1747 1794 1401 1425 1314 1328 980 652 819 1392 1522 1198 1169 808 888 1014 355 211 604 773 878 584 750 805 880 945 993 823 895 1117 1115 1041 885 687 527 248 264 141
2283 2541 1912 1114 1456 2130 1876 1695 1180 901 1468 1229 1213 916 1128 1350 1344 1159 1159 1025 1296 665 843 1062 905 859 462 380 240 356 829 733 947 924 1146 1175 1153 862 876 846 630 253 236
2649 2513 2014 1761 1322 655 448 521 998 913 703 851 1493 1209 1417 1479 1287 1009 1059 949 956 1015 1059 1304 989 782 617 545 733 543 220 278 526 1199 1019 914 1082 1247 618 917 712 594 404
2501 1960 1722 1463 436 290 274 169 1091 1177 1489 1337 1487 1482 1432 1166 1068 1069 1198 1253 1132 994 932 893 918 811 1045 803 601 285 143 19 129 841 1048 1102 1336 1189 1031 1102 700 1093 539
2172 1618 1610 715 289 139 315 807 1344 1481 1734 1361 1244 665 603 705 522 398 523 683 959 1006 1009 710 805 755 738 697 705 317 107 20 47 954 1349 1083 1012 1061 1060 912 811 1372 895
1880 1770 1371 1362 611 158 44 59 1048 1467 1015 708 371 504 621 590 410 322 359 366 557 733 1035 765 885 720 540 237 533 649 419 285 335 173 727 949 1043 974 1042 606 480 603 1105
1134 1117 1226 975 515 815 995 1244 1430 1413 375 401 345 431 617 604 616 359 333 387 506 586 643 970 1041 720 585 470 484 378 493 200 372 473 541 117 705 947 1287 856 489 871 1334
1314 912 936 1018 839 1037 1012 1453 1616 718 573 461 531 387 134 98 455 411 534 502 412 672 630 733 768 764 674 429 110 454 368 297 191 459 327 135 157 218 305 407 891 1145 1182

GFSSE_con_mlcape_024.txt.gz
CAPE
883 1152 1169 1353 1344 1526 1669 1696 1635 1692 1616 1486 1590 1729 1543 1328 1276 1263 1375 1451 1436 1347 1256 1157 950 953 1150 1113 1277 556 852 955 890 833 844 734 654 458 422 265 381 234 362
1037 1185 1227 1435 1478 1624 1820 1821 1724 1753 1625 1688 1779 1963 1855 1693 1547 1302 1337 1373 1562 1484 1321 1258 1241 1170 1277 1121 1382 973 1505 1024 976 981 816 770 338 217 450 355 390 137 73
1147 1212 1176 1581 1805 1866 1849 1938 1834 1704 1774 1846 1939 2024 1993 1968 1789 1292 1213 1647 1962 1784 1536 1357 1380 1481 1192 1232 1094 1103 1187 1066 1134 965 790 399 108 611 750 377 642 111 444
1155 922 1277 1738 1973 1990 1998 2150 2107 2103 2120 2012 2069 2108 2219 2229 2061 1828 1625 1644 1870 1809 1743 1716 1532 1462 1172 1217 958 1258 1183 1184 1073 692 894 65 5 721 443 672 694 260 202
815 1186 1736 1841 1927 2049 2066 2287 2392 2498 2389 2326 2426 2384 2432 2358 2125 2093 2003 1885 1875 1778 1695 1700 1555 1479 1175 998 1002 1324 704 872 869 349 271 265 0 473 32 230 177 532 397
907 1745 1709 1641 1884 2085 2115 2245 2484 2586 2661 2597 2570 2423 2333 2236 2251 2133 2012 1768 1553 1577 1357 1703 1689 1506 1186 1204 894 1008 557 569 770 1016 370 530 186 588 243 275 356 428 477
1896 1674 1462 1561 1669 1931 2095 2133 2317 2435 2547 2495 2366 2122 2129 2238 2319 2232 2082 1881 1149 1330 1323 1515 1864 1496 1304 1403 1099 906 684 549 605 910 530 529 329 434 479 332 664 505 385
1898 1440 1384 1726 1732 1797 1800 1800 1924 2092 2172 2191 2151 2290 2518 2361 2175 1972 1994 1848 1505 1172 640 1263 1746 1497 1524 1655 1327 1110 752 540 658 431 405 864 364 410 572 236 401 334 539
1368 1372 1517 1599 1909 1886 2009 2088 1835 1849 1936 2060 2594 2597 2378 2344 2170 2263 2082 1840 1559 1488 1135 980 1384 1655 1667 1667 1588 1051 709 734 590 561 635 721 445 618 739 333 273 488 208
1669 1529 1456 1673 1810 1805 1997 2257 2227 2149 2231 2336 2484 2498 2354 2456 2198 1960 1488 1557 1514 1255 1224 1200 1178 1615 1456 1627 1576 1395 584 679 454 502 495 652 195 450 535 742 354 713 503
1586 1724 1700 1988 1946 1938 1945 2156 2365 2307 2223 2138 2064 1924 1498 1585 1523 1687 1129 1471 1237 1183 1377 1386 1464 1374 1462 1181 1225 1573 1039 432 173 378 347 414 45 475 807 885 706 215 606
1214 1570 1756 1996 2121 2103 2031 2088 1986 1971 2088 2107 2083 2211 1760 1430 1520 1343 1240 1177 1402 1203 1292 1444 1462 1307 1414 856 1015 1295 1078 337 351 570 3 14 127 350 773 962 880 500 589
1416 1496 1847 1949 2318 2115 1774 1871 1792 2041 2011 1512 1382 1377 1958 1648 1504 1327 1399 1514 1206 1036 1196 1231 1309 1198 785 464 610 853 661 377 460 711 530 284 280 159 600 982 641 738 871
1141 1104 1662 1934 2144 2200 1769 1618 1552 1372 1595 1359 1137 1115 1410 1977 1544 1213 1613 1330 1344 1125 1194 1100 740 917 960 459 660 1092 884 808 426 691 799 498 195 109 312 994 843 387 678
1348 1474 1723 1937 1837 1789 1397 1024 743 1239 515 335 220 1046 1636 1346 1164 1387 644 282 97 1149 631 238 95 36 219 809 919 976 783 523 759 801 703 453 355 271 312 830 1003 707 512
1438 1701 1813 1975 2324 1625 1667 1883 1136 757 164 4 0 1314 1419 901 1141 1309 474 206 51 137 742 108 0 3 21 16 915 924 1236 1135 1102 569 474 678 507 396 295 468 715 700 422
1156 1358 1945 2429 2565 2236 1960 1896 2059 1366 845 103 248 1179 1417 1348 1219 1152 770 255 529 85 285 3 1 0 0 0 664 921 1165 1118 1232 1180 1022 776 847 506 286 337 553 501 791
1331 1461 1967 1620 2064 2091 1961 1795 1646 1270 1331 1025 1193 1074 1311 1420 1464 1288 1321 1194 888 520 0 0 0 0 7 3 234 727 721 1010 984 1015 1008 1058 802 863 470 312 325 290 424
2121 1901 2041 1899 1910 1906 1630 1706 1361 1459 1501 1250 1191 1368 1291 1155 1328 1086 1201 1113 986 794 221 20 0 2 224 426 510 446 453 664 597 1077 916 806 792 848 830 422 321 180 207
2078 2385 2454 1969 1798 1630 713 537 1038 1280 1183 1098 874 1087 448 1032 1282 933 1117 1033 626 851 928 634 718 329 393 385 289 244 759 752 830 726 1014 1262 1149 1062 703 760 373 163 142
2623 2459 2636 1713 1802 976 159 53 170 788 978 578 59 169 0 0 802 892 842 735 585 435 817 734 511 277 85 332 531 442 689 960 828 626 1212 986 954 991 852 482 740 308 266
3090 2659 2373 2240 1469 437 36 75 460 837 1188 1334 967 916 530 645 996 946 707 365 438 452 408 477 382 387 336 530 477 398 131 134 313 884 906 1222 938 1244 1205 1189 622 416 236
2803 2447 2115 1844 923 577 182 298 208 392 954 724 815 704 845 648 431 339 268 291 222 302 278 327 145 169 287 223 508 185 198 77 225 743 754 940 1082 1202 1221 1173 988 485 385
2440 2273 2204 1394 873 435 337 80 725 617 274 674 578 731 470 595 648 458 386 402 267 241 282 328 275 217 146 106 248 295 391 557 168 113 391 583 949 863 852 735 548 444 615
2187 1942 2254 1727 1062 669 563 390 923 593 921 625 514 328 524 500 690 359 399 380 315 269 362 182 237 272 244 263 101 99 279 315 379 176 254 197 710 648 793 684 484 418 296
1500 1482 1555 1562 1286 1400 1394 1506 1981 1223 729 643 352 724 286 546 524 339 679 340 245 231 328 277 329 497 220 218 231 199 78 116 156 184 154 125 170 85 146 396 694 167 91

GFSSE_con_mlcape_027.txt.gz
CAPE
775 1093 1212 1388 1649 1676 1534 1652 1629 1568 1497 1481 1309 1186 1085 1128 1210 1228 1305 1275 1212 1170 1287 1020 907 1134 1156 1202 569 661 881 758 842 569 499 552 506 479 532 535 303 456 455
723 1137 1215 1437 1805 1760 1697 1624 1760 1658 1713 1789 1736 1689 1507 1405 1333 1362 1327 1482 1396 1383 1281 1233 1162 1217 1226 1358 790 1125 1032 952 920 841 501 405 345 460 320 441 69 94 213
786 1313 1461 1629 1869 1834 1757 1807 1726 1676 1764 1961 2048 1921 1826 1510 1385 1298 1202 1333 1564 1546 1389 1294 1466 1544 1269 1359 1283 1256 1078 1112 1056 951 343 125 687 583 707 176 210 108 314
844 1314 1685 1641 1662 1809 1809 1772 1722 1807 1856 2046 2111 1975 1995 1797 1471 1607 1844 1934 1907 1787 1833 1597 1594 1560 1438 1158 1310 1108 1147 1071 493 597 80 0 584 883 780 466 108 146 183
1004 1485 1820 1648 1707 1827 1936 1915 2080 2065 2065 2183 2261 2297 2268 2126 2020 1776 1701 1805 1856 1735 1750 1735 1701 1672 1341 1248 1007 1402 1131 817 409 215 352 6 306 288 280 557 251 331 289
1368 1563 1686 1771 1813 1900 2091 2266 2310 2232 2205 2237 2259 2342 2317 2203 2157 2087 1888 1867 1853 1765 1865 1820 1619 1393 1318 1337 1036 1030 968 704 583 324 267 32 87 0 247 93 502 560 138
1402 1251 1623 1806 1865 2012 2268 2334 2263 2282 2288 2267 2259 2177 2084 2093 1957 1942 1971 1831 1564 1563 1332 1904 1654 1568 1386 1360 1043 567 523 998 784 428 416 7 186 137 438 825 726 502 138
1205 1247 1364 1478 1609 1954 2120 2107 2177 2164 2203 2124 1980 2071 2174 2025 2070 1927 1842 1739 1480 1202 1077 1573 1497 1546 1466 1543 1089 569 359 295 693 394 536 273 181 412 551 632 569 434 283
949 1026 1203 1097 1389 1622 1562 1694 1959 2044 2059 1886 1788 2159 2134 2054 2038 2022 1834 1450 1447 1183 717 1066 1552 1570 1614 1725 1324 1110 611 353 547 449 551 229 145 534 416 200 361 213 604
1118 913 797 1094 1309 1512 1677 1655 1634 1824 1900 2102 2296 2199 2081 2129 2099 1995 1691 1473 1124 1290 1120 1096 1285 1711 1452 1514 1540 1192 782 399 443 509 344 388 137 569 449 94 240 386 107
1048 729 952 873 1127 1324 1405 1779 1755 1817 1937 1955 1990 2047 1812 1771 1721 1530 1316 1135 1301 1346 1357 1447 966 1622 1311 1306 1317 1245 1252 588 261 486 423 434 335 724 801 240 397 566 338
1361 1281 1402 1368 1161 1408 1738 1601 1763 1779 1669 1543 1351 1344 1226 1064 1345 1348 1198 1244 1532 1245 1250 1269 1457 1233 1048 914 1010 988 540 145 356 316 395 365 284 615 1128 579 292 329 384
1613 1597 1789 1683 1583 1702 1998 1865 1622 1630 1567 1765 1917 2040 1770 1530 1206 1154 1126 1022 1287 1333 1154 1419 1299 1275 820 607 726 786 432 61 325 475 83 88 238 640 1091 612 487 206 477
1562 1634 1830 1937 1764 1617 1805 1602 1518 1378 1594 1651 1007 1113 482 409 271 977 889 909 1078 1055 1096 1162 932 608 322 322 291 548 442 410 306 627 457 215 249 437 676 850 566 411 594
1487 1554 1823 1994 1833 1721 1443 1210 539 318 739 1106 774 862 596 403 697 969 503 512 194 1092 790 507 317 226 153 4 171 140 558 813 578 654 594 658 460 318 470 879 730 424 547
1277 1627 1846 2033 1844 1650 1254 1003 380 0 477 445 286 189 437 813 598 901 425 154 77 182 242 105 43 73 6 0 77 49 87 418 404 386 696 633 479 395 332 490 629 656 387
1525 1780 1815 1718 1716 1563 1309 1074 628 699 453 278 113 0 71 773 724 854 835 502 271 153 268 176 0 0 0 0 0 0 36 358 574 615 453 601 664 457 339 269 485 654 601
1697 1792 1747 1909 2074 1777 1234 670 624 732 650 422 72 501 446 1003 958 955 846 739 456 288 124 13 7 0 0 0 0 11 56 289 611 926 688 472 639 650 639 400 247 397 598
1702 2049 1973 2090 2048 1507 755 227 79 891 776 928 1066 833 1007 807 799 867 863 832 685 460 148 7 0 0 0 0 0 19 167 383 608 772 714 909 583 599 591 542 375 271 243
1854 1953 1899 1713 1343 906 468 262 281 537 832 537 411 298 254 49 62 380 763 858 678 340 236 61 1 0 0 7 219 351 328 198 36 599 680 934 718 587 828 762 613 418 377
2390 2149 1791 1619 1119 504 111 14 25 136 568 627 310 64 114 12 0 62 607 398 416 292 275 142 157 196 117 166 184 46 215 339 337 575 741 898 835 864 805 805 670 621 446
2526 2464 2197 1499 892 227 11 10 18 91 561 1080 1204 736 529 422 262 531 550 381 311 107 82 196 139 56 54 76 28 0 0 122 357 603 581 590 830 1008 896 938 760 606 401
2669 2559 2136 1576 846 277 17 218 248 166 503 358 437 564 733 738 749 504 236 114 135 68 44 44 76 68 78 103 35 115 70 21 59 265 544 557 432 781 922 1203 857 688 510
2260 2394 1927 1506 701 466 361 116 435 470 388 441 647 362 299 392 694 445 239 292 322 248 165 126 141 95 86 64 129 194 171 142 44 92 379 415 464 554 961 917 746 610 436
2194 2188 1799 1406 704 421 105 63 264 597 730 694 297 373 428 356 287 130 196 371 240 263 193 163 186 71 81 67 75 68 83 123 199 124 36 108 318 776 775 658 708 536 493
2164 2332 1855 1307 743 682 1085 1230 1603 1103 581 461 337 249 325 455 333 244 252 223 244 298 160 241 220 77 66 111 103 122 58 58 58 67 101 45 23 129 287 342 328 172 88

GFSSE_con_mlcape_030.txt.gz
CAPE
796 1319 1388 1567 1640 1744 2095 1799 1614 1633 1720 1571 1510 1359 1340 1256 1249 1289 1305 1381 1205 1256 1332 1105 1235 1236 1268 941 736 932 1075 971 861 670 709 740 715 572 634 369 293 466 525
1019 1486 1459 1852 1865 1913 1983 1827 1550 1523 1665 1654 1530 1520 1464 1541 1612 1784 1595 1509 1498 1660 1417 1311 1388 1479 1457 885 937 950 936 1028 791 872 822 545 597 541 361 250 320 423 337
985 1500 1694 1751 1819 1823 1767 1745 1737 1794 1931 2006 1808 1848 1637 1617 1774 1721 1758 1872 1773 1601 1458 1592 1559 1540 1443 1220 1313 1165 1218 892 582 674 577 516 578 553 199 35 52 448 120
1172 1509 1730 1747 1858 1823 1803 1781 1825 1850 1909 1968 1929 1989 1799 1606 1647 1684 1882 2053 1928 1947 1805 1684 1716 1658 1420 1544 1211 1278 1237 1190 775 407 168 483 572 676 202 388 27 587 458
1275 1390 1670 1946 1967 1825 1699 1750 1910 1925 2000 1972 1987 2141 2070 1868 1900 1950 2083 1950 1844 1922 1877 1834 1712 1547 1662 1283 1281 1225 751 667 890 164 138 453 697 802 421 114 87 112 220
1172 1549 1857 1870 1945 1886 1825 1972 2023 2024 2096 2054 2128 2289 2198 2214 2192 2032 2012 1881 1913 1928 1975 1803 1801 1613 1061 962 1594 818 546 587 394 283 196 292 229 328 384 281 392 374 599
1265 1639 1708 1794 1984 2054 2073 2038 1959 2048 2156 2286 2328 2249 2071 2352 2221 1939 1770 1782 1680 1673 1827 1747 1552 1471 889 800 1583 687 603 591 495 460 163 143 0 155 184 570 617 165 229
1013 1447 1681 1722 1894 2060 2161 2213 2287 2329 2292 2285 2186 1979 1980 1992 1787 1997 2004 1780 1495 1537 1539 1838 1346 1611 1287 634 1259 739 372 447 564 471 318 66 32 675 614 781 701 225 256
1248 1253 1673 1715 1832 2082 2164 2263 2280 2209 2054 1905 1960 2298 2077 1993 1927 1811 1748 1700 1659 1323 632 1510 1580 1589 1542 1197 1002 566 346 471 503 400 367 135 162 608 872 810 640 334 226
1111 1224 1013 1225 1517 1641 1916 1900 1893 1863 1686 1486 1749 2044 2015 2100 2133 2224 1957 1637 1612 1618 1191 1093 1642 1601 1599 1586 1052 762 585 276 315 429 409 202 178 657 837 600 463 534 446
1013 871 817 865 1188 1141 1250 1640 1820 1722 1600 2035 2388 2020 2062 1861 1980 1984 1939 1319 1530 1516 1507 1389 1363 1817 1445 1336 1472 1052 555 343 218 433 389 329 205 609 700 335 370 224 250
819 497 532 626 691 967 1237 1471 1461 1676 1749 1778 1808 1933 1468 1346 1272 1399 1248 941 1611 1692 1634 1669 1512 1420 1467 1035 740 1409 1159 322 147 392 350 401 192 843 766 439 496 534 414
918 639 726 743 830 930 951 1248 1267 1391 1372 1423 1259 1214 1219 1171 1307 1290 1231 1097 903 1376 1329 1481 1348 1437 899 772 549 492 290 422 162 376 238 405 190 620 1153 718 451 635 594
1311 1168 1326 1301 1249 1327 1666 1525 1176 1209 1364 1385 1378 1593 1392 1285 387 741 949 961 866 841 1050 1142 1083 913 591 426 362 586 554 244 139 293 404 332 142 362 1252 1354 766 390 511
1566 1528 1655 1618 1560 1591 1637 1434 1298 1209 1191 796 964 987 398 241 183 613 841 672 711 771 973 632 880 754 414 217 310 256 253 379 371 367 588 455 132 242 673 1055 1245 864 481
1523 1715 1829 1896 1706 1656 1578 1073 587 338 399 608 357 543 572 403 368 386 379 212 126 466 532 465 387 404 354 35 36 172 181 159 307 372 497 596 502 463 451 637 1091 1203 811
1438 1710 1932 1757 1621 1504 1129 974 299 183 13 222 441 173 81 87 532 501 325 181 135 52 95 71 54 4 2 5 0 20 74 55 288 359 360 500 644 575 445 412 713 651 584
1403 1574 1870 2049 1448 1292 1120 485 134 561 307 266 257 172 65 2 421 769 499 534 406 268 191 126 110 22 0 0 0 0 17 42 200 277 596 420 470 544 569 510 487 340 452
1647 1708 1855 1931 1263 1206 791 343 83 373 665 621 380 187 126 504 713 803 584 772 490 403 212 87 49 17 0 0 0 0 0 52 194 351 444 605 491 516 487 624 612 403 404
1776 1841 1753 1601 1166 738 323 39 16 274 434 645 472 386 300 162 215 442 511 471 280 271 173 93 55 0 0 0 0 103 151 143 157 228 453 641 577 579 538 589 606 659 519
2016 1904 1672 1160 801 398 20 2 14 24 270 474 334 130 34 27 0 0 73 465 396 297 182 102 47 4 0 0 0 1 52 93 150 132 151 133 619 493 520 685 551 576 586
2055 1834 1447 1005 596 193 14 3 12 75 250 663 437 454 418 339 222 175 409 242 101 93 52 15 15 54 74 79 21 4 5 11 12 151 235 263 495 571 594 742 738 794 635
2203 1888 1525 1058 687 120 0 68 114 107 171 294 335 421 417 516 534 480 212 108 39 71 66 56 33 7 31 32 44 0 0 0 14 70 180 308 460 480 482 531 651 720 607
2438 2111 1753 1266 573 115 113 39 162 419 513 450 301 272 244 197 120 81 53 128 132 78 82 70 84 63 43 23 6 6 0 8 13 42 83 172 500 514 360 375 482 546 605
2304 2040 1577 1140 754 614 271 174 74 526 600 260 230 120 215 183 115 100 143 87 53 65 115 65 62 91 51 36 14 40 53 93 68 46 9 71 200 272 394 416 579 562 467
2139 1820 1641 1056 610 442 173 397 1164 778 446 418 140 129 166 98 11 8 80 73 138 203 204 130 72 127 38 33 27 45 63 42 41 46 47 29 34 78 131 149 243 245 67

GFSSE_con_mlcape_033.txt.gz
CAPE
671 1270 1377 1231 1335 1789 1805 1641 1390 1403 1513 1545 1578 1524 1291 1172 1034 1064 1221 1242 1113 1338 1258 1356 1241 1222 1194 1166 1232 1150 745 640 721 358 252 589 423 206 388 549 533 417 564
880 1479 1727 1534 1650 1811 1866 1904 1823 1532 1419 1457 1516 1619 1557 1598 1619 1588 1659 1534 1322 1563 1400 1318 1430 1364 1160 996 826 855 581 902 518 665 546 523 724 577 364 401 586 423 568
1062 1656 1858 1683 1843 1983 1923 1860 1937 1850 1631 1571 1590 1749 1858 1833 1774 1666 1730 1735 1533 1240 1578 1592 1646 1452 1258 1024 960 832 889 851 858 888 714 474 521 283 202 345 515 239 261
1255 1771 1740 1555 2014 2088 1820 1709 1878 2081 1992 1894 1864 1777 1821 1985 1962 1961 2071 2088 1897 1802 1670 1630 1292 1536 1226 1369 1266 1253 899 860 910 802 491 508 511 307 49 45 424 94 99
1339 1673 1697 1882 1954 1918 1831 1846 1869 1990 2087 2071 2122 1972 1837 1917 2102 2249 2292 2159 2064 2197 1944 1868 1448 1141 1294 1432 1331 1297 1157 834 665 385 386 537 505 390 433 31 663 541 664
1372 1697 2126 1928 1840 1862 1824 1933 1936 1951 1926 1977 2136 2176 2015 2003 2025 2017 2026 1926 1928 2056 2054 1975 1636 957 936 1619 1327 945 722 398 496 193 326 724 620 541 242 86 91 245 310
1437 2026 2124 2016 2020 1922 1927 1972 1937 1950 1949 2064 2160 2165 2143 2244 2147 2027 1914 1920 1912 1638 1857 1772 1745 1000 976 1642 1250 568 629 677 408 247 226 452 399 590 328 266 235 787 404
1413 1878 2082 2195 2144 2052 2189 2120 2087 2072 2090 2250 2191 2033 2215 2423 2206 2124 1873 1717 1694 1537 1570 1351 1645 943 1006 1550 1214 850 556 528 595 554 262 158 23 367 505 921 501 212 221
1669 1683 1935 2091 2014 2242 2305 2245 2248 2249 2179 2139 2000 1911 2010 2008 1972 2096 1874 1647 1590 1470 1113 1254 1467 883 1343 1180 1370 716 439 715 578 459 301 129 81 732 541 818 723 296 344
1671 1820 1724 1947 2012 2075 2254 2272 2237 2135 2062 1918 2110 2301 1967 1929 1744 1870 1629 1510 1627 1439 985 972 1344 1398 799 1473 1280 617 392 505 375 427 386 147 170 768 886 936 824 243 263
1493 1576 1534 1489 1789 1707 1942 2106 2136 2087 1941 1818 2087 2234 2196 1927 2017 2105 1727 1316 1458 1513 1465 1421 1105 962 836 853 1311 988 560 310 337 413 483 221 209 554 942 714 739 552 443
1119 1210 1194 1230 1198 1388 1531 1675 1660 1661 1611 2041 2172 1952 1845 1603 1577 1432 1567 1405 1516 1694 1564 1611 1305 1206 1355 627 884 1112 808 273 224 270 404 448 261 326 1034 782 637 531 622
928 1039 921 965 899 984 1097 1450 1332 1443 1523 1548 1544 1556 1371 1027 1089 1462 1461 1461 1245 1862 1214 1335 1397 1457 1029 719 489 602 571 318 91 227 382 458 408 260 777 880 631 696 487
941 714 688 850 773 936 1048 1075 999 1139 1353 925 1108 1088 1162 1036 1135 934 1010 1014 867 860 973 783 927 965 878 594 429 373 421 375 253 134 287 350 447 345 404 912 777 839 776
1072 756 615 797 846 1074 1095 1125 894 901 908 679 739 1138 1041 681 564 107 588 714 772 734 781 738 757 752 552 425 345 227 356 367 323 217 285 518 486 373 209 470 1354 874 722
1363 1167 1216 1236 1252 1248 1347 1412 1228 992 1039 714 449 219 835 441 146 170 465 380 336 357 383 553 438 334 330 238 156 224 168 142 194 350 371 489 626 331 280 354 683 1290 944
1606 1534 1555 1618 1518 1443 1519 976 966 622 270 271 281 306 277 366 370 407 358 216 118 132 242 299 218 102 104 54 25 16 36 80 84 221 307 392 484 614 433 443 488 713 1183
1583 1646 1738 1807 1583 1109 999 851 415 482 243 92 236 297 210 101 86 0 431 368 209 125 91 74 31 27 0 0 0 0 8 4 38 41 259 400 420 516 640 603 414 400 556
1477 1637 1830 1614 1203 801 668 602 219 131 283 477 413 215 159 135 193 63 302 371 248 241 154 118 80 44 12 0 0 0 0 0 4 43 190 300 475 477 448 494 528 418 417
1594 1722 1879 1479 1166 755 694 338 72 74 311 473 455 386 311 274 510 543 438 421 389 236 164 110 79 18 10 4 0 0 0 0 0 26 209 376 461 524 548 482 447 470 437
1727 1718 1824 1446 1035 730 321 14 9 87 177 365 365 213 49 13 0 0 59 102 238 175 129 98 32 23 0 0 0 0 0 0 83 138 159 205 297 454 530 465 542 500 528
1864 1740 1572 1167 810 387 52 6 10 40 255 378 432 397 290 272 109 49 104 271 66 27 12 0 0 0 0 0 0 1 10 2 0 20 89 120 199 249 192 383 464 508 527
1789 1675 1314 978 571 146 32 111 126 148 194 250 341 362 239 383 336 249 140 85 50 31 14 0 0 0 0 6 1 5 3 0 4 4 57 149 251 290 346 450 458 463 478
1835 1510 1109 945 459 95 143 227 196 353 375 423 250 195 137 120 100 103 88 73 29 14 30 17 1 7 9 0 5 15 0 0 0 2 30 47 160 253 354 380 349 295 486
1869 1741 1355 902 367 156 243 165 197 600 409 218 140 174 152 54 5 38 84 53 22 58 73 60 15 15 14 16 0 0 0 12 19 25 12 16 16 89 180 259 336 462 512
1857 1623 1253 992 637 534 312 374 923 625 494 224 183 142 82 0 0 0 3 25 89 123 166 31 16 44 45 2 3 2 5 18 39 69 53 35 5 37 52 81 147 233 244

GFSSE_con_mlcape_036.txt.gz
CAPE
427 857 1379 1831 1767 1591 1616 1612 1779 1661 1467 1397 1556 1604 1495 1308 918 903 1172 1310 1212 1322 1412 1390 1238 1381 1366 1314 1123 989 874 764 574 312 393 737 672 143 193 515 207 146 476
539 1078 1381 1825 1872 1718 1813 1663 1603 1692 1619 1569 1541 1657 1658 1333 1113 1200 1255 1048 1140 1377 1590 1486 1331 1529 1292 1278 1160 824 790 738 306 277 418 429 156 510 553 493 532 450 380
892 1370 1523 1693 2001 1898 1763 1796 1602 1539 1507 1553 1581 1628 1626 1628 1549 1680 1615 1412 1270 1340 1411 1643 1495 1491 1226 901 777 522 1051 654 843 663 711 460 539 336 154 555 480 605 492
1163 1670 1701 1628 2079 2002 1757 1717 1745 1666 1694 1739 1828 1916 1937 1924 1915 1910 1834 1475 1278 1259 1507 1189 1486 1629 1219 1320 1046 1089 1030 1136 1044 869 501 453 227 184 226 457 254 259 249
1444 1778 1751 1862 2008 2034 1920 1900 1922 1880 1823 1823 1822 1929 2137 2053 2053 2194 2181 2086 1770 1609 1648 1561 717 1531 1408 1531 1517 1006 923 1004 886 551 422 390 473 176 34 640 152 102 61
1556 1820 2234 2096 2066 2036 1982 2072 2081 2064 1957 1918 1742 1735 1947 2122 2243 2250 2040 1950 1823 1929 1953 1725 1384 1019 1346 1435 1379 1174 1058 857 758 347 440 645 346 604 52 767 732 690 202
1532 2006 2375 2161 2148 2020 1942 2061 2104 2085 2032 2040 2007 1920 1927 1957 1981 2061 1950 1940 1866 1868 1816 1755 1075 1123 1123 1591 1047 907 655 948 67 286 471 733 433 520 185 116 221 369 157
1524 2091 2224 2297 2210 2087 2074 2068 2115 2075 2033 2025 2076 2013 2107 2147 2064 1992 1816 1734 1808 1400 1656 1446 1181 1075 1022 1531 758 583 393 452 470 242 314 426 504 501 339 275 674 714 165
1671 1899 2221 2181 2223 2239 2214 2017 2076 2056 2048 2159 2053 1944 2223 2305 2084 2143 2033 1616 1568 1321 1187 1157 1031 1164 946 1618 877 566 662 445 545 483 394 201 68 474 536 724 369 267 321
1676 1772 1951 2222 2181 2142 2165 2056 2048 2192 2159 1979 1845 1882 2059 2067 2039 2041 1783 1596 1567 1102 597 981 913 871 946 1117 1247 504 402 712 464 402 388 211 14 484 557 687 734 360 331
1517 1653 1821 1863 2121 2045 2070 2182 2153 2092 2015 1735 1801 2158 2040 1922 1863 1920 1562 1392 1576 1534 1296 1075 965 935 874 1271 1116 725 403 403 393 353 444 340 114 372 845 760 620 406 329
1133 1354 1416 1504 1661 1873 2019 1948 1902 1862 1723 1603 1758 1890 1783 1805 1651 1804 1704 1245 1524 1571 1461 1343 1156 1008 816 791 1338 1309 722 274 279 239 428 394 219 282 837 706 540 638 468
1024 1229 1316 1256 1414 1176 1496 1542 1543 1481 1452 1633 1951 1722 1632 1486 1305 1262 1171 1149 1133 1814 1475 1512 1398 1150 814 623 565 701 936 486 204 125 355 486 423 391 458 939 608 529 652
958 1013 1133 1078 1017 891 1232 957 1075 929 1194 1207 1167 1147 975 654 552 872 944 1047 898 1012 1078 853 955 956 850 670 431 363 461 426 320 63 184 474 424 499 479 587 849 656 534
863 891 892 815 774 704 808 717 693 543 630 755 620 766 546 566 548 435 235 685 757 715 723 780 735 674 598 586 507 312 315 395 357 237 96 295 379 415 519 451 334 630 731
884 793 797 630 766 781 406 343 321 306 467 499 382 571 720 408 296 213 157 311 472 541 570 629 621 592 573 442 326 338 196 211 277 334 285 242 598 465 417 444 529 962 945
1105 949 720 532 730 583 748 706 479 349 402 314 447 346 194 438 461 261 237 279 253 161 238 278 330 330 266 210 201 110 63 105 95 114 230 381 424 584 532 298 331 531 833
1331 1204 1038 990 520 523 833 737 408 320 241 105 29 131 179 178 128 126 116 72 284 127 59 64 80 97 74 47 35 17 0 0 0 27 47 228 361 406 566 625 415 428 379
1482 1429 1387 1276 1126 708 743 385 302 193 194 248 213 166 167 136 118 98 33 120 382 253 227 172 115 81 68 40 7 0 0 0 0 0 52 87 243 453 444 532 595 503 459
1339 1478 1559 1253 1103 783 284 330 119 99 88 92 194 154 239 161 286 396 296 327 344 334 250 139 130 80 66 30 1 3 0 0 0 0 0 57 324 392 516 534 491 458 388
1360 1376 1477 1229 828 528 367 89 2 41 60 79 156 135 51 37 30 0 0 72 136 180 145 75 40 69 29 0 0 0 0 0 0 38 89 88 206 411 550 593 587 542 531
1410 1443 1357 971 688 406 51 0 8 36 76 151 134 379 347 324 159 67 70 165 147 52 25 19 1 9 0 0 0 0 4 1 0 10 93 138 168 219 276 322 352 439 463
1475 1392 1206 873 507 108 26 105 111 96 114 190 168 195 142 171 136 100 43 49 14 0 0 0 0 8 16 1 0 10 1 2 1 3 30 62 144 223 265 320 339 482 494
1193 1121 922 596 307 50 151 139 127 308 278 238 177 111 106 58 10 9 44 31 24 15 12 11 9 0 0 3 3 1 0 0 0 1 18 8 136 192 245 289 372 474 399
0 539 871 550 235 66 216 345 365 445 281 176 124 139 75 0 0 0 17 0 19 22 26 38 27 27 3 2 0 1 26 19 10 6 1 8 17 80 109 175 317 402 494
15 61 1048 624 160 128 143 340 436 456 246 189 158 104 7 0 0 0 6 18 9 22 89 26 10 8 30 40 33 8 2 30 32 14 10 9 13 43 54 82 121 144 110

GFSSE_con_mlcape_039.txt.gz
CAPE
686 1255 1817 1750 1606 1709 1601 1376 1530 1612 1560 1575 1324 1152 1112 1195 1197 1330 1075 919 423 1284 1512 1263 1267 1180 1399 1259 1143 1007 964 782 584 376 785 757 344 429 462 50 411 152 482
592 1230 1831 1836 1725 1704 1934 1779 1532 1496 1536 1383 1650 1521 1442 1206 946 1064 1045 1370 1368 1248 1419 1451 1589 1590 1490 1290 1145 1023 828 616 255 440 871 633 261 390 572 322 0 440 520
686 1185 1620 1930 1893 1865 1844 1842 1706 1564 1500 1536 1711 1693 1549 1240 1190 1214 1375 1448 1316 777 929 1593 1652 1438 1271 1567 902 862 926 462 567 675 531 66 185 752 533 614 449 528 694
935 1177 1472 2167 2098 2032 1884 1702 1666 1614 1646 1609 1619 1709 1692 1617 1607 1775 1735 1560 1124 836 704 1075 1658 1375 1146 966 738 1083 946 928 879 871 435 106 6 298 667 591 797 742 229
1301 1429 1680 2280 2234 2106 1999 1792 1753 1789 1767 1758 1869 1948 2045 2036 1966 1957 1952 1531 1172 1132 1385 663 1159 1506 1490 1239 1331 1076 1152 1082 945 693 568 623 140 138 400 417 300 198 30
1510 1559 2148 2375 2364 2152 2031 2006 1949 1927 1907 1945 2010 2059 2066 2011 2053 1979 2129 1835 1764 1416 1551 1688 533 1345 1402 1467 1292 884 1112 1100 900 603 573 654 265 72 496 332 7 355 0
1615 1671 2125 2368 2409 2263 2141 2118 2047 2002 1993 1971 1900 1990 2060 2126 2080 2125 1973 1861 1440 1420 1438 1732 1578 872 928 1393 1358 1178 1256 820 443 572 576 308 215 573 193 890 810 708 140
1562 1770 2123 2354 2444 2376 2275 2182 2099 2086 2036 2051 1955 1933 2008 2032 2068 2060 1993 1866 1726 1442 1227 1275 1338 1045 1353 1510 1172 1149 863 796 235 440 539 561 416 372 237 220 413 461 168
1820 1905 2131 2274 2428 2445 2350 2211 2106 1937 1820 2008 1938 1983 2033 2107 1969 1914 1894 1730 1746 1296 1163 1177 1281 904 1242 1593 941 475 456 549 667 696 831 508 429 560 454 403 749 681 177
1928 1983 2108 2376 2226 2171 2213 2242 2161 2043 2026 2264 2077 1936 2015 2102 1969 2067 1762 1553 1504 1359 744 1123 1250 1027 1004 1566 894 665 805 680 861 888 889 513 122 343 742 487 547 348 328
1915 2007 2254 2288 2443 2504 2384 2147 2121 2288 2292 2063 1835 1847 1865 1761 1616 1619 1462 1343 1723 1602 1347 1066 1148 1142 1016 941 985 805 681 820 749 739 885 612 182 314 865 680 599 419 406
1450 1729 1996 2178 2164 2365 1970 2345 2230 2071 1587 1424 1447 2184 1736 1931 1999 1730 1600 1209 1535 1547 1605 1473 1180 1214 990 999 1129 806 442 587 695 758 906 555 446 289 731 673 733 559 245
1397 1583 1635 2002 2239 2247 1847 2141 2183 1801 1676 1995 1907 2172 2018 1937 1743 1728 1352 1088 1425 1396 1443 1103 1194 1018 1177 865 887 1107 867 480 305 449 461 561 468 369 579 922 774 696 484
1450 1603 1813 1812 1828 1890 1991 1955 1924 1934 1951 1311 1776 1969 1517 1594 908 775 879 1320 1366 1041 1510 1287 889 1081 1288 1174 740 908 1021 691 409 252 268 461 503 505 649 725 677 651 484
1362 1554 1815 1818 1678 1705 744 512 348 269 298 411 699 892 794 543 350 369 432 636 1108 1452 1381 1150 956 1053 1037 1025 977 831 622 653 678 424 266 238 495 436 453 565 564 637 689
1406 1427 1709 1740 1632 1097 517 453 317 90 150 162 313 350 260 330 342 479 507 350 803 1217 1311 1260 976 745 966 852 1035 1074 878 664 834 894 499 272 209 299 411 352 699 535 684
1565 1513 1486 1242 955 910 589 629 511 209 267 94 223 362 676 425 496 540 413 397 721 849 816 926 1022 1037 919 725 790 759 669 707 526 525 550 702 520 377 526 432 346 343 335
1681 1437 865 4 0 544 700 760 446 478 260 185 115 148 425 575 572 597 818 792 525 600 460 259 459 746 762 703 577 418 409 345 278 380 411 366 582 582 572 463 476 332 344
1830 1638 765 147 21 270 823 636 446 257 170 231 212 179 448 409 495 322 338 421 567 545 290 341 350 211 180 309 264 237 170 85 68 179 240 275 264 363 650 698 543 440 431
1913 1537 1411 613 77 376 1077 798 346 109 33 109 157 178 555 544 614 535 383 589 963 779 1006 833 617 549 454 459 287 116 120 48 0 0 7 54 148 306 610 924 823 647 530
1156 1355 1376 1421 1479 1050 579 315 130 50 1 17 112 196 154 140 141 218 181 387 629 597 815 733 584 399 276 211 214 293 136 129 130 120 129 174 69 460 948 972 811 654 837
160 220 1540 1571 1059 889 391 172 114 5 126 117 110 472 705 687 498 432 409 525 778 610 480 489 370 116 32 165 176 213 93 169 84 103 63 328 384 409 713 1010 1119 878 754
143 87 502 1149 1004 390 164 228 154 185 152 199 208 367 461 465 413 386 256 245 249 214 241 358 343 150 103 5 115 236 163 77 76 1 35 85 161 387 504 612 872 841 1112
184 87 534 610 492 219 388 318 253 233 359 468 355 431 294 172 128 140 205 256 297 289 247 301 313 182 58 34 2 13 100 66 87 50 71 38 116 247 553 846 912 1212 1378
17 99 674 652 364 221 552 665 933 770 539 366 437 471 229 87 74 99 192 211 298 381 375 345 330 208 54 20 3 42 12 203 263 88 29 7 38 106 135 304 916 1143 695
0 33 449 726 388 288 482 554 721 615 449 357 390 290 69 31 55 106 149 98 109 257 401 348 358 260 144 37 12 161 181 165 284 330 68 14 31 82 100 142 196 163 215

GFSSE_con_mlcape_042.txt.gz
CAPE
854 1238 1917 1991 1825 1545 1517 1591 1605 1539 1322 1061 1201 1421 1538 1544 1489 1673 1500 434 1003 1658 1575 1494 1319 1247 1273 1174 1075 1142 1066 910 682 596 750 523 694 536 357 341 150 28 154
960 1190 1886 2027 2180 1939 1803 1836 1830 1578 1444 1203 1098 1141 1172 1197 1528 1592 1429 883 990 1144 1394 1471 1571 1612 1469 1428 1246 1079 846 593 490 978 958 201 500 521 170 247 442 164 87
1056 1366 1626 2075 2186 2203 1909 1871 1814 1566 1464 1649 1451 1279 1094 1150 1299 1434 1576 1027 349 100 1297 1590 1727 1620 1576 1383 1078 1114 705 546 554 840 319 369 218 852 672 427 452 702 495
1092 1315 1605 2023 2199 2203 2178 1997 1823 1663 1688 1785 1778 1674 1417 1216 1369 1452 1581 1118 688 941 459 1323 1689 1466 1296 1210 881 1250 713 916 874 639 381 19 88 706 586 714 709 756 206
1137 1393 2092 2184 2259 2199 2007 1911 1837 1839 1796 1764 1850 1858 1728 1706 1728 1829 1703 1250 900 1327 310 753 1687 1382 1200 996 1348 1121 1149 1081 918 600 563 81 15 405 682 807 747 276 0
1289 1505 1961 2311 2344 2289 2160 1926 1868 1821 1859 1843 1868 1963 1990 1964 1943 1699 1909 1696 1318 1269 1509 745 1218 1031 1549 1401 1154 1324 1175 1230 458 119 410 143 192 0 411 231 0 0 469
1510 1678 1881 2321 2355 2272 2225 2181 2138 2032 1979 2025 2094 2114 2094 2011 1924 1474 1658 1825 1647 1422 1462 1652 975 583 1579 1446 1165 1090 1175 908 383 67 68 29 213 10 482 366 190 54 483
1507 1690 1952 2133 2319 2325 2252 2186 2140 2164 2061 1965 1953 2093 2109 1975 1743 2057 1919 1747 1686 1566 1399 1638 1627 988 1172 1451 1409 1047 1158 665 284 216 306 105 182 454 163 710 584 564 367
1656 1805 2116 1978 2373 2385 2203 2132 2095 2065 2000 2012 1733 1885 1909 1859 2017 2026 1896 1713 1657 1341 1329 1320 1375 1291 1127 1610 1232 1002 908 677 593 462 537 284 2 259 375 183 552 500 93
1857 1923 1899 2100 2198 2089 2007 2098 1984 1715 1859 1850 1933 1908 2080 2145 1987 1941 1688 1416 1592 1324 1176 1425 1458 1157 1293 1570 1083 635 611 652 709 613 654 633 160 256 589 496 656 754 286
1946 1912 2066 2089 2024 1968 1938 2043 1943 1920 1905 1749 1845 1731 1775 1432 1347 1488 1299 1222 1482 1426 1025 1271 1396 1320 1021 1039 1081 811 901 677 655 603 749 615 262 111 704 784 640 482 117
1787 1845 2021 1981 1909 2125 1627 1792 1583 1678 1863 1300 1077 1349 1302 1158 1200 1049 1263 1020 1628 1667 1558 1401 1296 1317 897 696 699 791 535 505 626 782 929 756 400 218 673 910 717 828 458
1718 1861 2059 1994 1857 1760 1409 1459 1479 1436 1294 1727 1585 1313 1372 1374 1350 1021 1336 1394 1325 1447 1168 754 886 773 595 914 507 487 234 401 401 564 676 504 555 504 513 953 971 867 664
1681 1873 2007 1978 1865 1761 1648 1276 1432 1043 1162 1550 1461 1377 1560 1464 1180 599 681 1111 1147 1332 1211 1113 699 859 1058 851 777 690 642 429 244 189 458 419 621 644 582 542 740 901 916
1807 1953 2060 2097 1983 1846 1868 1489 1314 1153 910 879 493 246 352 529 412 391 618 545 835 1390 1521 1394 1046 1005 924 994 915 798 680 639 559 375 246 254 377 646 648 794 749 707 829
1946 1887 1945 2150 2136 1953 1121 815 566 319 108 119 118 159 156 255 213 442 318 369 551 1072 961 1060 1219 944 721 780 896 988 887 747 663 593 522 463 144 326 546 566 818 675 643
2136 2051 2096 1190 1412 1934 1279 979 859 190 116 92 62 104 220 193 160 281 421 884 587 873 1215 1264 1189 1120 853 797 683 745 847 816 713 762 894 614 652 176 126 502 504 434 371
2495 2347 1187 142 176 491 1146 1160 816 325 197 153 111 69 131 458 730 802 454 786 722 1018 924 780 862 830 818 800 774 819 633 591 535 585 695 724 590 596 379 352 478 469 313
2454 2250 860 338 417 602 673 1395 635 299 136 160 157 154 107 534 825 783 631 640 966 684 1104 750 663 557 664 716 548 631 570 558 423 276 265 645 728 616 798 796 601 526 467
2100 628 60 29 377 489 1226 1645 632 114 54 2 144 149 195 1234 1374 1360 940 768 898 861 855 960 856 659 551 462 521 362 442 491 358 98 82 389 612 575 473 669 1006 782 451
568 0 0 0 687 1129 1247 1000 313 17 0 41 5 82 422 701 605 1289 1154 1010 972 902 682 850 738 544 455 487 453 226 225 495 546 297 155 57 69 119 263 649 1145 1021 921
310 492 640 692 1910 2105 1698 986 530 38 73 31 86 194 806 440 970 942 852 705 825 728 894 682 639 549 418 527 301 282 112 232 316 479 405 373 415 203 394 1176 1411 1250 511
512 955 1140 1662 2276 1881 719 527 271 235 188 129 268 859 1028 793 719 753 710 680 761 687 170 548 501 558 226 348 381 305 362 76 452 529 553 520 656 596 618 719 1088 1127 1165
1170 927 278 958 1923 1086 936 688 424 325 351 1070 803 944 815 729 551 467 503 440 488 333 456 482 511 518 414 231 311 340 444 594 578 494 484 669 748 603 826 1062 993 1178 1251
692 1521 1520 1760 1222 974 1118 928 1063 933 1113 882 888 954 869 482 232 216 364 419 538 615 630 645 631 531 372 308 374 216 323 420 636 600 443 258 351 172 241 399 988 1372 1166
589 1437 1675 1557 945 978 928 1342 1351 1041 1136 909 908 458 151 60 67 144 336 112 247 582 676 704 773 661 420 374 229 35 215 338 257 623 546 489 347 62 63 170 257 444 401

GFSSE_con_mlcape_045.txt.gz
CAPE
932 1139 1840 1710 1649 1731 1789 1637 1693 1551 1433 1317 1457 1653 1859 2022 1862 692 1352 1000 1296 1673 1619 1431 1335 1218 987 1130 1139 1191 984 868 489 677 569 676 618 670 428 325 395 0 392
1007 1132 1971 1959 1744 1910 1760 1762 1647 1387 1256 1147 1293 1544 1340 1447 1388 1087 259 1113 1583 1576 1459 1455 1361 1620 1569 1385 1362 1154 896 554 1015 925 315 760 599 132 369 356 13 383 371
1035 1205 1522 2162 2093 1910 1926 1763 1562 1517 1309 1104 1016 1176 1256 1527 1613 1460 1047 127 48 274 1414 1477 1639 1612 1346 1312 1273 909 636 507 813 821 235 147 455 407 391 606 553 381 68
1161 1198 1248 1973 2315 2289 2174 1980 1670 1661 1726 1392 1270 1368 1190 1354 1484 1362 1310 744 94 238 691 1524 1577 1595 1702 1152 1158 759 721 840 687 684 488 267 195 564 673 719 854 411 459
1102 1543 1704 2038 2128 2329 2301 2115 1936 1916 1796 1966 1804 1716 1412 1456 1460 1591 1529 1115 1094 1279 161 983 1345 1297 1203 926 1307 1033 1189 1005 392 659 396 76 25 458 895 743 672 42 0
1591 2108 1642 2150 2187 1979 2018 2077 2041 2010 1899 1952 1997 1991 1829 1712 1711 1596 1589 1424 1138 1267 953 521 864 1404 1241 1378 1279 1140 1265 553 662 402 145 27 235 681 619 422 72 105 474
2027 2138 2011 2167 2249 2104 1915 1889 1986 2032 1976 1935 1918 1896 1748 1828 1763 1656 1727 1584 1481 1296 1381 1538 916 1104 1683 1541 1099 1348 993 683 926 30 227 14 274 10 520 78 351 0 656
1651 1680 2035 2268 2214 2215 2184 2058 1991 1993 2027 2102 2127 2115 2014 1824 1442 1486 1677 1656 1738 1647 1475 1457 1072 649 1613 1546 1041 1292 852 477 383 50 38 77 103 0 667 707 495 25 556
1497 1995 1932 1952 2379 2312 2181 2238 2128 2087 1996 1931 1920 1991 1876 1557 1686 1705 1511 1722 1534 1306 1409 1464 1536 1038 952 1511 1444 1221 1071 342 718 312 129 589 0 42 198 622 585 501 299
1422 1781 1837 2023 2234 1916 1752 1953 1932 1771 1637 1930 1801 1727 1802 1804 1695 1594 1402 814 1500 1296 1276 1358 1341 1332 1086 1624 1422 1270 914 451 735 456 89 329 3 42 409 201 748 728 41
1505 1571 2144 2320 2203 2042 1815 1819 1771 1728 1792 1990 1876 1651 1713 1165 1522 1376 1036 883 1049 1317 825 1226 1336 1294 1354 1554 1234 940 787 498 407 681 768 443 193 75 659 633 664 733 375
1561 1555 1984 1879 2106 1902 1623 1787 1365 1502 1248 1274 1259 1522 1160 1157 904 780 1331 985 1154 1357 1363 1086 1231 1304 974 692 949 886 667 533 521 678 949 717 440 124 535 940 763 778 578
1416 1389 1617 1652 1899 1707 1569 1501 1325 1277 1220 1108 1411 1490 1373 988 1285 859 1201 859 907 1077 971 850 902 673 527 789 825 426 238 349 609 596 904 778 432 347 450 924 1090 887 879
1337 1447 1801 1714 1701 1595 1703 1094 1245 1384 1348 1302 1168 1943 1686 1120 1100 603 609 930 676 1039 1203 376 737 524 799 733 606 550 601 384 399 315 981 581 425 586 681 801 1061 1063 1007
1428 1683 2053 1921 1995 1726 1617 1553 1168 1159 1049 1087 1202 886 662 456 350 369 339 407 431 1135 595 1332 1171 922 957 1125 768 837 595 649 564 349 779 571 343 483 775 838 956 1123 1140
1609 1975 2258 2086 2192 1918 1783 1299 1147 882 761 398 308 377 408 203 159 173 141 185 159 249 461 991 1179 1035 881 897 686 716 720 792 573 508 494 676 309 186 499 803 984 1152 817
1803 1819 2117 2615 2301 1612 2033 1380 880 856 290 168 244 449 412 126 103 175 151 153 353 665 972 1069 1141 1087 933 917 899 756 874 841 569 647 531 725 561 219 121 344 606 721 816
1891 34 0 1998 604 1131 1159 1305 1150 733 642 277 161 56 44 103 123 217 350 343 632 1045 1229 1209 1129 1110 1023 821 869 869 872 631 688 590 620 547 758 702 533 103 116 463 641
1015 199 482 920 213 601 1045 1122 1155 588 322 141 160 101 34 51 423 607 558 678 729 769 880 1085 1069 857 828 585 835 658 888 764 579 458 398 453 590 640 747 619 253 335 343
380 1003 539 120 20 13 557 1168 537 137 48 60 62 80 99 73 261 874 861 883 1210 1038 892 844 600 899 680 853 647 240 578 619 499 445 325 253 365 649 555 644 809 642 530
246 120 0 0 0 435 1346 1268 793 85 15 10 12 65 103 135 943 1078 1257 1131 1035 870 1089 1069 1030 767 443 616 777 426 379 493 467 461 414 106 113 514 595 505 723 1009 972
370 132 212 3 534 1377 1787 1366 913 150 33 40 39 79 184 428 921 962 1058 918 964 1094 959 953 796 643 874 923 657 625 383 281 324 316 454 342 128 104 116 342 581 1371 1262
975 478 1833 484 1931 2117 1243 865 467 331 250 45 102 270 472 687 815 767 850 703 986 986 133 736 791 767 619 553 604 370 328 296 183 512 570 439 601 593 304 795 616 74 951
1127 1782 1931 2350 2374 1556 1031 642 470 398 483 796 949 973 776 823 672 447 427 431 439 398 605 635 608 792 826 440 595 423 322 507 329 147 467 609 995 928 781 855 509 614 696
1623 1328 1021 2504 2080 1384 1379 1081 1063 902 1135 1157 1089 1121 506 746 324 238 408 714 937 1061 1161 1112 878 905 763 430 386 408 373 405 444 795 179 401 273 109 231 582 804 808 597
1287 1593 1954 2294 1715 1404 1225 1401 1421 1302 1309 994 571 445 272 191 224 341 430 503 507 774 1009 1042 1060 730 783 664 500 363 352 530 427 455 561 208 164 26 7 20 43 56 92

GFSSE_con_mlcape_048.txt.gz
CAPE
789 1367 1565 1650 1675 1826 1735 1848 1908 1645 1311 1157 1250 1776 1796 1470 724 1317 1395 1688 1618 1618 1636 1294 1192 953 1132 1101 1134 945 882 443 612 533 739 494 798 484 374 382 96 240 22
790 1334 1564 1693 1881 2012 1758 1750 1729 1522 1400 1437 1467 1554 1710 1433 1095 617 1025 1470 1564 1547 1466 1438 1531 1409 1298 1324 1230 942 640 773 903 365 972 268 132 375 411 170 543 456 209
897 1458 1640 1752 1903 1875 1949 1871 1467 1416 1233 1394 1227 1294 1347 1249 1170 979 1106 157 360 929 1508 1502 1453 1405 1388 1285 881 599 295 929 1018 416 463 42 49 355 488 449 82 29 84
892 1220 1662 1912 1906 1982 1873 1763 1661 1500 1235 1096 1213 1219 1319 1424 1424 1509 1336 96 67 389 1029 1324 1454 1561 1485 995 966 796 491 687 861 754 456 293 10 563 625 750 363 361 196
1074 1084 1728 2027 2064 1979 1839 1782 1798 1725 1612 1302 1333 1349 1327 1351 1222 1338 1352 1227 777 1051 231 939 1046 1190 1333 1028 1275 760 770 481 530 654 603 305 157 488 683 714 128 0 120
1394 1168 1406 1829 2109 2089 1944 1841 1808 1768 1923 1746 1690 1587 1407 1474 1302 1447 1411 1213 944 1163 699 689 842 1174 973 1332 1122 998 601 634 581 605 127 415 318 632 594 506 166 457 112
1771 1356 1639 1885 1960 2016 1965 1903 1891 1792 1868 1892 1964 1828 1602 1553 1491 1541 1572 1472 1290 1123 1223 963 928 1104 1307 1560 1186 1024 581 553 795 787 109 168 149 290 97 152 29 400 573
1919 1680 1689 1950 1932 1885 1787 1809 1782 1782 1763 1781 1841 1840 1707 1589 1562 1433 1538 1394 1491 1411 1262 1194 892 1055 1493 1525 971 1040 541 688 962 646 260 371 0 105 245 57 341 152 519
1828 1921 2015 1920 2020 1950 1818 1719 1812 1821 1810 1862 1951 1993 1797 1729 1357 1380 1279 1362 1347 1292 1338 1092 1176 797 935 1420 1091 967 631 534 718 745 251 275 0 2 630 696 637 172 549
2045 1944 1691 2073 1897 1753 1498 2036 1766 1804 1775 1745 1691 1768 1570 1390 1385 1604 1252 1123 1287 1132 1134 1206 1241 1401 890 1366 1403 1180 778 473 364 558 390 473 0 0 101 435 456 495 154
1798 1991 1865 1953 1967 1962 1634 1602 1774 1600 1473 2033 1745 1706 1794 1543 1224 1152 875 845 925 1108 856 1157 1244 1295 1086 1146 1505 1255 817 147 226 495 668 132 46 35 72 122 595 810 242
1677 2049 2137 1790 1863 1893 1527 1717 1465 1382 1279 1519 1453 1475 871 743 621 354 886 796 873 1066 1127 947 1080 1251 1122 961 1359 1188 616 461 547 459 670 400 285 194 260 487 577 681 505
1201 1877 1733 1814 1800 1664 1740 1228 1251 1473 1196 878 939 1009 1060 568 12 257 578 742 810 1037 1000 947 931 775 811 727 897 662 507 496 545 705 695 677 562 275 383 701 880 703 776
1078 1378 1639 1698 1613 1439 1260 782 1380 1038 249 2 561 977 839 502 237 546 592 680 516 525 670 405 0 172 693 735 852 668 631 371 320 288 510 730 609 361 371 551 1012 1069 989
1153 1322 1549 1650 1729 1684 1191 1100 874 485 371 178 523 1426 1377 818 473 375 214 252 228 656 822 403 6 0 476 793 791 598 421 371 448 658 922 706 321 350 382 564 760 1149 1171
33 62 95 1706 1976 1251 1096 1072 662 705 756 525 365 398 622 515 92 72 53 92 142 370 377 346 295 361 569 1105 986 924 693 805 536 458 682 574 320 188 227 580 752 1052 1159
2 0 81 35 1097 930 1119 782 1122 734 786 236 72 240 649 315 119 24 42 56 149 187 15 37 422 435 736 998 935 558 712 543 642 829 580 739 640 393 448 240 571 687 753
0 0 0 0 860 979 1293 1071 836 617 538 135 88 283 153 187 98 7 42 195 234 53 0 0 413 430 484 753 751 664 518 734 629 543 796 645 817 733 514 350 196 340 444
36 0 0 11 986 1006 1099 1029 743 265 299 268 126 48 22 17 27 77 311 516 415 329 272 48 1021 912 728 658 284 292 298 513 912 728 452 416 601 718 851 790 319 91 179
50 41 51 611 587 180 709 1023 316 109 15 21 5 5 40 39 31 263 312 537 643 557 577 432 495 464 459 601 525 550 714 496 655 572 631 531 450 639 657 646 559 361 213
478 892 79 40 0 646 1502 1539 239 58 0 6 0 4 10 66 99 419 482 603 713 677 631 599 842 475 630 560 471 266 451 605 754 645 494 466 297 546 346 122 846 788 854
768 476 549 150 1309 1621 1786 1216 540 62 32 1 0 3 44 86 232 639 623 468 348 642 568 424 443 517 530 594 249 136 12 132 468 457 422 457 382 460 270 621 544 743 463
900 771 552 520 1749 2136 1491 717 377 334 20 29 36 144 210 308 322 401 387 403 366 389 573 469 465 674 525 412 341 196 87 40 78 299 247 12 390 319 842 612 351 70 46
1318 1013 1949 1743 1602 1934 1073 518 569 621 573 450 595 535 441 474 476 441 353 192 288 406 583 412 451 709 457 302 365 296 210 128 104 12 149 307 271 392 328 420 285 117 5
1158 1748 1501 1961 2174 1294 1327 1028 720 703 1065 1164 1026 894 211 100 286 141 172 512 644 607 757 936 1011 707 559 385 356 199 133 33 234 207 18 209 24 20 75 208 277 465 61
1570 1582 1329 1942 2088 1681 1320 1523 1274 1411 1222 1106 574 423 182 319 162 197 279 308 469 518 630 764 470 584 574 571 319 261 110 144 186 314 160 136 3 2 0 27 14 27 17

GFSSE_con_mlcape_051.txt.gz
CAPE
1032 1593 1753 1742 1649 1649 1730 1875 1436 1110 904 1102 1347 1106 1005 1154 1196 1463 1522 1559 1609 1706 1207 1134 945 1067 1130 1168 960 782 417 491 789 487 816 624 463 443 423 717 64 0 260
1125 1708 1713 1663 1782 1692 1805 1880 1516 1053 1026 1164 1469 1271 1129 834 1264 1028 1443 1713 1579 1440 1325 1463 1340 1174 1343 1336 963 652 608 794 615 671 333 441 499 456 846 316 193 614 303
1034 1678 1798 1868 1945 1743 1709 1743 1492 1245 1298 1353 1565 1571 1330 1479 658 1217 705 782 1160 1503 1643 1486 1412 1114 1450 930 565 430 962 1001 517 833 15 184 528 539 217 104 0 28 401
1017 1481 1778 1854 2037 1991 1778 1523 1473 1375 1422 1269 1303 1288 1470 1435 1340 1354 50 118 494 1118 1487 1429 1474 1431 1121 1017 694 392 620 618 819 478 230 0 272 724 622 206 310 485 167
1292 1432 1771 1919 1938 1772 1668 1571 1477 1314 1284 1033 1234 1194 1452 1716 1532 1433 1352 641 642 296 1108 1161 1464 1638 823 1166 581 527 557 511 419 417 198 88 239 498 647 143 15 555 35
1255 1546 2007 1973 1972 1880 1757 1598 1586 1675 1488 1402 1448 1337 1343 1410 1458 1584 1458 1170 1247 1166 405 978 1256 966 931 1275 716 647 679 389 485 537 314 130 172 530 854 69 148 1 230
1146 1532 1748 2002 2032 1943 1846 1846 1672 1773 1782 1760 1772 1615 1540 1617 1594 1634 1533 1401 1262 1215 1257 697 1027 1317 1007 1313 661 601 414 576 862 796 231 244 135 300 454 339 455 537 619
847 1574 1804 1827 1940 1987 2028 1899 1813 1751 1794 1943 1936 1848 1745 1664 1571 1552 1671 1447 1396 1212 1172 1412 863 1129 1432 1388 838 740 494 465 937 740 448 25 45 11 217 166 51 452 75
1332 1116 1538 1541 1717 1777 1873 1868 1787 1725 1729 1731 1776 1680 1506 1405 1220 1269 1191 1416 1376 1198 1303 1191 1066 926 1195 1407 761 517 589 513 684 484 288 21 0 102 67 307 0 416 313
1465 1219 1264 1220 1402 1544 1720 1840 1727 1748 1757 1713 1759 2117 1669 1421 1326 1430 1251 983 1330 973 935 1029 1122 1163 808 1366 1157 486 605 621 342 293 334 0 0 297 756 454 529 130 490
1647 1462 1349 1142 1195 1127 1252 1839 1870 1865 1760 1736 1445 1478 1539 1342 1156 1197 1138 872 874 1071 907 1129 1217 1245 1018 792 1508 890 665 343 73 157 404 74 0 76 464 110 402 403 76
1693 1446 1522 1438 1441 1447 1413 1313 1585 1666 1390 1768 1362 1079 1139 613 537 323 462 910 950 903 1027 787 960 1045 1055 750 1286 990 420 50 3 336 341 51 56 61 55 0 288 723 244
1405 1370 1372 1364 1242 1429 1592 1360 899 811 892 759 1143 927 522 267 126 0 13 354 523 852 806 991 796 821 870 654 582 622 301 137 312 514 548 253 194 308 323 214 313 586 611
70 0 0 1095 1324 1174 943 248 15 156 247 264 40 640 395 169 46 0 117 650 695 513 538 440 207 0 61 181 642 565 564 217 251 384 113 501 502 301 246 510 445 497 671
10 0 4 19 58 936 433 40 19 25 87 24 0 375 648 97 235 339 377 455 294 604 400 172 162 31 0 60 505 722 587 560 580 640 342 692 604 420 200 444 677 796 826
0 6 0 1 0 313 638 531 356 221 120 3 22 346 772 550 321 180 96 37 54 205 150 82 93 119 0 13 113 440 588 522 389 454 646 478 623 356 284 334 771 914 508
15 0 0 0 323 468 466 531 403 389 223 160 247 247 334 218 142 68 40 19 72 111 97 4 2 68 174 191 319 472 695 753 826 921 777 521 595 414 295 305 340 677 733
0 0 0 0 414 592 791 763 523 488 241 82 43 114 161 186 205 100 63 114 223 103 24 0 2 2 83 195 230 361 636 478 366 381 708 661 525 450 382 403 279 196 416
0 0 0 0 549 542 731 783 360 133 108 123 63 28 50 61 59 59 36 133 430 213 171 107 113 6 80 201 319 376 317 434 411 759 669 704 772 820 676 658 449 335 221
0 0 0 20 555 288 590 373 141 7 23 30 20 17 35 33 35 6 27 98 144 351 310 219 165 123 266 362 416 392 394 497 312 373 524 633 550 610 703 681 681 544 277
10 44 232 306 45 0 1122 479 0 0 18 24 11 21 19 14 34 50 237 366 372 283 360 337 270 210 146 498 346 219 272 242 489 443 344 446 535 481 535 683 485 191 292
211 500 0 18 134 672 1535 999 6 0 10 0 0 0 26 46 154 252 261 283 317 315 277 258 206 209 375 430 229 138 7 0 90 298 333 398 288 327 409 476 366 416 300
451 438 216 733 1074 1764 1128 250 83 2 13 41 33 116 165 269 277 197 315 259 275 200 204 299 406 235 219 265 205 51 17 0 42 92 182 118 130 197 312 463 198 91 53
975 642 1336 197 1334 1824 507 38 232 297 161 205 341 301 326 287 263 114 104 102 153 251 213 394 364 124 231 121 164 158 129 58 0 0 34 58 91 98 138 240 162 32 0
1021 1357 1725 1389 1509 1355 982 351 732 530 612 909 652 331 144 161 132 106 68 43 88 224 286 339 359 274 326 237 138 114 59 3 8 2 0 27 2 7 22 43 147 126 38
1416 1427 1329 1786 1677 965 1191 1018 621 926 835 358 272 186 190 176 127 97 70 58 70 116 280 212 240 215 167 107 123 175 118 3 13 38 38 1 0 1 7 3 12 10 5

GFSSE_con_mlcape_054.txt.gz
CAPE
1032 1658 1881 1969 2012 2000 1793 1381 1208 1096 1214 1016 1238 1404 1604 1587 1452 1472 1736 1925 1658 1240 1123 1052 1201 1165 1203 1030 967 632 323 408 547 331 535 579 612 782 858 4 158 237 0
1100 1734 1933 1981 2055 2058 1936 1400 1235 1140 1433 1239 1233 956 1335 1174 1419 1670 1738 1608 1558 1317 1606 1216 1180 1428 1406 1118 593 468 447 844 681 660 637 504 544 383 359 0 412 450 126
1257 1764 1896 1945 2013 2051 1903 1441 1138 1160 1513 1449 1637 1542 1096 987 1665 1443 1373 1593 1647 1711 1610 1595 1385 1484 1302 916 528 1068 639 1127 398 345 628 406 465 594 484 58 443 780 78
1411 1683 1802 1951 1948 1992 1883 1608 1376 1401 1624 1719 1476 1419 1270 1033 1278 321 493 1086 1649 1643 1615 1486 1439 1453 1093 670 371 1118 839 862 732 149 163 485 474 270 0 85 82 56 376
1338 1679 1938 2140 1944 1905 1718 1622 1528 1438 1430 1616 1552 1563 1580 1624 1593 843 308 577 716 1434 1409 1622 1462 1182 1255 885 767 642 762 353 710 528 0 156 426 696 184 430 664 48 0
1264 1589 2142 2031 2043 1930 1732 1632 1457 1369 1191 1344 1473 1619 1479 1457 1530 1525 1488 1044 1165 840 1201 1300 1135 1178 871 1223 663 491 196 276 629 528 271 178 316 689 1 244 374 55 588
1176 1671 1856 1961 1992 1965 1780 1765 1798 1422 1304 1393 1480 1588 1629 1424 1454 1450 1451 1347 1239 1464 777 1112 1222 903 1120 1030 870 545 180 368 742 544 214 187 328 922 247 262 96 221 45
1237 1763 2003 1968 1941 1890 1756 1683 1973 1781 1732 1753 1834 1723 1798 1692 1334 1445 1549 1449 1256 1192 1129 907 1143 1406 1208 1019 799 720 228 281 833 590 181 192 377 690 576 476 456 692 427
1341 1487 2013 1828 1730 1842 1882 1870 1880 2002 2014 2001 1957 1875 1756 1617 1559 1563 1392 1481 1425 1365 1255 1133 847 989 1392 991 778 554 386 298 585 399 380 142 103 73 454 134 263 215 7
976 1239 1343 1502 1429 1570 1716 1827 1805 1789 1750 1715 1620 1639 1531 1509 1321 1356 1049 1166 1211 862 1052 1005 1027 888 631 1217 948 491 315 219 383 377 171 0 0 93 344 144 111 523 277
951 1021 1180 994 1006 1041 1384 1534 1522 1549 1646 1590 1634 2033 1641 1227 1323 1461 1042 859 1243 889 851 1009 1256 1023 736 671 1176 1063 588 110 89 170 354 99 0 343 735 772 204 220 635
380 361 139 150 769 836 1080 1522 1389 1367 1233 1292 1218 1285 1128 920 702 650 839 1295 1155 1031 673 546 552 913 783 530 554 817 589 153 100 85 263 219 0 7 279 605 484 258 127
231 133 100 0 20 566 1042 1437 1305 1260 1133 1279 1141 801 663 358 341 23 130 627 880 1125 901 792 710 655 634 520 474 420 158 194 65 185 499 363 32 17 258 347 443 688 136
247 7 0 0 0 0 214 765 525 597 609 443 698 776 497 163 68 0 0 188 376 771 609 501 203 170 113 137 144 353 511 287 53 258 452 337 322 177 270 233 341 782 739
139 4 0 0 2 3 7 114 72 120 204 262 100 383 343 167 67 0 14 467 338 243 183 57 2 0 0 0 83 363 551 637 283 235 292 390 515 350 491 370 611 755 823
7 0 0 0 0 0 96 79 64 0 83 110 3 49 410 170 85 152 165 116 55 172 50 10 0 0 0 0 0 94 162 517 414 331 472 381 534 676 668 316 361 868 963
0 0 0 0 2 77 255 194 223 103 24 54 17 0 398 325 186 95 31 10 4 32 20 7 0 0 0 0 91 129 235 426 531 473 514 475 626 545 578 311 276 309 541
0 0 0 0 106 323 465 483 303 198 97 0 13 195 240 173 137 31 4 0 22 30 5 0 0 0 0 1 66 66 104 337 303 271 424 538 539 630 577 372 356 376 452
0 0 0 2 675 574 505 500 266 158 45 78 48 57 65 126 85 41 10 0 7 24 12 2 0 2 0 13 43 71 120 171 212 379 384 496 603 596 517 506 408 414 332
0 0 0 67 507 366 274 200 27 4 20 37 0 0 12 8 9 1 0 5 58 58 65 40 23 18 3 26 136 212 199 189 250 228 226 391 358 684 613 569 588 581 465
0 0 0 146 216 255 509 0 0 0 0 8 5 0 1 20 8 0 0 0 0 67 129 171 96 77 47 65 112 88 52 98 146 168 282 274 196 320 308 373 449 503 402
14 14 32 101 10 283 1071 80 3 0 0 0 3 4 4 7 31 79 90 122 129 148 201 148 95 53 51 78 73 0 0 0 0 32 99 185 159 188 207 218 252 265 133
271 63 0 6 237 794 1028 11 0 0 0 0 3 32 50 103 185 160 154 155 167 116 103 136 118 57 0 0 86 6 0 0 0 0 28 62 95 116 115 162 65 50 27
420 382 276 776 1426 1372 292 16 21 29 48 75 204 207 264 210 166 182 169 156 153 181 168 111 180 68 62 11 3 28 0 1 0 0 1 2 31 52 4 0 1 0 0
838 709 705 647 1595 1204 78 134 385 291 268 369 240 140 102 174 173 102 90 89 97 134 139 137 122 80 98 51 25 0 0 12 8 10 3 2 0 2 3 37 13 9 10
1147 1583 1486 1230 1679 1687 673 418 623 572 522 251 184 125 225 135 167 143 117 89 83 109 105 70 63 59 15 0 0 61 6 0 0 2 5 2 0 1 0 2 4 4 6

GFSSE_con_mlcape_057.txt.gz
CAPE
1302 2000 2248 2270 2382 2273 1835 1643 1746 1733 1808 1794 1627 1442 1296 1512 1701 1724 1655 1381 1238 1309 1168 1206 1173 1232 1037 1109 866 609 392 292 756 453 787 822 602 306 42 423 349 182 0
1382 2102 2213 2355 2258 2295 1919 1607 1649 1774 1755 1840 1890 1865 1948 1914 1882 1982 2017 1359 1323 1349 1131 1172 1299 1235 1027 857 628 382 421 331 386 418 288 541 719 101 0 155 401 0 343
1459 2031 2218 2199 2269 2380 1861 1515 1487 1828 1733 1373 1570 1485 1718 1898 2054 2024 1631 1532 1425 1611 1567 1370 1345 1258 980 523 521 514 856 905 763 669 709 488 517 388 381 220 599 0 236
1517 1991 2055 2220 2403 2384 1916 1492 1569 1883 1900 1911 1597 1220 1792 1395 1271 1393 1661 1867 1847 1659 1601 1412 1385 1220 775 678 1141 691 1051 329 467 744 332 434 627 315 55 371 552 217 18
1551 1776 1900 2203 2215 2331 1993 1713 1790 1945 2050 1931 1692 1620 1489 1376 728 934 1115 1422 1770 1622 1670 1463 1475 1180 823 488 1000 654 776 629 325 196 314 348 236 0 128 235 0 275 552
1337 1617 2208 2060 1849 2108 1818 1745 1883 2032 1904 1477 1768 1722 1649 1731 1527 1042 1126 1043 1434 1421 1555 1550 1539 752 1107 905 759 391 177 249 696 186 0 401 487 313 374 825 175 0 133
1199 1613 1998 2041 2002 1925 1738 1772 1816 1795 1766 1713 1629 1743 1647 1670 1701 1728 1531 1424 1080 1092 1300 1380 882 808 1201 718 339 89 230 546 595 520 212 253 442 272 165 536 73 618 119
1091 1668 1823 1993 1991 1949 1899 1933 1809 1652 1630 1815 1730 1630 1608 1543 1543 1476 1555 1492 1477 1444 1010 1307 1375 730 1067 704 512 157 276 387 551 184 184 97 521 752 292 265 289 234 21
1210 1353 1730 2030 1945 2038 1908 1919 2027 1880 1757 1854 1829 1755 1614 1571 1488 1703 1576 1550 1390 1383 1426 1099 1256 1390 1185 987 509 256 215 183 497 389 205 78 334 696 725 490 653 753 53
1753 1612 1061 1878 2060 2005 1927 2010 1931 1971 1940 1931 1923 1857 1613 1498 1555 1612 1463 1543 1479 1569 1476 1336 1039 935 1202 985 830 245 229 100 231 271 281 141 68 448 603 453 407 201 0
547 384 266 336 491 924 1491 1973 1978 1887 1781 1673 1593 1542 1514 1319 1276 1328 1060 1333 1304 1080 1344 1220 1233 1027 667 1037 905 519 29 46 54 155 150 174 9 159 543 95 379 391 232
283 233 190 159 108 189 993 1327 1777 1539 1519 1495 1493 1635 1483 1262 1120 1185 1118 1037 1343 1080 1062 1255 1425 1320 1156 595 662 931 129 0 0 24 213 269 0 12 479 841 262 407 606
249 206 177 80 29 56 172 302 1350 1463 1327 1235 1234 1232 1310 873 798 596 654 911 1120 1129 902 820 861 933 862 406 304 367 432 124 29 0 258 400 151 14 254 672 743 512 242
238 137 0 5 36 27 45 128 475 515 941 980 1225 851 809 412 259 110 175 517 560 777 599 628 371 353 235 245 160 180 201 216 85 55 348 502 288 68 177 325 315 561 666
149 0 0 0 14 26 0 111 214 228 187 418 876 736 505 190 136 0 8 152 201 443 453 326 151 42 0 23 40 144 341 442 482 117 222 533 265 266 338 709 621 464 827
222 0 0 0 9 0 49 102 18 112 115 217 255 101 242 151 88 46 0 75 298 216 185 119 29 10 15 0 0 10 125 291 498 435 243 258 413 383 297 464 567 466 710
113 8 0 0 0 74 67 205 118 136 70 2 122 3 223 162 93 81 111 195 141 140 104 19 1 1 0 6 0 48 109 203 356 375 345 271 357 475 285 485 468 257 436
0 0 0 0 0 23 189 297 245 139 31 0 4 21 9 275 88 102 82 64 23 27 24 4 0 2 0 0 0 3 86 117 295 225 286 402 339 460 487 548 346 284 284
0 0 0 0 295 402 577 459 343 251 112 47 13 39 118 217 166 122 32 7 23 34 33 23 17 0 0 0 0 36 50 77 115 185 218 226 334 442 539 491 407 343 277
0 0 0 59 654 532 345 220 133 92 61 30 63 45 29 87 137 79 19 9 8 13 77 91 82 49 30 0 20 207 180 168 174 159 152 242 267 361 381 410 388 388 334
0 0 0 437 432 459 176 0 0 2 52 22 1 0 1 10 11 1 0 0 0 24 31 124 146 114 88 69 93 72 91 104 67 81 115 157 209 235 262 326 308 330 347
0 61 0 416 264 447 332 26 8 29 2 20 10 3 1 7 6 5 0 0 4 38 117 202 213 137 96 77 73 40 0 0 0 0 0 81 132 166 160 177 189 207 234
112 80 169 219 20 492 1051 14 6 0 0 0 2 11 7 48 57 53 139 91 144 157 151 191 160 124 66 42 86 0 0 0 0 3 4 3 0 31 54 23 35 42 53
388 167 32 64 355 975 649 2 21 40 11 0 41 106 119 131 132 106 103 124 136 180 182 154 132 113 113 37 36 54 0 0 0 0 1 2 2 0 0 0 0 1 0
637 459 551 943 1450 1115 324 14 165 211 144 240 194 149 114 158 112 97 90 68 66 58 81 96 99 71 40 21 0 1 0 0 0 5 2 0 1 1 3 3 3 5 1
1009 697 853 717 1522 948 131 64 373 319 392 247 124 78 142 102 72 98 99 89 74 60 81 80 71 78 96 61 20 22 4 0 0 0 1 1 2 1 0 2 1 0 2

GFSSE_con_mlcape_060.txt.gz
CAPE
1142 1674 1606 2147 2128 1674 1578 1481 1580 1691 1825 1875 1632 1384 979 1211 1414 1488 1354 1410 1347 1185 1132 1225 1133 1182 1088 946 729 505 411 590 896 290 645 800 554 497 586 615 413 0 0
1350 1982 1701 2265 2204 1724 1745 1727 1823 1774 1650 1550 1471 1272 1269 1511 1851 1857 1665 1406 1473 1310 1315 1303 1272 1142 850 866 450 289 242 892 287 693 728 603 119 28 272 78 35 12 0
1457 1938 2166 2144 2183 1889 1759 1861 1793 1903 1946 1901 1922 1893 1981 1950 2064 1882 1466 1466 1504 1216 1220 1424 1342 1201 793 606 352 629 389 550 529 242 614 663 3 34 283 623 0 563 56
1456 1901 1999 2130 2203 2046 1807 1844 1882 1829 1766 2011 1999 2077 2127 2005 1847 1687 1624 1558 1675 1699 1544 1548 1363 834 554 657 598 872 991 935 900 603 465 448 113 537 255 406 0 201 687
1291 1596 1839 2117 2203 2145 1794 1754 1957 1936 1888 1831 1646 2087 1753 1654 1697 1820 1714 1598 1710 1756 1481 1547 1426 738 696 1331 877 1077 388 567 749 276 285 441 171 17 308 409 447 65 560
1170 1437 1854 2120 2290 2189 1885 1741 1901 2016 1719 1338 1389 1707 1694 1132 1274 1287 1392 1859 1741 1743 1558 1604 1098 1054 681 1001 670 547 609 565 310 205 247 410 0 105 238 53 38 628 359
1014 1397 2104 1993 2200 2222 2062 1868 1974 1985 1637 1286 1638 1744 1882 1777 1472 1562 1444 1397 1655 1332 1634 1611 819 1124 873 969 709 365 461 281 401 170 49 453 352 299 415 578 0 31 584
1035 1526 2077 2068 2139 2175 2025 2031 2069 1908 1550 1443 1649 1605 1769 1848 1884 1841 1703 1554 1348 1277 1141 1297 906 1174 1054 690 420 315 588 568 507 383 98 114 430 87 480 317 189 500 5
1390 1586 1898 1978 2108 2150 2072 2011 1897 1776 1677 1756 1770 1776 1741 1701 1720 1709 1787 1676 1668 1645 1219 1309 1456 1136 1105 615 275 330 488 430 452 217 199 32 430 663 437 323 431 57 11
1393 1547 1549 1521 1422 1609 1670 1803 1696 1852 1748 1820 1842 1809 1539 1739 1550 1718 1617 1531 1607 1572 1589 1062 933 1461 1438 1119 564 293 266 471 349 262 276 83 234 785 612 468 575 719 0
1062 1102 979 1015 995 1082 1217 1312 1534 1574 1820 1575 1753 1843 1667 1474 1469 1574 1511 1504 1552 1492 1604 1170 784 827 1441 1491 1049 374 325 105 141 225 282 221 221 509 600 552 399 472 25
551 522 321 392 265 494 917 1156 1077 976 1432 1465 1364 1421 1320 1139 1056 1224 1330 1314 1460 1254 1332 1466 1438 790 681 1071 1269 983 405 47 59 119 260 299 274 118 623 479 342 469 254
305 228 204 146 95 187 237 550 699 1007 1375 1420 1400 1345 1370 1023 975 1218 1129 1002 1260 1348 1002 1137 1140 1222 748 570 601 799 421 54 3 4 113 482 318 102 593 742 577 416 474
233 136 140 143 68 75 133 228 280 715 1054 945 1151 1166 1013 1069 688 562 580 536 945 988 846 731 506 568 573 491 367 258 257 176 54 7 1 467 479 209 329 616 873 560 463
312 164 105 0 60 17 64 97 98 149 461 806 686 796 737 749 426 336 254 395 596 624 566 419 375 237 138 86 112 100 254 275 284 72 52 528 427 401 133 395 527 658 683
109 8 0 0 6 23 49 64 19 17 149 309 197 360 372 279 141 105 141 179 253 268 526 391 220 120 0 0 0 33 90 325 543 507 165 176 534 412 238 320 402 497 459
202 0 0 0 0 2 54 7 32 0 11 58 87 116 84 131 103 69 28 30 85 314 244 212 146 62 50 35 14 0 20 79 178 356 425 364 305 489 525 478 321 461 292
0 0 0 0 0 0 8 69 177 141 19 13 47 33 9 61 82 115 55 43 195 168 172 106 48 26 5 0 0 8 31 148 248 399 423 374 375 318 434 505 333 318 249
0 0 0 0 0 0 29 120 292 249 161 100 21 0 22 37 121 91 119 113 67 39 35 28 11 15 30 2 4 0 20 77 113 238 253 290 334 424 428 528 416 343 336
0 0 0 0 129 493 432 347 244 211 146 55 34 45 47 120 173 125 77 36 6 13 39 39 38 41 47 23 21 16 152 194 173 192 199 234 302 359 448 517 507 478 354
0 0 0 0 481 354 196 20 7 28 35 42 20 29 16 12 86 77 65 24 1 0 13 18 101 105 70 28 37 83 45 27 52 79 122 176 206 257 346 479 424 439 424
0 0 0 55 439 363 30 0 3 40 47 21 16 0 8 9 18 15 10 0 0 0 2 29 74 143 86 73 106 50 6 0 0 0 0 57 104 192 234 250 298 291 278
0 21 0 85 438 284 328 0 2 0 3 7 28 19 6 19 10 30 36 47 29 10 34 105 224 218 149 137 123 39 0 0 0 1 1 3 6 35 42 65 74 62 74
92 151 40 200 20 117 749 0 0 0 0 2 10 70 117 182 171 160 111 98 121 130 146 167 140 151 146 141 96 116 0 0 0 0 1 1 1 2 1 0 0 0 0
254 319 5 0 1 531 771 0 0 22 52 97 152 140 169 169 158 119 149 135 154 200 252 212 208 143 127 159 122 38 60 28 0 0 1 1 1 0 3 0 3 3 1
820 452 308 477 953 1219 543 5 134 21 106 65 103 62 70 117 114 145 141 126 104 112 150 153 134 153 163 137 115 66 42 15 0 17 2 3 1 2 1 1 1 1 6

GFSSE_con_mlcape_063.txt.gz
CAPE
1190 1329 1914 1741 1616 1463 1608 1699 2064 2134 1813 1415 1339 1344 1265 1462 1567 1476 1386 1323 1331 1556 1331 1069 1356 1072 1093 1049 557 564 427 519 317 448 522 801 237 427 179 358 118 0 0
1275 1268 1722 1934 1716 1409 1569 1631 1936 2032 1967 1747 1601 1285 1244 1597 1664 1555 1553 1495 1400 1276 1383 1325 1282 1237 1171 573 495 443 806 841 537 799 600 113 683 652 795 348 0 0 683
1398 1361 1454 1920 1710 1630 1496 1697 1754 1909 1937 1756 1573 1389 1416 1809 1906 1914 1552 1549 1437 1371 1405 1422 1310 1186 1021 497 346 375 876 445 689 694 769 0 0 228 31 0 566 0 287
1450 1493 1636 1808 1630 1732 1715 1709 1909 1829 1685 1629 1605 1783 1996 2137 1822 1789 1504 1521 1438 1246 1477 1413 1340 878 679 493 882 553 652 703 642 796 268 0 3 442 644 0 676 245 535
1496 1542 1734 1812 1693 1685 1778 1786 1911 1984 2068 2038 2160 2174 2134 1917 1723 1672 1656 1648 1243 1400 1367 1406 931 699 795 727 1063 1203 1102 1054 868 605 303 180 1 404 570 0 220 807 519
1405 1483 1881 1742 2035 1688 1740 1893 1824 1707 1904 1811 2061 2012 1690 1687 1660 1752 1369 1418 1430 1511 1485 1292 914 667 1275 1015 1293 430 695 803 590 381 419 427 0 208 164 586 158 554 331
1396 1408 1763 1863 1936 1749 1638 1743 1987 1751 1826 1849 1682 1817 1285 1359 1258 1298 1341 1035 905 1248 1351 1333 1374 607 939 883 834 627 780 638 106 146 334 159 80 270 687 0 536 497 336
1264 1420 1872 1784 1762 1867 1736 1662 1844 1197 1643 1606 1535 1733 1781 1526 1465 1580 1359 1272 983 1019 1540 1333 965 881 1002 960 605 628 446 437 623 480 181 291 327 291 535 183 0 242 984
1321 1603 1968 1796 1846 1841 1902 1828 1675 1108 1045 1513 1700 1750 1561 1813 1790 1632 1631 1472 1230 1164 807 1263 994 1257 953 854 591 570 770 760 686 606 395 168 398 170 580 335 446 349 128
1393 1657 1768 1893 1956 1789 1696 1676 1708 1546 1173 1295 1482 1416 1200 1639 1570 1605 1591 1481 1566 1556 1120 936 1273 1207 1064 768 580 579 708 795 968 761 597 378 271 728 420 406 560 153 34
1598 1690 1680 1210 1367 1754 1815 1863 1688 1604 1651 1212 1401 1758 1659 1370 1140 1311 1345 1365 1600 1549 1022 898 876 992 1259 1274 927 650 588 639 583 672 764 474 144 602 698 685 484 703 171
1126 1170 1163 1243 1054 1013 1041 1499 1701 1575 1504 1625 1590 1708 1578 1515 1474 1402 1281 1176 1397 1308 1334 1056 670 694 814 705 577 760 371 470 442 691 837 526 297 587 736 815 606 600 363
909 728 425 567 285 500 409 410 1416 1333 1310 1326 1394 1520 1566 1453 1308 1295 1134 863 1082 1269 803 1112 964 778 641 898 657 661 641 354 294 416 488 444 486 552 547 949 512 612 471
725 442 382 234 59 79 98 254 377 747 1217 1214 1281 1451 1541 1363 1356 1209 1074 970 1247 1428 1246 1123 886 1131 952 876 875 915 694 488 260 317 341 172 520 478 430 548 633 491 712
621 397 290 203 98 25 53 188 262 653 866 1374 1257 1313 1417 1408 1287 1131 838 1004 1022 1269 1225 1144 1001 875 846 705 710 646 557 367 425 231 174 158 432 448 403 344 395 513 448
755 611 275 17 0 37 44 124 153 203 259 426 1005 910 1148 1165 813 612 540 497 897 1032 989 906 1032 904 560 311 298 480 532 708 930 885 489 299 513 493 386 332 397 474 570
600 277 3 0 16 3 50 139 100 38 91 204 373 241 333 375 210 146 244 244 627 797 909 1072 876 532 393 365 309 298 165 412 513 1061 1212 841 567 444 483 357 397 340 437
718 242 0 0 2 87 47 132 270 177 121 55 54 59 52 113 81 67 92 193 289 465 731 693 584 293 182 173 188 191 198 282 541 928 1017 1060 974 933 743 507 531 485 358
10 58 46 0 6 0 15 141 249 340 363 307 166 100 85 36 185 191 98 111 324 395 605 559 439 260 187 209 187 90 111 157 379 507 853 1075 1102 966 927 878 557 435 360
0 3 0 0 0 261 429 286 362 290 210 152 127 208 73 51 49 219 212 188 254 199 156 202 181 231 180 201 257 177 356 306 712 669 724 854 932 1044 1039 1194 897 694 546
0 0 0 0 233 722 568 256 37 45 57 113 48 201 224 251 184 112 116 142 125 94 185 221 255 205 289 334 73 183 427 410 646 548 198 329 784 918 982 1158 1353 1054 933
3 0 0 0 683 771 527 54 50 91 73 199 106 43 22 118 121 145 74 44 167 131 171 196 224 301 252 56 54 78 123 148 256 157 128 177 606 835 972 1081 1163 1099 1225
101 0 0 0 808 765 765 3 32 33 34 96 91 37 16 30 10 45 172 171 169 130 53 161 207 194 149 97 85 139 59 32 130 83 41 51 117 171 213 366 487 481 536
212 160 251 0 577 753 951 16 0 31 50 49 110 153 75 49 48 170 217 208 391 385 280 187 376 603 455 113 241 477 221 125 118 11 25 1 2 36 121 63 76 110 259
353 422 210 235 393 244 984 724 0 116 154 93 289 431 451 224 175 102 6 132 216 217 180 129 220 116 134 220 217 220 263 154 100 130 5 2 1 1 9 33 21 107 193
558 645 472 99 90 144 1128 846 0 264 187 215 232 300 395 428 354 182 118 143 154 133 189 232 272 599 629 481 552 431 297 171 180 213 101 11 4 2 2 1 1 18 63

GFSSE_con_mlcape_066.txt.gz
CAPE
1182 1502 1852 1480 1660 1884 2119 2196 2263 2207 1440 1296 1082 1330 1620 1688 1651 1572 1678 1561 1483 1294 804 1341 959 767 1236 944 961 574 446 267 249 887 891 854 815 581 843 362 0 10 228
1279 1418 1877 1547 1547 1873 2040 2274 2313 2152 1537 942 1226 1628 1620 1700 1652 1461 1364 1416 1436 1498 1366 1352 1417 1365 1070 469 724 640 898 494 918 983 707 587 572 392 207 0 0 0 0
1310 1426 1603 1557 1570 1763 1959 2232 2166 2100 1830 1291 1688 1528 1732 1711 1805 1797 1778 1544 1392 1025 1219 1280 1320 1269 827 542 512 1096 786 786 756 616 51 11 601 691 235 29 26 966 602
1282 1323 1580 1443 1667 1668 1858 2028 2205 2126 2043 1887 1659 1624 1608 2095 2027 1643 1612 1508 1262 1431 1175 1267 1363 1207 632 515 528 951 616 743 782 578 6 5 1 595 0 842 0 276 459
1307 1310 1728 1525 1665 1765 1783 1800 1807 1838 1954 1895 1756 1732 2309 2185 2001 1600 1465 1636 1398 1274 1239 1303 1108 672 566 1064 910 743 843 938 415 452 26 15 9 589 17 502 708 738 595
1199 1327 1773 1825 1621 1777 1812 1761 1946 2061 2061 2193 2226 2112 2183 1926 1901 1906 1630 1645 1450 1223 1385 1253 842 751 1108 1157 1140 1021 1157 847 357 34 30 0 48 704 95 2 778 829 327
1063 1336 1538 1970 1769 1694 1830 1805 1764 1807 2103 2170 2254 1706 1859 1730 1816 1598 1419 1299 1200 1591 1199 1319 845 938 1283 1388 677 739 729 435 267 82 76 17 64 124 189 573 494 289 68
964 1201 1443 1670 1820 1626 1616 1859 1889 1627 1833 1952 1985 1832 1345 1518 1295 1403 1347 1199 932 1105 1440 1034 1207 832 1009 854 852 725 819 485 237 78 87 79 167 329 975 9 470 722 599
1007 1077 1585 1550 1727 1791 1552 1552 1560 1343 1521 1704 1718 1671 1625 1553 1718 1903 1453 1171 1132 935 1472 1304 1176 980 1113 1051 750 561 593 434 694 245 72 38 46 113 730 270 3 179 726
1095 1119 1503 1415 1517 1505 1689 1675 1279 1298 1279 1220 1159 1041 1633 1841 1836 1556 1679 1057 1307 995 1016 1251 1046 1333 932 932 713 515 443 679 614 256 414 512 112 173 504 683 380 576 228
1119 1294 1392 1351 1077 1178 1218 1436 1500 1329 1224 1150 1084 1067 1203 1125 1129 1218 1165 1216 1405 1309 1066 1096 1274 1257 1146 863 793 592 489 523 348 313 350 465 181 444 640 555 506 459 145
1364 1369 1287 1163 1258 1048 1187 1168 1408 1335 1181 944 1050 1271 1176 1076 1209 1081 1264 969 1343 1442 1141 935 985 1078 860 331 266 393 313 249 338 355 412 672 307 510 950 907 714 645 972
1542 1381 1240 1075 421 321 278 744 1286 1359 1274 1367 1358 1399 1747 1190 1173 778 986 529 579 876 556 428 484 457 418 338 400 179 96 407 334 439 550 481 470 531 872 1037 966 634 754
1440 1396 1226 1023 113 139 498 305 527 889 979 1193 1250 1365 1322 1283 957 938 820 651 1055 1237 925 1052 841 1041 815 775 495 405 261 318 312 337 655 453 419 613 770 584 820 698 690
1745 1396 1325 917 732 257 78 200 255 352 513 772 1151 1264 1142 1076 976 888 756 721 750 993 1026 905 818 785 788 818 914 624 336 141 288 447 392 440 121 374 543 563 523 517 605
1690 1473 1383 1058 348 141 94 170 357 419 642 1026 756 763 941 749 855 826 780 673 918 1008 803 730 734 844 935 669 613 752 633 310 180 208 178 237 207 156 357 464 407 497 394
1671 1608 1352 454 167 184 194 313 368 338 301 344 715 1339 1187 1251 1068 800 569 638 671 979 949 769 1082 1044 786 428 559 772 633 599 420 521 675 510 473 212 322 400 365 334 428
1518 1118 735 13 337 407 354 353 294 292 162 195 360 859 423 306 442 440 118 245 484 789 701 745 1038 651 453 362 386 347 302 340 419 879 975 1083 740 470 577 476 406 378 420
1164 1134 704 400 325 204 352 431 551 674 518 521 339 227 73 62 107 127 40 41 637 575 530 586 701 681 417 402 323 295 281 259 232 439 628 778 1087 916 802 976 687 580 379
532 658 828 373 282 238 771 728 843 762 437 389 402 518 456 121 112 245 320 62 79 426 382 641 570 405 291 223 178 215 345 384 243 275 540 947 950 871 1126 984 1163 917 493
399 546 569 294 279 996 1134 773 347 153 325 240 189 357 582 495 345 42 90 139 118 126 220 159 190 292 194 197 484 188 57 604 701 835 1004 1047 553 491 839 1028 1207 1117 781
431 540 527 371 1148 1382 1072 430 291 421 299 584 216 292 448 405 300 126 61 74 93 177 266 252 347 150 135 498 198 63 29 190 275 698 603 656 738 916 920 1013 1101 1133 940
575 447 411 372 1409 1496 1028 358 431 392 393 377 419 251 141 72 257 282 98 58 44 7 199 465 380 266 228 511 83 19 36 37 195 358 368 252 247 436 617 950 1097 1252 1363
832 454 441 374 1157 1441 1331 231 449 430 240 251 524 359 217 173 114 19 28 235 490 566 476 240 291 373 434 385 206 91 54 158 253 142 225 114 75 156 556 263 363 620 774
989 792 875 524 974 1375 1327 838 347 652 408 268 432 611 526 481 94 98 106 189 165 409 692 662 508 223 228 126 89 250 425 355 252 201 140 69 1 3 18 97 279 319 525
1139 1189 1050 1018 1139 1314 1073 1582 1092 637 207 100 268 235 319 578 413 238 70 21 29 147 329 431 129 130 99 56 159 508 382 309 332 205 207 200 147 1 2 1 4 123 352

GFSSE_con_mlcape_069.txt.gz
CAPE
1204 1114 1317 1744 2043 2147 2145 2012 2007 2034 1805 1409 1152 1386 1650 1605 1486 1606 1428 1357 1237 891 1252 973 811 1009 1150 1098 830 441 216 520 1000 1085 918 655 792 635 359 285 536 20 0
1354 1069 1247 1685 1969 2168 2343 2042 2166 2094 1696 1409 1386 1636 1716 1734 1530 1748 1382 1462 1183 1353 1322 1426 1110 1086 1122 823 649 704 503 575 838 745 205 494 293 374 8 0 0 0 137
1323 1305 822 1470 1839 2068 2350 2421 2354 1972 1641 1191 1586 1664 1726 1699 1543 1365 1560 1500 1417 1274 1289 1402 1393 1205 597 757 665 1029 796 873 663 16 573 541 504 359 0 0 791 194 649
1162 1359 883 1401 1615 1868 2179 2298 2392 1992 1370 1750 1634 1525 1710 1703 1865 1924 1770 1495 1472 1107 1227 1350 1244 1109 533 501 1021 650 851 483 529 457 217 10 9 0 617 17 490 897 935
928 1077 1438 1251 1471 1787 1952 2079 2216 2196 1967 1870 1616 1640 1598 1418 1661 1496 1480 1465 1310 1389 1376 1327 1074 783 651 755 876 783 790 448 438 715 31 83 35 27 423 494 260 513 518
761 1418 1404 1149 1596 1669 1630 1655 1927 2103 2026 1900 1727 1595 1790 1819 1661 1519 1686 1442 1386 1026 1465 1198 751 639 941 1151 880 915 759 213 458 184 27 24 461 150 1 406 766 572 312
1570 1967 1682 1266 1797 1730 1704 1731 1824 1792 1850 1800 1670 1511 1391 1554 1386 1533 1512 1590 1460 1384 1358 1150 668 1167 1070 1164 894 1070 472 201 618 37 20 11 562 65 556 329 673 472 271
778 1547 1820 1695 1666 1822 1832 1777 1870 2027 1966 1741 1160 1327 1571 1619 1394 1523 1398 1256 1345 1691 1320 1251 733 1351 1286 1189 503 723 239 242 152 24 18 228 0 200 275 17 787 365 34
932 1478 1518 1626 1864 1699 1722 1794 1800 1599 1721 1731 1466 1222 1341 1339 1249 1193 1015 1275 1113 1213 1531 988 985 1033 964 833 771 588 423 345 815 459 13 265 0 58 938 85 3 266 870
1054 1606 1432 1569 1362 1514 1133 1551 1812 1555 1530 1758 1453 1180 1561 1518 1792 1748 1259 1217 1302 1103 1500 1232 1339 1052 1148 1078 714 512 378 218 632 461 36 189 0 0 775 397 150 647 68
1337 1629 1522 1285 519 694 1285 1213 1273 1369 1041 1208 1166 1014 907 1124 1218 1290 843 758 1409 1146 1102 1299 1075 1407 1012 955 714 476 326 246 345 345 333 326 59 0 231 579 381 468 90
1440 1389 1430 1113 510 204 574 1231 1104 949 814 739 821 1002 901 986 1191 861 1026 1067 1393 1402 1188 1131 1286 1298 1173 190 338 373 181 325 426 265 912 450 152 114 606 734 577 546 625
1645 1645 1627 1581 484 205 432 672 963 1071 1110 1037 852 1006 1119 1266 1022 902 1149 843 412 1120 942 721 808 557 264 341 343 377 0 167 243 233 706 475 244 320 533 981 991 781 555
1654 1718 1472 1786 596 187 155 242 488 1127 1253 1251 1438 1568 1567 1484 1141 990 720 1020 805 1131 803 1084 912 621 615 604 852 552 197 282 218 266 782 525 321 435 668 875 909 878 638
1579 1679 1652 1470 967 560 345 178 317 490 646 872 1064 1397 1446 1088 1083 873 857 641 759 1080 1132 909 876 1135 1087 747 724 825 301 255 198 386 571 653 406 316 586 781 890 705 603
1831 1596 1788 1411 1379 817 342 324 348 770 655 353 737 993 1178 1173 1001 734 674 367 647 939 930 863 803 993 944 905 715 788 683 571 243 164 306 780 320 132 161 455 729 540 554
1807 1600 1569 1533 833 581 469 371 420 449 799 922 559 833 1006 863 946 759 515 444 518 834 1299 936 804 1108 996 1005 497 815 451 485 550 480 414 351 567 200 128 190 340 473 557
1815 1616 1473 787 904 763 694 655 596 408 402 286 289 264 811 823 888 758 662 446 395 954 821 746 894 1117 921 711 401 493 517 426 595 451 572 772 812 775 372 226 324 260 349
1867 1489 1187 653 949 1055 954 677 689 863 684 269 362 429 729 969 762 932 357 217 404 609 712 860 825 942 813 466 302 291 312 274 379 302 452 669 866 1122 671 558 572 287 260
1114 1335 1187 917 873 483 708 1086 982 1061 1188 1194 1036 878 537 615 292 112 149 177 20 168 307 714 716 641 696 350 283 257 416 400 396 572 446 503 854 1366 265 75 831 596 532
894 1009 1338 885 884 975 1244 990 509 239 564 566 543 677 847 574 256 230 114 594 582 173 424 876 1056 949 413 285 216 242 201 299 158 393 822 1125 1285 1356 1196 679 948 764 1337
1051 976 1124 973 1024 1618 1267 587 400 541 468 684 835 715 633 653 674 670 509 154 278 152 132 269 172 190 215 320 360 626 64 151 115 592 733 844 874 1036 831 1156 1129 1359 1523
1218 1019 1059 1040 1558 1665 1111 663 734 765 661 580 864 671 586 617 589 449 196 103 82 90 59 121 430 559 443 433 900 336 7 12 32 291 617 563 481 521 749 868 1011 1197 1476
1398 1228 985 1004 1579 1743 1506 326 852 901 503 788 598 592 499 374 374 490 563 243 49 46 225 57 208 575 566 470 790 457 135 39 22 130 314 418 372 437 697 609 505 726 918
1480 1372 1060 1091 1242 1706 1562 786 688 961 816 332 336 878 864 577 383 126 6 92 65 183 714 741 795 540 571 553 583 152 85 60 42 36 29 258 144 21 23 141 383 584 838
1615 1538 1466 1355 1384 1883 1784 1540 1288 1194 903 319 546 549 583 592 555 257 0 0 0 0 51 210 324 400 380 317 101 71 32 284 374 327 254 367 148 1 1 2 7 169 408

GFSSE_con_mlcape_072.txt.gz
CAPE
750 1166 1757 2051 2046 1901 1621 2087 2125 1883 1716 1445 1313 1424 1433 1355 1361 1672 1295 1128 883 1016 983 979 803 1135 1061 904 372 163 773 758 844 568 797 632 346 506 410 393 4 0 349
726 1064 1619 2052 2195 2120 1805 2043 2056 1732 1663 1253 1203 1425 1624 1446 1678 1400 1357 1202 1097 1119 1372 916 995 1142 764 615 480 250 309 919 651 906 405 324 462 10 345 0 9 0 0
707 878 1371 1976 2159 2201 1993 2095 2096 1984 1613 1356 1553 1627 1746 1607 1387 1254 1314 1449 1391 1209 1366 1357 1077 875 747 637 891 564 895 837 709 376 592 122 0 0 325 140 32 877 509
958 398 956 1812 2140 2172 2112 2352 2154 1883 1509 1603 1841 1670 1760 1598 1493 1620 1543 1390 1070 1238 1254 1246 1266 768 459 740 780 810 379 411 578 294 606 56 0 185 0 867 899 631 0
1185 620 916 1322 1920 2167 2246 2269 2030 1828 1587 1923 1735 1734 1444 1445 1841 1675 1493 1299 1534 1177 1370 1420 1115 455 469 931 705 563 328 281 456 822 519 286 0 443 101 141 280 512 551
758 1309 654 874 1619 1947 2115 2187 2209 2041 1849 1749 1756 1606 1639 1418 1531 1651 1337 1309 1439 1470 1438 1055 644 671 1025 756 860 417 201 311 466 799 181 172 0 59 810 850 863 440 0
18 1560 719 642 1182 1543 1739 1952 2124 2102 2045 1835 1585 1474 1643 1531 1521 989 1369 1487 1154 1305 1329 854 620 912 1157 1306 869 458 311 231 460 274 146 508 0 0 159 606 870 333 402
1572 1504 1164 1266 1319 1437 1517 1589 1712 1748 1727 1752 1388 1080 1171 1382 1547 1395 1422 1394 1310 1216 1324 863 951 1237 1253 767 739 245 61 248 625 250 219 194 0 0 84 648 367 0 0
1677 1751 1422 1364 1582 1730 1635 1635 1655 1760 1847 1812 1250 1113 1134 1411 1319 1428 1222 1064 1026 1079 1499 1307 717 1407 1171 772 308 61 0 256 481 829 268 83 0 107 111 0 604 755 404
1303 1663 1231 1555 1726 1318 1329 1693 1576 1496 1609 1737 1449 1490 1386 1180 1290 1262 960 1172 1068 1177 1391 1065 898 990 934 766 618 300 193 291 187 554 365 19 0 38 858 23 0 45 607
1254 491 0 0 722 1044 1074 1234 1323 1307 1439 1473 1492 1284 1426 1226 1242 1388 888 948 1170 1069 1345 1060 1334 1052 1108 1133 754 426 257 139 264 287 276 3 0 4 420 362 104 609 33
1361 359 0 4 24 106 490 942 1135 937 852 916 974 1076 929 1045 830 869 1078 820 1267 1118 1103 1179 1033 1356 991 573 570 480 192 143 283 473 319 141 0 0 6 433 285 297 201
1364 1244 469 476 165 78 84 444 807 897 879 890 907 945 992 1062 854 875 967 956 1171 1282 965 968 1116 997 695 474 240 305 40 49 253 407 523 243 104 76 196 442 536 367 358
1668 1769 1641 896 387 158 667 296 504 430 696 790 835 946 1003 928 981 951 797 1074 586 912 1016 771 889 617 556 425 412 331 332 213 22 207 645 419 282 195 263 507 799 792 582
1464 1809 1776 1740 1025 463 100 228 508 375 556 1047 645 1220 1117 867 873 891 799 1024 905 1138 764 730 709 725 609 628 974 672 820 794 351 313 729 426 425 303 320 520 757 875 810
1328 2099 1883 1670 1258 922 524 259 194 368 404 676 1015 1157 1312 1061 942 953 803 688 708 716 861 770 692 771 644 705 743 646 369 410 461 425 676 631 382 265 293 315 539 746 764
1537 2028 1931 1210 1431 800 527 482 449 735 725 1095 899 377 789 788 837 861 761 906 859 968 1281 689 781 756 574 1018 792 816 843 457 385 582 372 783 625 344 127 122 283 492 564
1650 1627 1969 1558 1159 978 733 696 711 351 329 621 600 689 919 995 893 606 1023 730 532 983 828 1172 679 876 1061 823 614 596 577 464 503 417 540 393 806 827 339 338 170 136 185
1980 1689 1569 1022 1257 1195 1053 975 999 1050 713 716 597 385 483 549 853 916 797 634 539 868 851 689 788 945 284 316 634 268 253 591 302 329 397 613 435 704 699 634 382 225 298
2160 1702 1392 1048 1354 1480 1298 1236 971 1072 982 1013 1006 847 363 792 1149 812 763 408 312 194 513 509 505 765 761 730 567 273 368 206 362 211 303 400 970 1335 789 595 207 44 307
1492 1893 1512 1311 1264 900 1163 1276 1366 1053 990 963 780 590 358 368 722 426 159 307 180 3 0 134 472 278 369 625 185 191 325 487 342 283 224 832 396 303 20 1022 360 440 303
1279 1469 1754 1408 1423 1296 1584 1312 902 699 526 717 1091 841 756 426 258 400 336 94 468 556 205 94 196 467 424 222 87 182 95 82 146 118 609 587 442 598 557 863 617 721 812
1448 1602 1579 1431 1482 1665 1919 1104 770 667 849 976 968 1016 693 657 302 258 325 521 271 285 72 14 37 44 11 75 272 118 94 0 12 33 61 377 422 302 514 571 711 666 677
1698 1468 1676 1582 1547 1942 1878 895 925 964 508 588 650 782 720 456 436 256 339 288 200 75 56 17 3 19 32 49 173 167 234 45 0 4 13 5 272 312 332 283 258 217 287
1815 1655 1534 1594 1847 2130 1955 1318 954 784 715 495 497 693 822 661 460 439 267 365 191 86 131 160 182 249 128 152 177 227 283 140 0 5 1 0 10 15 0 0 31 114 260
1828 1803 1517 1615 1495 2211 2097 1427 1301 1196 1024 716 618 396 701 806 591 339 160 42 67 21 5 13 22 64 172 255 213 135 51 44 21 27 58 43 61 2 2 1 0 58 133

GFSSE_con_mlcape_075.txt.gz
CAPE
872 1839 1929 1937 1661 1617 1878 2021 1769 1521 1375 1278 1222 1050 941 1167 1415 1188 1113 885 1014 916 943 1051 1068 1057 916 281 161 896 857 441 657 278 325 613 595 334 524 172 31 502 20
926 1979 2050 1994 1568 1642 2194 2128 1925 1529 1478 1241 1460 1404 1224 1418 1418 1346 1321 1066 1139 1192 975 840 1088 769 497 263 3 412 717 927 729 888 236 156 44 155 156 25 0 504 778
1049 1864 2061 2135 1931 1726 2074 2235 2056 1665 1354 1363 1547 1660 1403 1411 1461 1304 1463 1321 1346 1261 1128 1009 1211 741 647 487 322 611 941 590 761 150 0 0 3 370 0 32 406 0 734
828 1526 1775 2100 2260 2182 2232 2330 2110 1693 1219 1547 1617 1638 1515 1384 1307 1546 1412 1376 1283 1241 1325 1281 882 612 605 809 465 682 681 531 439 605 0 0 0 356 757 539 355 71 279
624 991 1635 1864 1922 2189 2402 2291 2071 1686 1360 1699 1536 1660 1475 1456 1463 1627 1442 1482 1159 1292 1307 1365 723 315 1033 550 446 340 463 392 142 204 412 0 0 0 534 784 400 218 367
434 627 1338 1725 1841 1919 2151 2164 2014 1597 1637 1707 1605 1527 1464 1737 1641 1498 1304 1381 1237 1347 1438 1006 366 531 926 696 317 269 364 453 453 522 1 0 3 27 492 647 713 173 273
885 750 1488 1493 1769 1843 1789 1873 1816 1761 1854 1776 1627 1233 1132 1224 1547 1531 1440 1447 1154 1420 1329 552 415 1099 702 490 407 287 324 442 410 254 0 0 6 570 996 970 491 19 241
306 830 1328 1749 1539 1602 1739 1719 1898 1989 1956 1843 1608 1197 883 768 1197 1263 1502 1562 1176 1438 1136 647 1235 1090 1321 840 470 290 61 164 587 277 64 0 0 119 583 671 141 137 568
543 370 1326 1735 1480 1476 1429 1378 1470 1651 1719 1682 1326 1230 1118 1143 1544 1421 1418 1320 1245 1032 1453 798 1202 1419 1327 220 26 0 0 193 199 392 70 0 0 3 174 515 63 30 11
14 0 342 724 988 1244 1400 1529 1617 1660 1754 1647 1310 1252 1461 1128 1295 1358 1089 1015 1160 1289 1401 1376 798 1309 1029 292 4 2 174 161 22 303 188 0 0 5 0 6 306 747 406
0 0 0 606 761 1031 1079 1275 1517 1297 1500 1609 1249 1473 1403 995 1130 1209 842 990 1115 1251 1335 1174 923 982 789 491 482 438 316 14 103 167 172 0 6 623 158 0 2 3 600
0 0 0 58 813 923 1093 1070 962 939 1227 1250 1270 1084 1088 920 1005 1172 870 1263 1189 1181 1400 1149 1287 1119 866 565 467 504 278 14 77 280 42 5 0 463 225 0 59 410 53
70 0 0 0 34 91 394 829 1027 896 836 636 821 962 761 783 918 758 874 930 1185 1224 1069 1190 1095 1164 891 333 350 109 5 8 58 320 115 33 28 214 446 41 37 113 276
268 49 0 232 49 14 27 348 699 798 738 792 839 929 700 809 727 713 640 710 881 862 648 697 611 639 411 474 380 321 198 119 215 538 315 251 67 194 467 313 273 225 196
1030 565 654 527 209 113 362 186 556 394 538 682 559 696 741 657 626 734 675 632 685 574 730 804 648 574 503 518 570 446 277 286 745 290 349 420 263 251 168 392 617 608 644
1595 1395 1119 947 641 250 146 198 153 341 354 552 665 514 767 717 662 697 540 555 698 669 681 552 513 414 619 482 442 386 467 715 400 484 630 473 404 345 245 222 516 597 706
1644 1689 1418 1186 890 792 564 291 131 294 397 419 650 627 796 605 605 779 729 496 753 732 780 586 560 599 535 399 417 431 601 546 290 341 557 584 714 535 426 163 248 363 396
1652 1621 1436 1222 1093 758 439 549 540 463 582 581 640 492 55 508 626 619 542 626 659 717 673 505 501 612 361 524 519 540 607 361 416 479 569 595 702 522 696 323 283 299 231
1716 1674 1357 1079 937 563 622 776 678 420 269 311 482 292 247 479 820 568 421 576 250 486 504 430 525 520 537 274 425 382 546 548 453 362 370 480 618 611 510 411 319 283 198
1716 1649 1361 1052 988 884 666 926 906 1194 796 912 977 605 514 310 386 854 499 480 219 219 379 423 295 436 382 170 358 327 321 179 194 405 280 313 471 621 536 491 385 310 191
1655 1355 993 1090 1093 1217 1002 1036 968 831 729 713 622 686 595 400 400 320 152 288 272 125 41 112 238 199 339 359 167 123 116 280 96 128 234 233 184 344 183 72 192 126 159
1804 1542 1109 1093 1151 1006 699 1005 1274 1236 996 987 953 747 719 569 335 281 178 117 115 66 12 0 5 115 175 134 54 40 36 12 90 184 169 153 213 380 204 57 504 470 308
1566 1607 1324 1349 1127 651 1130 1232 883 555 718 514 483 725 756 619 406 189 138 98 53 141 72 54 2 5 0 18 76 48 18 0 6 39 16 8 107 194 224 205 342 462 490
1281 1535 1570 1416 1178 1006 1650 1367 653 8 341 513 625 879 616 540 340 175 170 103 220 179 122 55 25 17 21 4 23 44 43 14 0 0 16 0 46 25 24 59 101 132 156
1452 1493 1480 1361 1166 1190 1799 988 635 771 472 407 623 565 790 496 397 299 203 142 182 228 108 41 39 18 24 15 4 6 33 76 27 0 0 0 0 2 2 1 18 63 157
1616 1567 1554 1398 1279 1892 1774 1441 1267 862 659 550 462 398 661 632 425 446 85 107 177 172 65 74 59 24 63 102 112 97 65 66 24 3 1 9 17 3 0 2 0 50 55

GFSSE_con_mlcape_078.txt.gz
CAPE
1142 1908 2020 2100 1994 2200 2000 1624 1171 1029 1139 1187 1060 1177 1600 1418 1336 1188 1076 1075 984 1092 865 946 1050 870 524 571 926 449 481 507 696 687 791 378 577 825 336 281 262 567 895
1277 1785 1810 1588 2004 2250 2147 1750 1422 1307 1233 1265 1181 1221 1836 1723 1382 1318 1209 1566 1117 1264 1047 1159 926 575 190 358 950 920 508 616 465 721 442 541 313 432 11 119 749 62 555
1301 1844 1672 1447 1948 2431 2359 2014 1529 1273 1233 1420 1446 1212 1788 1440 1420 1300 1261 1426 1321 1043 1019 1266 589 480 270 97 892 820 910 749 570 260 85 134 224 465 0 0 784 831 591
1457 1750 1671 1418 1798 2384 2397 2221 1713 1392 1350 1625 1736 1414 1314 1232 1204 1500 1653 1319 1460 1323 1117 1340 698 698 780 643 849 743 529 748 365 103 0 0 151 105 526 616 259 901 914
1396 1760 1739 1878 1812 2026 2276 2225 1880 1336 1483 1735 1800 1550 1625 1574 1715 1420 1361 1258 1239 1382 1364 1120 543 555 1094 927 849 713 381 459 446 0 0 0 408 826 671 167 0 757 716
1184 1770 2183 1985 1975 2141 2142 2074 1987 1502 1823 1838 1814 1466 1661 1624 1781 1478 1585 1314 1345 1425 1380 758 325 892 1000 680 792 513 293 300 477 505 111 0 0 476 523 395 720 697 902
699 1961 2303 2131 2069 2215 2208 1935 1909 1624 1908 1843 1776 1489 1497 1726 1804 1559 1415 1441 1393 1443 876 494 568 736 914 845 737 306 129 375 595 0 0 0 11 664 892 863 248 207 163
565 1243 1780 2147 2175 2145 2053 1857 1568 1817 1821 1814 1644 1445 1185 1461 1676 1526 1659 1246 1498 1542 605 488 906 724 705 528 501 60 138 647 384 0 0 107 509 1289 1222 656 198 112 699
473 560 871 1511 1820 2048 2103 1974 1936 1871 1855 1743 1611 1335 1199 1301 1203 1379 1559 1455 1293 1472 875 762 1384 1020 1055 611 378 111 62 198 278 56 0 0 323 997 1137 499 32 428 713
435 706 690 923 1278 1313 1617 1716 1627 1562 1577 1555 1382 1436 1369 1607 1612 1503 1278 1209 1305 1111 1527 691 1462 1454 1261 298 0 0 98 137 78 308 77 0 4 622 742 134 11 1 298
0 18 699 726 1028 1012 1303 1577 1841 1638 1731 1435 1339 1288 1465 1124 1342 1388 1009 1129 1211 1385 1350 1470 789 1365 759 354 281 298 452 72 89 117 85 0 0 97 365 554 469 707 125
0 0 143 626 794 779 1079 1305 1402 1370 1249 1264 1119 1361 1195 862 879 1056 956 1234 1264 1303 1365 1210 1123 814 736 323 386 569 57 37 56 117 88 0 0 261 20 0 0 78 911
0 0 0 355 876 956 998 1009 1119 1021 1024 1200 830 726 765 898 945 1214 947 1277 1268 1315 1358 1370 992 1330 646 344 170 105 65 29 9 127 175 0 0 242 297 2 147 49 0
0 0 0 31 564 672 781 889 782 575 697 569 611 897 781 543 687 762 746 783 999 1021 930 850 795 771 748 415 93 276 324 150 15 232 179 0 0 59 519 462 195 217 69
3 0 0 0 26 0 64 440 824 662 740 699 614 726 824 575 750 633 673 710 720 689 643 518 431 542 432 285 430 438 375 289 227 455 296 231 120 13 200 687 609 465 334
206 56 0 277 34 17 70 104 380 511 592 552 657 593 741 606 560 633 657 578 557 611 421 489 434 520 501 483 487 580 522 361 528 470 401 426 347 245 295 581 759 850 847
723 531 633 617 280 123 128 168 126 311 218 407 476 551 602 645 544 604 523 482 504 563 498 576 541 512 451 362 518 394 348 474 533 388 509 453 592 578 385 466 496 232 701
1210 1168 1066 986 658 404 483 132 191 201 331 345 457 638 578 683 584 441 608 514 462 471 609 612 513 516 507 443 325 382 439 581 547 442 482 481 490 569 456 459 274 189 246
1338 1346 1237 1107 816 719 514 566 550 239 483 510 707 550 486 452 485 480 402 380 429 350 470 410 308 477 234 287 381 348 364 514 477 413 517 519 559 568 484 546 459 185 222
1433 1369 1245 1077 786 448 379 561 561 495 286 314 388 400 359 111 472 465 255 327 153 16 206 349 235 440 351 201 247 245 184 224 270 306 332 327 502 595 558 379 400 286 374
1522 1437 1178 991 812 497 378 602 651 809 790 580 785 869 534 460 422 460 328 222 121 0 9 151 154 229 250 306 101 104 60 110 178 71 97 186 203 299 302 319 260 161 31
1527 1436 1274 1027 841 653 484 608 717 710 749 738 661 700 679 495 410 341 257 65 53 64 28 4 89 128 145 121 84 40 15 5 40 116 92 176 124 125 233 116 38 49 112
1393 1278 1110 987 859 800 863 819 956 985 801 882 945 823 688 590 542 440 270 170 51 88 37 5 0 19 27 58 96 31 17 1 0 49 0 54 126 88 66 65 157 166 269
1566 1285 1024 993 815 893 756 762 853 531 428 379 311 380 412 540 477 307 275 117 15 68 34 52 53 9 2 0 12 13 10 1 0 0 0 0 71 2 0 5 3 71 115
1760 1473 1165 1113 977 933 705 1380 968 538 120 417 449 472 347 458 394 251 177 147 81 107 103 76 48 3 6 15 5 0 1 30 10 3 1 0 0 0 0 2 0 31 63
1625 1444 1292 1224 1018 988 1024 1378 1166 455 517 417 428 314 262 432 360 310 146 123 103 49 89 120 45 62 71 76 57 28 5 3 21 24 23 1 1 0 0 0 2 39 38

GFSSE_con_mlcape_081.txt.gz
CAPE
825 1705 2095 2112 2067 2030 1859 1584 1651 1697 1552 1483 1787 1720 1714 1510 1339 1269 1279 1190 1099 1036 1054 1027 996 836 797 961 949 846 485 651 552 561 789 390 614 662 677 570 892 858 773
1015 2015 1999 2026 2073 2033 1910 1683 1609 1585 1554 1516 1766 1726 1586 1577 1454 1477 1552 1323 1304 1116 1017 1366 795 573 752 892 552 410 611 654 748 228 191 697 625 196 170 164 555 889 904
1300 2090 2133 2004 2187 2091 1912 1597 1543 1456 1588 1433 1527 1938 1695 1576 1573 1527 1685 1379 1534 1216 1337 831 668 261 646 991 590 599 387 862 781 673 568 344 224 0 260 767 92 589 823
1477 2105 1908 1929 2179 2223 2004 1706 1546 1373 1604 1666 1459 1862 1563 1564 1543 1604 1597 1585 1257 1226 1340 805 589 278 336 898 664 856 836 522 329 325 95 315 409 0 95 774 776 449 231
1488 1918 1587 1980 2408 2311 2063 1817 1593 1509 1757 1873 1614 1475 1334 1415 1556 1589 1559 1542 1507 1412 1531 853 770 868 821 792 654 800 563 494 99 0 0 0 154 565 497 446 845 851 814
1293 1569 1913 2005 2258 2371 2206 2009 1607 1471 1845 1831 1671 1699 1720 1703 1630 1553 1383 1402 1479 1319 1402 680 527 1135 963 787 516 506 349 414 102 0 0 419 462 626 201 0 828 746 200
1071 1615 2196 1899 2143 2304 2196 2151 1706 1530 1921 1866 1669 1724 1742 1859 1744 1474 1510 1347 1564 1447 1186 426 654 1193 754 794 639 337 274 594 427 296 0 0 433 761 174 285 698 884 567
955 1457 1962 2260 2159 2138 2104 2011 1825 1562 1938 1863 1628 1655 1753 1794 1745 1525 1715 1486 1495 1368 872 616 875 960 1017 744 528 365 378 836 0 0 14 0 564 867 924 638 158 239 24
1052 1426 1350 1772 2102 2182 2109 2036 1765 1648 1811 1818 1631 1495 1401 1529 1658 1694 1664 1348 1548 1490 630 690 1198 793 936 788 319 300 187 628 0 0 0 23 744 1349 1038 458 12 490 607
712 931 668 981 1725 1929 1850 1914 1790 1836 1810 1773 1716 1462 1308 1496 1381 1661 1526 1514 1501 1536 861 1098 1574 1237 954 681 322 110 43 495 241 0 0 0 504 1253 1005 645 239 530 644
362 563 440 441 1010 1476 1696 1888 1978 1908 1672 1617 1547 1495 1538 1464 1254 1509 1308 1182 1459 1300 1550 896 1356 1734 1300 554 250 45 38 76 131 183 137 0 69 525 789 304 24 67 911
0 147 330 421 446 880 1299 1316 1334 1335 1642 1349 1329 1238 1267 1031 1163 1264 1119 983 1416 1537 1579 1522 833 1300 1125 371 289 52 141 126 93 64 103 85 1 224 746 677 584 562 50
0 69 145 315 568 649 902 1104 1362 1264 1342 1280 1199 1126 916 828 714 1186 1034 1179 1303 1415 1475 1242 1533 818 350 305 212 174 74 28 19 14 171 165 0 73 280 499 524 716 1000
0 0 18 130 600 668 784 884 1169 914 1086 940 897 796 786 590 435 803 793 850 1083 1141 1016 1235 646 1097 850 403 110 44 164 223 1 4 156 335 0 0 494 71 0 186 170
0 0 0 36 453 663 790 724 888 838 754 767 835 705 650 540 528 677 691 745 743 914 815 596 640 456 447 443 222 152 295 357 273 164 319 460 0 0 310 487 239 320 444
0 0 0 0 293 535 579 704 762 791 479 555 492 511 736 736 524 688 601 610 611 698 624 512 357 415 485 350 122 357 408 506 346 296 411 338 138 103 87 434 527 628 503
0 0 0 0 0 86 5 31 301 627 718 683 653 615 726 731 569 564 650 599 581 561 584 370 383 437 464 442 394 406 285 377 373 496 488 351 424 546 215 311 338 288 380
5 13 0 11 36 2 2 33 78 244 390 478 619 581 605 672 635 540 552 483 514 477 482 458 431 365 353 328 346 421 324 337 407 495 376 406 294 566 558 417 305 266 212
421 243 227 395 393 155 82 154 134 142 267 301 348 428 579 655 596 587 459 494 448 395 455 471 454 492 342 260 326 268 252 299 371 401 460 385 425 451 492 408 384 321 281
799 684 738 835 636 380 422 498 377 389 213 402 456 538 565 488 605 596 352 346 252 192 271 310 346 304 330 229 231 225 175 158 149 208 306 416 432 455 514 434 423 409 419
1171 1094 1054 1014 776 566 274 308 362 459 392 374 448 513 481 373 310 164 338 258 248 110 79 152 128 175 175 268 176 75 35 68 83 76 51 93 134 216 335 331 286 232 275
1245 1194 1134 1075 736 570 181 423 474 546 618 412 410 575 718 573 436 336 382 280 168 56 4 33 156 98 91 49 57 0 0 0 0 49 67 96 86 91 140 168 98 97 66
1343 1252 1164 1081 831 664 235 460 627 706 692 771 778 756 724 713 585 475 392 322 220 75 49 14 35 70 54 45 60 5 0 0 0 3 0 20 77 53 69 88 107 84 59
1421 1305 1196 1062 901 745 505 377 505 680 675 778 762 637 696 575 607 527 456 407 233 104 39 59 22 0 1 11 17 37 0 0 0 0 0 0 33 6 0 0 2 5 41
1431 1309 1269 1162 894 789 696 593 577 633 571 408 475 466 425 446 537 419 276 258 210 92 28 14 35 43 22 1 0 0 4 0 0 0 0 0 0 0 0 0 0 12 58
1437 1207 1274 1119 909 736 800 751 571 679 642 353 431 460 352 369 413 391 302 218 189 91 16 27 37 35 22 5 1 2 1 1 0 0 0 2 1 0 0 0 0 10 59

GFSSE_con_mlcape_084.txt.gz
CAPE
624 1537 1853 1691 1520 1487 1549 1569 1464 1527 1711 1464 1273 1016 1167 1515 1554 1426 1327 1297 1194 1094 1076 1031 893 925 954 1014 810 740 944 873 657 595 821 957 1010 755 505 702 256 0 127
766 1799 1713 1758 1564 1578 1546 1719 1714 1512 1746 1807 1709 1740 1534 1398 1347 1423 1255 1208 1172 1149 1176 1047 781 979 957 939 909 563 812 585 687 673 295 394 475 521 496 944 758 784 474
1110 1963 1873 1850 1805 1643 1583 1706 1700 1563 1588 1761 1656 1681 1710 1513 1641 1433 1432 1459 1336 1253 1420 735 496 857 793 543 362 728 748 858 393 346 672 368 139 132 65 540 1021 984 619
1514 1743 2009 2011 1923 1751 1621 1602 1649 1672 1535 1793 1878 1669 1646 1626 1649 1593 1522 1710 1295 1314 841 583 295 780 1010 549 721 455 1100 873 838 696 339 163 0 146 874 85 587 750 70
1565 1730 1847 2054 2089 1807 1681 1634 1575 1752 1740 1503 1862 1549 1585 1570 1743 1626 1460 1420 1349 1425 1087 521 311 563 1025 728 980 871 634 409 448 108 157 267 0 28 823 893 558 247 341
1467 1559 1958 2148 2263 2011 1786 1611 1531 1700 1843 1574 1439 1307 1332 1513 1808 1570 1509 1604 1557 1405 1018 663 860 802 752 823 839 788 710 118 16 0 20 274 324 783 394 924 949 853 883
1264 1173 1865 2045 2260 2095 2079 1711 1520 1696 1841 1741 1656 1686 1661 1702 1580 1651 1424 1583 1383 1305 926 570 1049 1056 747 595 402 271 444 826 0 0 0 324 470 476 118 586 872 466 140
1044 1337 1862 2039 2189 2197 2178 1899 1486 1759 1847 1812 1636 1857 1772 1886 1621 1555 1397 1566 1511 1369 705 605 1298 905 841 475 356 398 738 888 647 152 34 118 637 471 75 366 865 983 437
1169 1596 1736 1915 2122 2149 2152 1995 1633 1723 1915 1847 1562 1828 1934 1962 1557 1607 1608 1593 1627 901 772 1098 993 1019 1024 544 327 436 546 453 0 13 31 0 386 811 652 685 409 365 70
1069 906 736 1182 1847 1860 1932 1977 1785 1698 1831 1806 1586 1612 1613 1750 1699 1737 1511 1496 1637 1203 612 1005 1175 969 713 561 312 164 313 516 0 0 0 0 344 1082 694 531 181 467 601
766 891 496 839 1108 1604 1791 1854 1803 1751 1692 1770 1623 1544 1505 1470 1602 1756 1139 1463 1554 1540 841 1303 1548 1334 1071 388 370 46 406 21 160 0 0 0 289 1112 675 663 277 395 576
86 445 554 227 624 981 1537 1703 1686 1678 1653 1457 1524 1418 1357 1294 1287 1273 1286 1280 1502 1343 1511 1127 1219 1695 1165 356 179 122 128 47 122 103 103 130 0 705 783 727 206 129 490
0 203 401 332 675 773 1145 1538 1628 1452 1369 1299 1267 1211 1162 900 1213 1236 1007 1224 1359 1487 1561 1318 1210 1044 858 250 54 42 72 42 72 17 88 227 166 143 600 903 454 402 329
0 49 224 303 427 694 854 1082 999 1002 1308 1193 1086 994 921 631 540 666 791 777 1124 1192 1185 1205 1152 1048 474 292 125 26 0 4 4 0 9 322 271 16 284 624 720 561 635
0 0 69 145 334 360 450 627 1091 976 1029 1014 974 928 890 675 418 435 728 809 877 1098 1039 945 1042 468 822 742 358 58 20 202 260 137 43 359 415 0 58 486 279 133 161
0 0 33 33 277 410 430 531 687 929 842 915 823 804 651 615 487 448 686 694 749 778 890 737 565 538 368 348 229 108 99 385 414 282 200 240 753 36 16 221 505 324 398
0 0 0 19 99 327 461 557 580 737 866 675 672 610 575 739 703 512 616 616 605 669 710 659 460 465 414 409 351 143 273 401 437 445 376 362 473 400 62 114 88 296 337
2 0 0 0 26 227 438 531 601 717 834 687 578 677 582 675 700 678 549 619 628 594 596 520 384 302 402 377 348 342 338 279 344 385 411 387 386 279 495 379 144 155 260
79 0 0 0 0 39 218 157 52 227 440 637 770 777 735 706 744 673 600 549 544 500 505 492 472 401 400 323 300 288 200 239 256 369 391 407 380 380 322 444 401 231 325
171 24 0 0 11 0 19 7 91 137 203 281 390 396 559 621 688 603 582 563 438 339 312 399 424 397 402 363 336 325 293 186 133 174 256 402 489 474 487 446 458 493 353
491 287 98 112 113 205 70 84 162 164 161 223 347 478 523 539 433 583 557 535 372 347 255 212 202 153 193 125 179 120 115 70 46 83 65 83 201 310 449 499 465 378 348
960 748 557 487 497 428 273 239 400 401 468 425 318 545 631 623 491 382 409 320 288 266 168 95 104 111 134 87 56 59 20 0 0 33 17 40 65 97 162 282 225 165 195
1179 1076 891 823 751 554 358 361 350 403 508 469 359 409 440 653 667 545 355 322 302 223 195 77 33 59 91 48 33 30 0 0 0 0 0 0 87 97 116 141 155 174 184
1327 1206 1072 991 878 621 416 228 353 279 375 562 638 754 775 746 636 650 407 464 396 241 153 65 14 26 55 61 28 43 6 0 0 0 0 0 14 49 37 18 13 11 27
1462 1282 1161 1054 950 738 527 282 348 357 483 555 642 696 616 445 463 460 493 364 313 232 157 113 15 20 13 9 26 31 49 20 0 0 0 0 0 12 0 0 0 5 28
1529 1380 1197 1162 1118 896 756 443 324 350 501 510 338 304 406 443 346 477 401 279 221 167 111 44 19 2 17 24 26 5 9 3 11 5 0 0 0 0 0 0 0 0 3

GFSSE_con_mlcape_087.txt.gz
CAPE
684 992 1482 1809 1649 1537 1413 1615 1785 1650 1620 1691 1479 1159 1064 1087 1170 1236 1038 1258 1374 1155 1026 996 749 986 1009 951 1117 1001 1101 915 773 753 774 853 992 550 301 209 190 18 273
846 1202 1705 1321 1358 1384 1538 1584 1809 1765 1551 1474 1268 1155 1315 1499 1641 1332 1313 1262 1215 1117 1149 912 951 1027 1022 848 863 1030 889 745 681 934 1003 1034 958 652 951 783 262 37 106
1004 1256 1360 1337 1307 1498 1547 1629 1708 1939 1744 1786 1565 1611 1578 1558 1525 1293 1267 1251 1183 1412 997 816 1001 956 865 807 562 750 632 695 534 444 243 0 132 374 850 799 1001 981 782
1213 1156 1175 1522 1549 1545 1668 1640 1623 1756 1854 1894 1869 1822 1607 1655 1547 1481 1325 1158 1145 1164 717 426 878 933 515 422 821 874 892 548 731 878 62 0 0 81 344 1038 1191 656 600
1349 1051 1250 1644 1642 1566 1635 1670 1609 1556 1990 1962 1757 1763 1672 1696 1639 1563 1446 1371 1400 918 454 289 748 1068 719 834 598 1254 887 764 714 325 175 0 0 852 177 689 562 242 0
1215 1143 1734 1768 1769 1684 1655 1663 1639 1465 1558 1985 1688 1682 1578 1712 1637 1487 1409 1413 1349 1167 434 323 581 1012 731 1054 906 620 435 445 212 251 307 139 0 302 931 1062 319 423 580
1321 1227 1801 2075 1801 1770 1721 1652 1650 1655 1417 1389 1458 1268 1503 1884 1640 1577 1576 1589 1471 1256 582 866 732 794 777 842 807 748 434 157 0 0 125 158 477 349 964 966 853 968 992
1260 1109 1756 2151 2016 1701 1725 1639 1672 1790 1685 1521 1517 1350 1700 1527 1722 1411 1581 1528 1330 1241 548 968 1146 829 668 538 349 387 566 824 93 123 0 289 593 457 118 968 858 425 65
1354 1349 1854 1994 2001 2063 1770 1613 1628 1763 1709 1614 1914 1649 1589 1719 1628 1654 1505 1575 1479 991 456 1191 1154 849 611 499 539 541 619 589 610 376 204 2 602 554 170 542 979 1056 432
1466 1543 1812 1991 1660 1841 1841 1677 1627 1811 1865 1841 1773 1831 1927 1867 1497 1890 1485 1482 1616 699 638 1200 1077 1081 985 597 362 262 431 448 132 279 54 0 8 744 913 773 403 406 101
1291 1459 1362 1712 1696 1718 2086 1903 1709 1818 1807 1741 1644 1673 1564 1475 1497 1657 1139 1581 1673 744 729 1074 961 1069 740 506 349 188 416 426 136 146 82 0 3 607 1229 560 487 283 794
764 1200 1304 1118 1504 1446 1802 1865 1818 1616 1680 1531 1440 1539 1443 1594 1485 1555 1303 1451 1557 1433 742 1420 1479 1310 803 214 219 149 438 381 594 584 416 0 1 352 1279 597 638 404 438
484 788 1050 961 1238 1556 1565 1674 1669 1696 1667 1800 1886 1905 1631 1612 1610 1426 1297 1102 1418 1258 940 866 997 890 456 230 169 215 273 343 403 582 338 204 264 183 692 927 753 401 312
260 507 897 783 967 1309 1477 1346 1502 1618 1716 1488 1645 1876 1576 1345 1670 1561 1141 1371 1517 1365 1460 857 688 911 911 624 80 108 260 173 260 336 234 220 485 448 291 728 1046 640 455
48 203 643 799 838 1130 1392 1334 1684 1638 1549 1436 1563 1589 1444 1169 1093 1164 1078 893 1223 1276 1397 1376 1136 997 699 444 248 268 169 207 295 533 416 314 616 584 163 413 832 952 783
67 6 410 583 814 1037 1162 1448 1381 1164 1216 1602 1418 1332 1453 1223 1047 760 1113 1253 1163 1372 1481 1222 1345 997 717 777 647 574 394 265 626 885 616 626 518 651 293 116 367 548 569
109 0 151 370 710 765 793 860 871 1277 1360 1306 1316 1373 1124 1148 1134 941 771 954 1191 1243 1491 1487 1308 1103 926 904 712 424 359 344 886 1074 1215 953 942 762 605 97 87 279 323
115 7 0 263 396 675 763 813 766 796 1030 1065 1242 1019 1258 1159 1099 1077 999 1089 1056 923 950 1206 997 686 815 1058 1060 826 417 703 928 1044 1021 1139 1057 972 966 481 131 106 173
265 46 0 114 211 474 746 820 1030 1171 1201 1334 1190 982 876 766 995 1113 1116 1039 869 891 1045 907 980 961 766 657 695 951 1075 862 920 821 945 1104 1120 1049 947 870 675 480 370
397 131 0 0 69 384 639 805 955 957 1022 1098 1192 1140 1269 1090 754 729 882 865 643 1029 869 1088 1043 922 855 841 646 557 490 634 901 843 875 948 1068 1176 1194 1231 1178 997 610
480 277 60 0 64 94 322 414 407 203 296 624 826 1098 1034 1131 929 958 239 565 640 692 682 523 640 418 531 694 381 474 525 801 722 599 696 742 855 1084 1254 1342 1499 1280 1226
785 523 297 81 266 158 156 219 251 373 537 519 638 902 1105 967 976 749 616 521 680 477 366 191 243 228 294 439 263 275 82 146 238 343 507 601 689 768 767 998 1162 1226 1084
1203 936 684 438 414 478 621 502 560 716 882 663 729 751 1009 1137 1136 1026 871 719 698 727 683 567 294 113 89 258 456 144 70 14 109 185 283 333 551 722 760 988 1017 959 935
1422 1368 1112 954 829 811 885 709 551 463 579 797 913 832 941 979 1027 1041 985 794 790 814 748 822 296 71 12 11 96 168 110 129 26 11 194 191 210 400 681 735 563 468 431
1692 1564 1459 1365 1195 1130 998 901 739 632 742 1019 1077 1037 1286 1288 1156 779 979 855 862 751 594 587 426 99 5 0 15 130 143 145 119 47 0 27 70 188 370 331 195 123 125
1900 1800 1646 1545 1441 1297 1175 969 710 697 716 783 1068 1174 1177 1148 1102 999 852 741 647 563 421 312 235 99 2 1 23 30 47 51 105 75 14 29 33 33 133 197 62 11 23

GFSSE_con_mlcape_090.txt.gz
CAPE
466 989 1805 1791 1468 1522 1599 1619 1664 1667 1455 1146 1159 1205 1392 1364 1157 1109 984 1341 1269 1038 591 614 986 940 769 883 1006 883 1126 1140 827 962 821 891 778 657 1040 758 274 2 970
533 1004 1949 1910 1579 1475 1799 1894 1858 1977 1751 1511 1230 1183 1201 1302 1338 1540 1157 1135 1208 1116 1191 795 986 1166 1052 1226 1124 1048 988 829 768 784 920 958 906 518 17 0 9 5 576
603 960 1673 1782 1692 1590 1685 1866 1796 1799 1842 1705 1287 1178 1397 1626 1749 1291 1160 1286 1177 1366 1136 1193 1156 1156 1082 961 1041 929 1009 859 1066 1058 1036 307 129 1065 875 978 89 602 621
657 856 1060 1375 1557 1742 1694 1865 1870 1676 1683 1632 1640 1739 1856 1886 1416 1203 1340 1271 1347 1192 992 1089 1152 937 872 659 855 758 653 604 811 253 13 1 0 726 963 1282 1077 1117 1027
747 756 1043 1320 1501 1660 1605 1702 1980 1903 1847 1954 1833 1750 1679 1653 1514 1274 1311 1315 1101 872 497 995 1222 587 493 962 1012 1042 1032 1087 874 442 0 0 5 17 736 1148 662 113 553
715 693 1306 1415 1491 1727 1623 1533 1781 1992 1984 1848 1862 1701 1776 1829 1650 1457 1188 1410 1231 527 408 825 1146 1056 1116 654 1205 917 628 621 217 45 32 0 26 554 763 326 83 0 42
792 801 1226 1520 1495 1636 1584 1606 1580 1869 2066 1859 1727 1649 1621 1871 1716 1630 1437 1441 1370 602 497 615 1289 896 1205 954 760 407 372 16 8 87 203 107 316 887 1117 1034 612 1016 890
837 926 1141 1662 1552 1545 1549 1729 1702 1470 1616 1908 1443 1580 1813 1719 1669 1709 1676 1602 1549 730 1009 848 1103 766 919 922 844 728 600 254 4 0 41 219 523 323 749 1265 753 559 988
950 959 1377 1567 1532 1622 1584 1604 1757 1799 1333 1422 1267 1386 1710 1725 1615 1525 1546 1527 1491 742 903 1229 1070 859 694 558 525 511 715 764 836 38 0 25 109 232 90 356 820 828 145
1108 1022 1392 1693 1500 1447 1159 1594 1649 1675 1521 1669 1782 1791 1687 1473 1601 1362 1440 1346 1577 713 891 1637 1117 875 623 616 657 590 480 473 243 18 48 0 4 604 567 812 544 999 276
1180 1271 1493 1680 1839 1690 1640 1492 1474 1728 1764 1633 1665 1315 1378 1322 785 1440 838 1317 1112 717 1015 1281 1178 1115 855 603 439 288 200 195 45 91 156 0 0 412 991 563 521 344 514
941 994 1328 1391 1663 1802 1604 1650 1311 1377 1457 1406 1126 1421 1220 1058 1266 1106 846 1570 1529 546 882 1245 1069 1214 561 199 171 145 208 85 110 154 430 46 0 131 784 645 481 351 256
773 953 1094 1158 1428 1449 1198 1423 1389 1406 1218 1145 1247 1339 1192 1242 1386 1057 1217 936 1067 1160 218 791 1117 262 78 134 184 154 402 236 188 240 579 282 70 232 406 1172 699 690 416
673 872 1157 996 965 1122 978 1200 1160 1174 1220 1280 1436 1665 1258 1172 1146 1055 1080 1105 1153 492 384 298 86 156 224 337 271 285 492 350 133 419 592 199 392 525 579 665 1000 833 374
690 816 1054 903 1049 995 1015 916 966 1059 1152 1137 1161 1717 1378 1107 1147 1147 1039 1106 1211 1201 1106 413 376 261 527 426 223 147 253 345 311 345 583 430 369 587 703 591 851 1132 846
483 766 1092 1017 1157 1016 972 980 1115 1209 1196 1074 899 1239 1486 1047 1025 916 932 835 858 1069 1131 926 338 454 375 222 54 35 104 128 240 275 493 796 494 528 586 517 385 858 1052
531 462 1010 1073 1018 1101 1005 1200 1219 999 996 973 989 1049 1462 1398 1188 875 713 1084 1044 1053 1133 1058 973 863 306 191 236 268 208 214 120 387 721 770 840 708 665 534 305 237 555
861 569 735 895 876 1119 1000 993 882 660 647 660 691 1061 1200 1151 1323 1227 874 793 1254 1512 1508 1168 864 758 631 307 194 176 135 145 98 583 956 881 743 719 989 692 447 173 138
1054 924 425 985 850 1014 1008 808 767 749 883 725 672 781 1042 1011 1121 958 893 878 1484 1264 1404 1053 1012 642 593 948 971 779 380 169 147 328 628 787 863 824 635 1060 812 494 236
1186 1062 472 968 1042 1073 961 966 833 925 1028 942 970 850 944 1143 1015 955 1032 1224 1518 869 1094 1228 1170 1132 922 902 894 579 911 684 194 288 597 804 812 868 1102 1068 1348 1175 726
1402 1230 912 663 1223 1124 963 838 752 1030 1019 1073 993 1033 1353 1319 1465 1346 1156 653 1011 488 586 1168 1170 1180 887 885 953 612 634 754 672 792 860 742 797 878 1079 1157 1434 1122 981
1523 1441 1176 738 706 1203 1040 952 771 655 476 549 658 879 1414 1385 1542 1521 1247 1112 246 678 703 537 906 740 669 979 392 360 346 256 345 646 531 360 555 682 761 1086 1113 1224 1368
1628 1576 1419 980 769 1056 983 1066 984 743 691 682 701 818 1156 1287 1398 1384 1298 1310 1277 734 730 1006 626 541 300 420 489 393 289 100 119 379 546 430 353 595 601 615 894 1171 1250
1848 1775 1657 1432 1092 1335 1215 1138 1027 707 548 570 692 750 850 1019 1392 1396 1435 1255 1252 686 740 805 1060 873 743 535 368 423 645 344 329 96 238 390 622 793 727 810 772 962 997
2126 2008 1860 1822 1536 1587 1628 1586 1376 896 559 754 763 916 1058 1162 1427 1382 1391 1358 1471 1224 1039 1139 1074 961 914 598 65 61 48 490 347 73 21 215 466 341 294 592 587 699 676
2307 2200 2169 2199 2063 1959 2000 1907 1591 1050 689 632 836 833 944 1012 1215 1404 1241 1100 1257 1155 983 926 901 902 867 409 92 22 12 62 192 277 207 149 104 179 190 274 327 422 349

GFSSE_con_mlcape_093.txt.gz
CAPE
545 984 1797 1389 1531 1607 1536 1337 1099 1063 1210 998 1152 1344 1348 1278 1207 1201 1285 1372 1086 707 852 827 727 523 757 823 875 1008 1215 989 1033 1053 1001 995 1275 1302 1098 1073 365 12 1137
736 1095 1829 1583 1592 1625 1730 1756 1591 1411 1485 1066 1344 1276 1195 1306 1203 1010 1371 1342 1217 1075 724 1161 1078 1040 1077 1103 1081 1194 1051 788 691 942 991 770 334 405 114 233 7 917 986
858 1165 1463 1636 1678 1825 1839 1808 1905 1814 1709 1396 1500 1136 1341 1415 1384 1248 1296 1257 1245 1337 1032 950 1329 1151 1291 1263 1129 861 865 1032 1162 1012 750 55 482 679 813 47 47 354 1094
766 1067 1260 1717 1656 1814 1976 1861 1948 2013 1962 1648 1406 1375 1525 1731 1424 1063 1368 1326 1303 1348 1224 1187 1208 1228 1004 1236 818 1265 864 519 266 950 722 11 30 869 1093 981 931 971 378
676 823 1319 1712 1721 1651 1854 1933 1864 1907 1846 1581 1558 1821 1962 1736 1317 1369 1376 1411 1107 1112 1008 1299 1062 865 719 880 912 638 682 976 400 494 23 1 0 756 996 826 439 800 851
644 651 1374 1719 1684 1573 1657 1896 1842 1901 1921 1756 1679 1686 1629 1582 1505 1276 1282 1363 1246 661 629 1112 674 483 1048 1130 854 1354 851 306 414 40 2 5 0 113 863 347 0 298 546
595 1449 1256 1530 1815 1798 1485 1739 1957 1923 1917 1907 1879 1828 1837 1852 1666 1562 1319 1455 992 571 553 1254 1124 1183 716 1122 870 416 0 132 554 126 0 306 690 977 925 221 506 306 643
558 1295 920 1522 1755 1815 1716 1719 1869 2195 1992 1862 1740 1727 1849 1762 1582 1519 1534 1502 1198 656 526 1247 1083 1160 972 704 389 412 29 74 21 31 24 820 49 1183 1053 1081 880 1046 670
572 929 901 1289 1289 1634 1681 1740 1594 1638 1951 1962 1637 1760 1911 1813 1701 1622 1648 1596 1209 849 1199 1257 954 952 1059 809 731 734 542 516 1150 15 25 594 0 71 283 1008 985 221 73
766 944 958 1058 1088 1152 1151 1690 1802 1674 1334 1428 1276 1445 1697 1832 1610 1593 1467 1438 1417 738 1181 1440 1091 801 759 638 674 782 334 282 809 20 20 165 0 0 165 503 945 912 360
734 1255 1365 1320 1293 1147 1038 1113 1512 1797 1504 1540 1551 1562 1679 495 1012 1194 837 1176 1470 627 1176 1218 1186 948 735 630 695 583 280 281 306 42 69 0 0 456 1051 1005 276 188 158
879 769 1381 1485 1506 1420 1196 1402 1009 1200 1371 1166 1235 1226 1186 951 623 874 751 1442 1003 597 1157 1439 1313 1213 617 221 229 260 193 489 58 46 275 3 0 189 746 1102 624 211 149
933 670 1193 1430 1285 1503 1265 1416 1216 1116 1197 1290 1205 1383 1011 689 857 1031 900 998 1247 607 309 1053 896 499 94 287 218 0 73 65 90 88 530 135 40 137 219 1024 544 484 250
670 790 1063 1280 1424 1365 1290 1218 909 1117 1045 1188 1118 1232 1325 990 601 1100 752 534 952 684 69 301 180 75 82 58 312 135 313 68 39 271 757 201 137 245 513 465 1050 780 658
766 784 955 1246 1543 1234 1184 1059 1095 836 1202 1105 1292 1553 1450 1250 1179 1153 766 871 1021 741 732 470 197 112 203 334 175 223 189 315 216 270 790 477 305 386 588 668 581 1029 969
787 757 1233 1167 1253 1144 1222 1390 1150 1003 907 992 1139 1567 1697 1403 1349 1285 903 1047 1047 994 924 939 308 424 309 312 335 151 73 197 230 295 211 1071 491 320 445 699 530 669 1213
704 882 917 1164 1313 1294 1229 1292 1187 945 853 787 845 1317 1718 1367 898 1167 793 832 863 1236 999 999 920 348 395 201 183 176 27 52 68 148 176 547 830 553 523 541 514 355 595
630 989 1033 944 1115 1450 1289 1155 996 915 712 959 507 977 1202 1388 1405 1330 1011 647 1212 1430 1324 1236 1179 830 876 439 242 105 207 135 243 220 280 625 629 892 766 861 507 399 232
935 1104 1304 1079 1028 1352 1412 1184 1008 1098 912 523 611 407 1531 1445 1284 1288 1140 848 1453 1484 1443 1372 960 865 643 517 648 741 460 160 164 73 113 343 789 506 902 955 720 570 390
1130 1275 1369 1415 1198 1449 1317 1090 973 815 755 849 989 712 1356 877 944 1183 857 1075 991 1318 1111 1287 1202 1183 1199 706 751 582 720 701 587 404 220 558 793 779 871 1210 1319 1051 802
1269 1692 1441 1787 1586 1331 1176 1031 776 533 857 849 777 1118 1135 1320 975 1161 966 1019 1671 877 1091 1390 1440 1517 1321 1258 1029 792 818 1091 889 557 375 525 367 724 797 961 1380 1334 1362
1456 1826 1632 1806 2096 1588 1150 1006 704 703 550 1094 1145 1025 1186 1083 1193 1169 1104 1345 1228 1008 675 737 1321 1227 1233 1051 925 650 515 428 495 622 592 611 831 783 970 995 1005 1530 1231
1645 1961 2039 1780 2358 1949 1424 1321 1108 983 845 594 604 1159 1291 1236 1126 1215 1269 1326 1120 1102 189 1286 656 682 668 652 828 568 399 200 389 401 784 551 422 336 357 711 1020 1047 1182
1584 2024 2263 2062 2089 2331 2155 1361 1218 884 724 512 585 671 898 1097 1198 1181 1305 1200 1312 1232 821 813 1308 1040 727 489 555 612 536 362 308 351 461 386 558 737 809 863 678 859 1441
1649 1918 2270 2371 2110 1996 2168 1623 1511 1132 721 653 617 865 962 1475 1183 1258 1400 1367 1492 1301 1018 1144 1065 982 947 882 658 611 559 663 695 423 413 297 561 630 436 691 373 951 1276
2060 1934 2098 2582 2317 2308 2302 2265 1847 1482 1103 663 737 765 978 892 1203 1361 1361 1213 1246 1397 1440 1311 895 838 1081 1081 781 681 414 260 173 372 216 141 141 428 249 350 545 485 630

GFSSE_con_mlcape_096.txt.gz
CAPE
797 1206 1441 1555 1537 1209 1053 922 1124 1093 1175 1138 950 1032 852 1245 1103 1277 1344 1211 868 951 823 437 363 487 736 719 774 837 854 700 1039 985 1320 1299 1250 1266 968 628 19 722 29
856 1316 1372 1575 1642 1439 1233 1180 1257 1326 1044 1242 1291 1231 1120 1251 1192 1272 1459 1225 823 801 984 897 589 767 822 928 1194 1100 781 931 777 871 788 614 873 257 275 844 518 1057 370
902 1269 1247 1541 1727 1655 1608 1545 1385 1430 1293 1382 1454 1427 1269 1166 1263 1152 1312 1286 1257 917 911 1107 1204 1290 1318 1194 1119 740 748 712 1010 1021 541 11 34 688 34 131 978 1014 438
925 998 1122 1540 1770 1824 1657 1741 1865 1718 1446 1443 1440 1288 1343 1568 1540 1336 1389 1287 1368 1228 921 973 1234 1209 1317 1106 866 896 978 1089 698 966 797 59 47 886 508 1043 296 602 839
888 721 1243 1622 1764 1863 1766 1790 1966 1994 1762 1641 1567 1475 1629 1309 1287 1387 1336 1273 1466 1265 1202 1141 1273 1115 1302 775 1000 744 0 47 201 654 830 5 400 1070 1031 794 863 704 467
663 857 1393 1615 1586 1786 1867 1749 1934 1978 1900 1648 1691 1943 1962 1531 1419 1275 1499 994 1071 930 1216 1037 795 624 697 1126 561 433 240 560 824 610 29 2 428 1086 1017 1 704 720 177
636 1522 1299 1538 1519 1663 1774 1624 1812 1795 1715 1746 1716 1680 1659 1606 1465 1470 1408 1341 853 462 1338 940 421 778 1134 961 1275 492 53 0 338 147 434 13 61 532 334 178 0 142 29
1556 1364 1355 1581 1610 1590 1739 1864 1736 1750 1803 1948 1860 1829 1792 1794 1544 1427 1378 1469 792 456 1009 1157 1131 837 1150 995 71 0 0 0 450 204 630 526 747 959 654 551 963 737 749
1323 1057 1344 1527 1695 1680 1561 1794 1875 2085 1862 1728 1606 1606 1692 1790 1627 1574 1608 1456 1054 797 779 1109 1194 1085 789 486 485 95 132 311 751 468 684 59 406 669 1144 696 246 883 345
1185 929 1041 1224 1458 1451 1644 1719 1646 1815 2041 1821 1626 1698 1661 1737 1674 1588 1332 1295 1190 1054 1027 1271 937 1098 926 705 604 225 209 430 513 660 214 0 0 0 547 465 935 185 2
1167 1028 1022 1218 1268 1257 1230 1701 1677 1562 1423 1608 1258 1229 1651 1492 1352 1430 1221 1341 1321 624 1261 1401 972 947 759 606 549 376 596 318 364 449 27 0 0 5 405 619 960 744 170
1049 1100 1088 1156 1287 1226 1042 1201 1447 1341 1432 1263 1416 1441 1519 883 1016 1161 895 1213 1477 584 1258 1270 1198 927 684 364 215 342 176 233 674 103 14 2 0 157 969 945 447 128 62
1190 1201 1415 1387 1267 1308 1222 1410 1086 1195 1333 1231 1246 1266 1342 800 1080 859 944 1357 1010 548 868 1304 1290 1066 502 468 194 161 44 70 169 282 44 23 89 180 549 993 775 421 64
1249 1209 1662 1670 1486 1523 1404 1409 1291 1106 1196 943 1230 942 1116 750 678 960 717 1249 1198 518 231 817 672 522 432 152 112 248 160 90 100 650 203 87 113 159 192 276 822 521 485
1064 1306 1407 1709 1421 1398 1225 1371 1222 1008 1289 1129 1436 1047 979 808 411 703 831 737 938 774 249 384 603 201 90 366 333 360 183 256 326 764 334 236 163 212 342 450 404 818 715
1100 1492 1420 1763 1759 1391 1284 1229 1085 1208 1382 1367 1435 1420 1289 1102 903 650 778 704 555 1139 854 344 881 360 569 172 169 143 148 137 257 504 783 601 419 318 360 527 477 536 848
1038 1410 1542 1748 2023 1207 1402 1088 1187 1279 852 1552 996 1239 1088 1277 1031 754 998 817 701 1161 946 1020 980 1066 217 295 579 280 101 87 126 250 449 999 641 586 400 382 653 542 477
1214 1775 1656 1546 1715 1451 1225 1290 1329 1194 1076 616 1151 1104 1180 933 924 1060 1054 1048 948 1053 866 1028 1052 635 344 613 281 291 182 77 44 84 216 393 815 1008 593 487 562 536 407
1289 1383 1811 1488 1617 1602 1536 1769 1238 1131 893 1104 860 1111 1449 987 1061 857 1061 815 921 1186 1358 1101 985 1019 858 607 585 513 476 556 398 370 286 77 657 828 893 856 729 600 512
1407 1658 1634 1817 1627 1812 1877 1666 1180 1145 1191 719 979 703 1140 1306 1402 1247 1047 1020 964 859 984 1300 1137 1172 625 447 637 704 534 628 340 309 604 228 451 568 976 1077 966 889 725
1615 1710 1777 1760 2139 1951 1779 1347 1409 764 1253 797 735 907 794 932 1243 1341 964 939 845 755 912 1056 1073 848 803 967 602 562 752 839 1027 1145 909 336 462 623 594 1030 1067 1051 1206
1839 1699 2021 1931 1945 2056 1724 1298 1165 1418 986 739 917 883 1190 895 1072 1220 1365 1296 1147 1489 906 1276 1201 789 729 793 595 219 117 330 850 771 444 793 608 635 414 864 1237 1057 1178
1774 2095 1912 2383 2047 2025 1883 1616 1291 1132 1255 916 854 976 1146 1228 1247 1068 1253 966 1414 1377 1074 785 799 878 549 538 752 353 187 125 280 744 874 598 438 866 715 644 1053 1175 1302
1862 2489 2265 2410 2540 2032 1725 1520 1449 1176 952 1120 1393 1289 1359 1400 1433 1100 949 1223 1429 1568 1057 742 885 953 509 430 492 499 390 358 199 136 597 649 294 295 818 1159 1325 1364 990
1915 2383 2719 2275 2925 2342 2093 1650 1438 1137 1210 858 892 870 1375 1171 1446 1269 989 845 947 1272 877 694 835 1102 903 758 492 505 493 364 224 225 162 191 394 275 553 635 526 851 1377
2119 2341 2596 2701 2581 2831 2363 2271 1687 1458 1148 1002 697 1063 1071 1402 1224 1350 1348 971 1054 1256 1163 866 859 862 616 654 571 165 280 219 178 181 150 108 219 98 562 296 280 831 892

GFSSE_con_mlcape_099.txt.gz
CAPE
628 1035 1282 1354 1251 1226 1122 1449 1279 1127 958 1140 744 1187 1039 977 1386 1124 983 962 832 685 527 489 365 608 370 297 473 674 622 870 637 654 1073 1121 1008 911 874 445 0 0 41
769 1274 1369 1444 1459 1209 1117 1184 1161 1345 1189 1352 1225 1339 1045 1224 1482 1396 972 897 961 831 455 365 460 750 655 737 729 675 860 881 985 1163 1032 637 542 854 337 1084 302 627 1016
720 1244 1539 1580 1577 1361 1093 1195 1354 1191 1437 1483 1501 1583 1146 1127 1319 1436 1382 1180 740 1113 912 705 859 869 1156 1005 790 634 694 785 993 301 181 216 262 644 995 1039 835 208 698
840 1082 1506 1735 1767 1695 1610 1583 1576 1483 1584 1651 1657 1492 1558 1374 1365 1332 1378 1298 1190 826 1023 1065 1195 1308 1202 1026 609 966 824 684 340 428 0 144 270 547 385 1114 1023 567 449
696 1068 1413 1792 1768 1751 1796 1835 1795 1745 1610 1720 1352 1538 1736 1683 1522 1537 1421 1427 1277 1074 728 972 1003 1260 1075 1136 665 673 382 336 236 358 665 151 546 1041 961 656 503 851 470
657 1058 1682 1743 1653 1607 1802 1828 1885 1745 1731 1778 1613 1701 1730 1589 1382 1548 1473 1276 1275 1313 1186 1200 1078 1009 636 377 500 0 249 224 572 730 51 547 574 572 457 1146 1041 770 784
754 1087 1656 1661 1694 1533 1755 1913 1960 1938 1773 1645 1906 2125 1634 1684 1538 1507 1191 1057 736 948 1173 959 491 604 1060 374 213 365 483 291 303 10 179 194 653 544 146 725 678 44 72
875 768 1200 1476 1442 1485 1535 1781 1861 1744 1764 1811 1740 1725 1731 1756 1462 1511 1515 1306 555 701 942 683 444 1121 848 852 313 0 0 13 315 290 10 1 178 275 255 49 201 368 55
1072 645 826 1040 1120 1417 1559 1521 1612 1721 1828 1862 1893 1871 1745 1775 1516 1458 1316 1322 666 541 1350 1130 1142 988 996 219 0 0 0 303 643 566 366 210 529 560 552 1245 980 524 505
983 586 847 887 1035 1263 1584 1788 1687 1860 1706 1751 1788 1803 1721 1781 1676 1669 1364 1266 868 583 1279 1166 1252 869 535 191 9 29 262 552 581 518 175 12 515 939 842 425 430 602 29
889 734 1024 1019 833 1047 1279 1597 1754 1842 1946 1690 1625 1662 1758 1484 1475 1575 1034 1369 1083 1239 961 1268 936 1181 561 357 342 231 395 179 186 294 0 58 114 545 716 563 809 120 21
804 631 867 919 765 1022 1366 1436 1153 1243 1425 1596 1156 1241 1259 1201 1167 1155 1136 1460 1348 532 1347 1471 995 997 653 367 279 305 249 31 109 175 1 5 0 0 81 386 855 455 81
785 654 761 683 670 813 952 1170 1325 1289 1142 940 848 935 1117 1195 996 1167 1081 1406 1350 627 1088 1211 1284 751 399 305 223 95 43 29 43 65 9 18 5 263 387 482 320 157 12
951 782 747 662 599 655 909 832 818 1097 1034 1065 1189 1121 1110 712 772 875 888 1112 730 212 392 981 1003 571 353 214 307 202 185 159 228 21 22 233 212 425 467 578 423 283 111
1154 1085 1012 794 766 663 1208 817 543 868 995 781 996 913 1083 683 462 765 554 1036 772 385 157 837 572 210 99 271 233 96 219 241 558 186 102 414 441 455 522 338 364 387 377
1241 1329 1324 1171 961 988 1220 1015 859 905 845 774 978 890 776 714 374 498 697 865 905 675 42 357 399 320 170 127 185 183 174 95 237 452 200 340 400 378 460 438 547 679 595
1288 1428 1556 1426 1116 1178 1005 1041 785 1153 996 872 1065 980 810 724 578 215 536 601 763 716 666 348 400 746 412 225 148 208 108 25 34 178 557 375 595 452 418 360 596 505 851
1306 1418 1717 1743 1292 1154 986 829 967 1068 973 980 1061 1079 837 850 949 487 556 569 612 546 990 803 765 559 517 363 239 393 170 90 14 5 84 776 559 641 438 555 523 566 342
1545 1456 1534 1929 1623 1161 1135 882 795 985 963 943 939 869 909 773 914 852 750 858 715 793 871 770 774 736 527 431 570 570 241 96 95 65 15 67 487 702 693 636 482 570 557
1429 1567 1469 1804 1840 1344 1117 1300 854 1270 1017 726 742 842 1008 658 539 688 639 934 1085 802 814 951 802 812 591 328 426 363 637 581 351 294 237 176 99 209 772 760 701 649 691
1526 1581 1546 1508 1650 1497 1147 1280 940 962 862 801 860 809 905 866 697 518 513 588 854 1018 841 829 534 625 748 651 480 243 295 516 813 522 282 358 443 100 650 568 771 790 701
1319 1647 1755 1594 1575 1512 1431 1276 1172 765 786 624 791 807 934 873 838 898 640 618 780 669 736 672 714 819 695 745 605 269 99 101 256 581 633 663 558 397 360 464 911 965 745
1379 1402 1786 1892 1613 1719 1557 1238 1283 846 532 801 783 634 928 761 771 753 826 756 840 649 604 730 879 763 608 558 719 163 90 30 119 137 176 418 443 429 505 458 717 845 916
1431 1608 1446 1771 1923 1735 1512 1282 1053 1031 942 890 717 595 921 757 638 596 817 826 1101 1139 1161 1053 882 1048 1001 207 286 646 288 215 97 50 201 462 661 419 495 476 577 842 1199
1648 1672 1741 1668 1965 1885 1651 1328 1026 817 966 991 759 637 726 924 905 878 762 799 552 790 990 992 678 520 239 214 155 131 195 174 235 232 59 18 117 267 264 88 43 979 1093
1835 1697 1815 1968 1817 1797 1650 1581 1197 958 941 909 1080 946 983 1049 1164 1149 986 753 719 779 610 658 812 768 483 536 288 277 380 194 115 61 45 31 31 105 181 96 274 525 901

GFSSE_con_mlcape_102.txt.gz
CAPE
231 941 1446 1333 1196 1450 1623 1321 921 1110 1081 1598 1635 1811 1300 1410 1330 1264 1088 900 673 916 689 276 402 368 282 481 809 955 777 369 336 497 931 857 739 621 332 265 344 544 483
349 1091 1383 1356 1449 1641 1698 1427 1257 1075 941 1404 1305 1406 1523 1468 1192 1176 1139 950 813 722 718 557 666 723 456 343 865 531 735 628 809 946 840 665 885 680 76 0 270 217 150
379 1146 1362 1518 1748 1631 1585 1384 1278 1077 1141 914 1412 1335 1625 1594 1434 1207 1126 1066 785 557 528 583 681 545 599 591 810 935 1069 782 1013 887 684 547 541 914 911 345 1098 1034 215
413 1142 1344 1510 1713 1406 1393 1287 1191 1402 1441 1379 1561 1270 1160 1603 1525 1387 1193 985 1346 978 883 1005 1202 1306 947 859 806 789 1134 626 401 490 239 136 728 1031 931 519 465 918 1150
629 1087 1304 1558 1611 1421 1484 1533 1421 1666 1719 1683 1553 1686 1414 1573 1449 1345 1594 1269 959 1294 1276 1325 1398 1291 1216 712 1092 673 306 506 438 177 157 264 471 512 1151 1029 624 289 320
542 1021 1746 1856 1637 1535 1459 1572 1677 1571 1755 1727 1653 1825 1812 1615 1653 1459 1534 1360 1332 926 1158 1167 1344 1112 1206 1070 793 535 293 293 367 636 214 501 773 853 695 583 850 501 0
475 1115 1812 1950 1965 1966 1925 1860 1839 1763 1868 1798 1825 1923 1704 1557 1860 1625 1513 1426 1510 1341 1178 1279 1019 1051 530 591 485 344 358 403 129 172 444 456 268 667 1338 1149 661 761 200
394 1083 1643 1965 1935 1966 1932 1954 1832 1764 1803 1761 2229 1869 1813 1791 1691 1429 1327 859 1014 1434 1346 690 685 546 1185 739 513 377 128 281 449 195 486 522 531 317 917 851 178 163 27
565 796 1408 1842 1680 1714 1839 1894 1841 1738 1881 1906 1820 1842 1996 1649 1665 1583 1567 880 444 1307 970 423 1021 914 975 737 146 0 47 353 768 99 237 422 301 249 93 172 520 3 980
687 637 959 1322 1392 1504 1718 1794 1706 1585 1583 1903 1838 1965 1869 1676 1502 1392 1434 1083 339 1334 1375 1476 980 1224 874 106 0 33 316 573 565 311 69 159 151 392 911 760 831 488 541
638 673 885 729 847 1030 1271 1516 1701 1618 1903 1701 1786 1813 1755 1462 1569 1697 1332 1307 604 823 1306 1430 1268 581 336 270 353 311 471 199 101 368 442 288 856 1000 1067 569 936 344 6
632 540 710 588 527 826 1395 1450 1739 1608 1532 1410 1586 1596 1502 1333 1112 1446 1151 1519 859 1017 1268 1426 1051 1155 572 221 342 505 154 131 231 240 195 5 961 1543 1106 572 482 57 2
750 481 630 613 454 479 898 1407 1344 1470 1401 1286 1119 1210 1145 985 1172 1224 927 1391 1126 1062 1188 1512 931 693 445 310 103 22 10 17 5 50 14 8 472 1399 593 292 990 478 215
698 328 472 636 415 398 599 978 831 978 1075 1152 789 799 883 982 982 1028 777 1170 1050 357 778 840 764 456 200 198 164 305 170 180 103 40 10 17 23 301 848 466 496 203 9
813 576 438 568 390 420 448 736 552 568 695 542 722 651 751 837 577 786 799 945 833 330 98 603 561 323 66 50 172 199 66 61 285 34 13 11 5 314 724 856 374 210 68
949 710 408 416 341 471 472 408 405 546 585 713 822 880 983 794 449 706 698 761 674 265 0 441 250 113 0 0 64 147 122 116 423 202 1 445 56 346 551 523 960 574 489
1005 879 684 460 447 431 715 544 351 386 665 626 696 888 842 851 426 517 583 604 755 483 46 52 420 349 204 57 49 42 107 69 98 270 202 231 295 268 260 372 262 609 648
1203 1082 943 856 708 627 858 801 612 401 566 659 712 684 818 750 619 344 507 540 778 771 563 87 68 230 357 407 260 123 118 47 0 30 174 359 371 341 456 470 395 418 336
1384 1280 1248 1120 966 844 781 943 808 723 901 738 751 747 892 736 625 455 256 372 595 600 638 712 649 501 292 381 308 292 215 123 28 29 0 70 391 506 444 346 391 394 402
1474 1555 1448 1385 1163 1037 913 850 839 767 995 919 793 817 960 830 695 630 484 320 493 506 515 603 756 665 551 459 363 434 452 400 239 64 29 14 71 310 485 438 475 488 618
1527 1654 1679 1554 1375 1199 1011 840 690 714 816 723 791 763 886 738 658 662 711 571 699 757 721 695 674 590 595 442 290 193 152 186 397 554 356 220 137 123 247 297 576 617 550
1500 1549 1705 1772 1566 1287 1078 1037 778 696 850 932 749 797 805 747 531 456 539 549 670 805 723 693 606 474 464 539 344 182 155 87 109 264 592 611 400 388 353 356 452 625 608
1608 1589 1652 1815 1646 1395 1175 1055 1001 744 755 886 674 635 708 805 651 468 368 353 488 603 719 758 710 539 387 402 568 181 105 38 51 47 74 240 366 401 417 362 475 676 692
1580 1666 1605 1621 1700 1514 1364 1016 1022 788 767 886 638 653 765 784 743 759 564 474 489 562 539 603 686 590 492 408 439 480 156 128 94 49 130 284 364 307 307 471 333 228 262
1664 1655 1640 1554 1590 1542 1446 1186 1139 1008 771 579 661 479 671 718 722 692 597 511 485 654 636 554 553 657 680 553 289 232 297 216 209 258 105 92 107 152 263 269 108 8 7
1430 1769 1832 1654 1609 1640 1469 1289 1116 1041 845 746 612 596 634 704 638 605 605 531 391 457 618 714 828 798 699 539 240 129 80 93 78 65 57 94 68 51 76 154 160 136 35

GFSSE_con_mlcape_105.txt.gz
CAPE
77 571 1279 1721 1713 1520 1284 1226 1346 1565 1550 1475 1487 1564 1382 1315 1219 1090 913 743 843 638 555 580 764 893 916 1143 964 336 430 429 750 1093 1202 1211 1220 624 635 1074 860 727 785
150 997 1300 1730 1840 1595 1349 1284 1248 1559 1514 1706 1574 1559 1604 1495 1204 1017 922 1130 982 721 696 568 530 559 743 997 1014 454 487 599 852 760 602 520 347 226 181 213 298 281 223
353 1142 1326 1538 1785 1614 1367 1335 1291 1494 1432 1552 1574 1615 1470 1554 1304 1208 838 768 987 879 765 656 700 589 758 1025 924 641 597 981 879 748 823 656 798 64 393 646 248 118 12
542 1122 1328 1476 1670 1756 1681 1385 1581 1370 1457 1412 1747 1764 1654 1486 1430 1222 1067 904 881 843 738 789 802 787 895 902 867 862 671 1062 831 789 579 456 797 803 428 980 964 281 883
636 1020 1287 1647 1766 1751 1647 1601 1693 1677 1685 1488 1372 1600 1691 1730 1573 1306 1437 1281 846 775 958 1211 1385 1073 878 729 776 911 450 651 712 182 86 587 837 987 550 436 870 1143 1103
729 887 1498 1766 1722 1680 1575 1446 1743 1701 1786 1665 1709 1246 1813 1605 1416 1793 1339 1304 1637 1516 1329 1436 1375 1193 628 1085 876 465 713 541 629 141 133 284 290 1275 1062 608 181 269 703
718 818 1638 1799 1798 1824 1798 1599 1700 1940 1944 1800 1909 1832 1764 1903 1687 1740 1483 1468 1146 1350 1431 1327 1259 1156 880 924 415 388 375 582 448 407 146 577 428 548 617 768 861 0 44
423 1134 1566 1678 1837 1887 1835 1815 1746 1908 1835 1840 2080 1873 1938 1888 1821 1744 1765 1763 1510 1212 1427 1607 1316 671 679 671 461 484 408 638 108 288 399 481 403 1121 1179 827 782 461 243
709 1181 1531 1793 1641 1723 1809 1828 1778 1771 1901 1868 2167 1821 1832 2030 1701 1520 1422 1227 1620 1644 1556 958 675 901 698 816 457 255 207 887 237 222 482 302 758 1245 1278 913 219 305 33
929 1172 1411 1566 1638 1608 1784 1847 1740 1780 1830 1986 2109 1970 1998 1792 1726 1626 1500 613 1256 1521 781 644 1373 1253 1163 878 183 72 417 848 553 125 318 458 561 619 424 239 52 107 1138
742 1023 1346 1333 1276 1428 1577 1770 1832 1843 1965 1710 1603 1754 2119 1538 1603 1633 1426 810 1018 1562 1506 1489 1034 1495 1037 291 368 220 304 214 224 211 74 279 520 650 507 712 827 229 500
396 833 1073 1016 1021 1237 1483 1462 1402 1342 1455 1794 1680 1752 1585 1417 1467 1459 1500 1220 479 1493 1381 1666 1469 968 720 392 486 383 232 63 133 313 365 430 189 806 1281 1138 1037 514 192
347 586 891 672 826 910 1200 1240 1310 1344 1549 1382 1505 1431 1469 1188 1561 1557 1130 1493 729 718 1510 1644 1338 1212 683 227 192 48 5 55 123 180 138 654 239 1026 1220 941 965 555 106
437 468 660 633 623 763 878 1090 1124 1228 1156 1002 1222 1339 1172 1072 939 1092 693 1272 896 1264 910 1356 721 573 469 257 204 143 222 115 122 84 37 453 143 545 1384 1122 887 849 359
526 464 637 621 539 594 572 936 1055 1247 1271 1115 949 1012 985 785 821 974 566 983 1089 362 821 654 638 243 123 139 133 241 210 93 46 117 12 452 109 18 509 719 885 1021 631
824 571 621 582 474 461 439 682 710 931 1039 1101 898 739 873 741 803 898 690 872 669 669 143 487 426 319 110 35 20 172 194 179 279 219 99 528 36 0 4 661 1042 870 755
945 745 452 492 492 320 306 452 477 407 530 489 540 503 517 686 696 618 742 766 713 636 217 34 443 296 166 66 0 34 97 100 131 319 76 8 113 61 108 472 898 581 643
1033 816 573 502 501 357 314 255 319 254 283 401 496 635 804 766 643 516 636 635 707 634 299 1 6 244 221 182 88 87 55 62 60 200 173 63 297 179 195 405 481 360 383
1127 965 778 606 428 373 452 413 248 228 180 318 523 610 859 847 765 465 443 456 576 603 659 335 17 79 157 213 331 302 286 168 82 7 82 191 266 386 274 192 416 526 436
1194 1102 969 706 548 432 517 669 621 571 436 334 528 613 653 710 753 574 379 379 446 526 612 599 442 264 299 324 317 474 337 311 154 82 36 2 69 185 354 310 275 394 603
1339 1264 1173 984 834 655 591 668 748 713 737 495 602 673 638 667 762 612 429 316 255 358 472 510 576 568 420 321 380 305 258 274 298 322 357 203 86 31 240 291 268 322 331
1463 1439 1388 1288 1144 987 889 808 864 869 841 741 765 777 783 680 764 660 474 436 367 296 387 393 405 481 571 476 396 229 244 142 91 86 129 320 404 356 179 192 259 319 292
1506 1582 1567 1512 1410 1276 1163 985 861 792 817 770 725 807 775 791 709 624 440 392 513 453 450 518 522 532 506 444 454 312 146 111 66 55 69 108 306 462 437 355 430 378 378
1370 1474 1668 1643 1569 1397 1339 1189 962 769 735 823 688 707 734 806 731 646 473 321 402 475 504 553 530 470 454 391 233 275 69 50 41 35 70 123 214 197 190 173 253 377 489
1563 1497 1637 1751 1738 1503 1231 1147 1105 868 722 732 787 805 817 762 777 705 589 361 250 256 319 445 529 565 542 441 388 266 216 179 126 136 79 87 106 112 108 164 279 221 185
1547 1613 1575 1655 1658 1642 1344 1129 1022 979 823 714 801 822 731 678 678 693 706 528 423 341 320 341 436 498 499 478 359 254 276 141 170 67 31 54 47 60 41 49 56 112 71

GFSSE_con_mlcape_108.txt.gz
CAPE
22 1041 1324 1557 1492 1299 1623 1442 1213 1226 1153 1122 1290 1038 1115 1015 771 510 617 1036 1013 989 821 975 1001 982 1157 1044 781 800 734 826 1215 1178 1168 1160 657 956 1014 1053 955 855 265
103 1188 1580 1463 1429 1358 1537 1748 1605 1236 1598 1496 1402 1495 1353 1342 1130 699 940 937 889 909 1015 1061 950 1017 1213 922 454 718 798 1048 1134 1090 894 535 342 422 891 647 602 474 394
179 952 1639 1602 1522 1424 1491 1619 1615 1704 1568 1584 1605 1457 1420 1346 1203 1168 1093 1042 842 955 857 761 809 939 1054 945 610 674 933 1056 898 797 755 302 0 0 17 165 178 29 206
285 998 1472 1541 1477 1425 1405 1542 1542 1688 1682 1737 1600 1676 1535 1451 1247 1173 1132 1147 1147 1065 829 812 698 913 1013 887 723 739 1166 914 958 943 533 642 180 399 903 337 44 355 956
517 1059 1394 1668 1624 1448 1446 1382 1683 1563 1744 1749 1724 1593 1578 1477 1415 1118 905 1079 1154 940 854 937 900 894 958 920 892 730 1096 848 778 409 294 492 844 447 961 995 536 967 981
593 953 1443 1807 1790 1572 1514 1714 1709 1704 1703 1965 2010 1762 1631 1625 1588 1398 1195 1027 1030 986 1055 1260 1006 996 722 756 810 538 730 704 250 16 362 750 782 906 316 696 1067 955 721
540 891 1653 1683 1925 1717 1697 1789 1880 1856 1801 1690 1681 1942 1842 1787 1654 1530 1659 1437 1421 1137 1490 1384 970 743 967 811 748 862 798 792 287 79 79 341 731 1189 997 332 58 244 699
489 890 1639 1693 1836 1766 1651 1881 1943 1927 1958 2055 1616 1947 1888 1848 1802 1736 1558 1499 1577 1676 1469 1313 1199 803 926 713 582 492 724 804 609 309 160 402 230 659 747 1002 328 0 114
686 1152 1463 1688 1629 1754 1777 1797 2029 2008 1897 2133 2116 2273 2036 1890 1761 1814 1753 1634 1420 1572 1641 1547 1115 858 998 680 700 708 614 566 55 253 381 353 579 1085 1268 762 805 193 242
871 1169 1325 1595 1617 1756 1776 1915 1889 2028 1954 2144 2228 2145 2119 1950 1710 1572 1630 1570 1671 1577 1666 1218 900 896 822 738 645 302 735 942 135 349 389 244 326 1107 1374 967 374 347 66
917 1113 1322 1497 1400 1555 1676 1829 1878 1950 2091 2054 2156 2067 2160 1766 1621 1622 1077 1236 1649 1768 892 1015 972 1328 1150 789 229 205 791 416 416 129 315 306 450 611 604 464 203 65 1115
682 916 1210 1268 1147 1305 1589 1608 1635 1721 1898 2015 1838 1894 1698 1540 1563 1616 1375 592 1288 1584 1258 996 1431 1386 1099 293 281 432 425 218 166 270 182 272 303 509 523 612 728 374 588
610 823 960 1151 1136 1028 1223 1334 1425 1464 1674 1626 1416 1493 1642 1266 1502 1532 1407 1012 591 1600 1419 1253 1104 1096 573 360 247 181 81 128 205 275 296 454 420 409 713 1290 880 740 509
528 657 866 980 1019 1055 1100 1123 1087 1211 1276 1194 1196 1419 1298 1160 1284 1293 1124 1336 428 777 1211 1394 1148 1103 688 327 138 52 13 36 69 39 30 187 777 440 987 1186 871 928 712
374 540 787 926 893 996 1034 1073 1001 1007 1061 1014 1214 1127 1189 982 1046 1233 794 1218 784 701 814 1201 975 649 555 275 204 100 267 187 77 74 68 252 743 387 566 1262 1207 801 920
345 456 729 810 762 817 874 924 895 998 1120 1142 1025 1156 1177 984 793 791 513 792 1109 522 875 879 920 398 128 124 42 143 232 217 173 317 98 238 795 246 30 662 745 848 917
356 417 593 639 670 582 601 618 761 892 928 848 773 968 1002 851 698 615 652 491 665 723 278 223 575 622 328 130 28 15 93 151 149 241 194 318 967 153 0 1 327 962 842
596 384 569 721 631 511 493 564 633 804 939 1051 1043 726 749 770 627 774 794 593 791 637 430 132 23 414 294 146 27 0 4 80 86 115 245 162 160 135 63 73 245 501 525
1010 698 570 642 579 506 449 429 467 541 665 714 774 851 541 410 573 750 621 685 754 705 506 190 3 1 153 158 111 103 233 240 173 68 99 176 68 189 260 205 382 288 423
1110 960 815 694 560 542 459 401 315 342 405 393 301 397 407 612 601 587 586 578 634 675 563 500 274 0 35 81 146 263 308 335 257 111 63 35 166 235 321 323 245 313 327
1132 1046 932 819 669 529 455 388 237 98 275 340 376 414 569 753 873 747 635 521 483 555 581 730 692 495 257 262 380 311 290 362 311 344 252 152 83 67 121 165 218 317 265
1166 1131 1024 869 672 526 481 533 462 332 315 318 391 451 643 688 758 749 698 572 474 456 477 544 570 536 454 369 316 233 272 227 160 169 188 247 275 302 237 228 221 227 236
1249 1179 1114 996 857 699 505 519 587 606 534 513 535 503 617 699 746 680 696 681 489 456 371 268 453 428 467 295 287 311 191 184 87 33 51 93 140 169 246 332 342 282 296
1348 1264 1202 1144 1044 959 794 693 583 567 617 629 630 627 652 829 824 782 771 708 533 450 499 320 359 435 370 367 309 313 167 81 97 36 38 60 149 142 151 203 348 438 441
1419 1431 1338 1317 1324 1257 1126 1044 869 778 687 679 716 647 607 737 857 844 818 660 504 391 479 514 378 393 361 383 329 308 294 214 113 138 105 110 89 103 173 141 181 237 309
1308 1497 1573 1516 1553 1512 1373 1256 1191 1056 855 640 607 629 533 561 703 758 830 736 624 469 345 389 444 439 410 432 349 251 315 332 276 195 143 136 94 41 25 37 62 86 88

GFSSE_con_mlcape_111.txt.gz
CAPE
131 807 1173 1222 1534 1520 1562 1396 1115 1191 1339 1250 1182 1104 1184 1216 1111 1008 1120 898 765 811 843 768 684 721 1016 1047 1100 1178 1112 1150 917 1066 1093 494 463 1161 1203 1090 254 50 674
350 1024 1564 1545 1573 1666 1674 1460 1208 1169 1421 1210 1186 1170 1285 1300 914 1016 1268 980 866 1092 1140 1019 1026 1179 969 914 1004 1084 1334 1220 1185 1283 935 490 1150 1162 862 927 259 877 626
663 1048 1453 1448 1564 1698 1634 1543 1345 1356 1660 1379 1464 1295 1192 1112 941 1166 1162 1258 1213 1259 1292 1037 1056 1312 1023 646 912 1079 1248 1085 851 471 147 0 18 496 377 399 281 115 278
692 1212 1100 1407 1477 1769 1892 1530 1607 1741 1690 1570 1677 1531 1469 1236 1091 1065 940 1042 1217 1142 1037 1009 1029 1110 1076 867 927 1268 1163 1187 1212 958 206 0 105 399 230 120 28 1026 1083
673 1080 1084 1382 1403 1653 1762 1639 1643 1719 1760 1682 1654 1576 1483 1438 1242 1124 1165 1220 1273 1078 990 892 958 1023 1060 921 971 1280 1151 1138 811 570 530 381 20 1055 838 104 883 1038 342
421 792 1440 1428 1364 1320 1684 1740 1887 1939 2011 1841 1763 1580 1495 1394 1367 1364 1335 1368 1232 1029 1056 796 761 966 976 1062 892 1247 964 883 503 356 540 684 406 660 1220 1060 1104 1029 744
492 666 1487 1583 1517 1483 1593 1801 1646 1968 2043 2024 1871 1768 1631 1597 1479 1397 1330 1304 1264 1133 1334 1256 1079 842 661 919 696 844 883 443 49 56 598 422 729 416 411 979 1006 729 877
483 551 1164 1837 1650 1637 1611 1651 1619 1576 2010 2146 2058 1988 1809 1565 1464 1571 1488 1296 1231 1222 1432 1209 833 931 830 916 1072 944 1044 1023 624 299 173 179 724 1118 1106 359 18 194 792
610 676 986 1532 1514 1643 1729 1822 1796 1846 1683 1718 2009 2123 2056 1828 1860 1574 1500 1734 1748 1660 1332 1323 860 1104 991 834 781 725 845 732 572 500 248 299 214 751 849 1197 421 0 70
764 1026 1010 1331 1420 1394 1536 1940 1785 1875 1909 2104 1796 2008 2229 2003 2032 1739 1540 1388 1652 1261 1236 1576 1082 1179 1003 913 850 617 873 783 367 602 455 278 212 875 1444 824 591 381 121
831 1174 1334 1243 1571 1643 1556 1734 1871 1942 1930 2102 2177 2335 2049 1684 1528 1431 1534 1628 1664 1508 1525 1274 1020 996 938 890 662 326 880 776 494 511 551 271 122 675 1247 923 420 191 102
754 1088 1405 1332 1197 1687 1466 1794 1737 1904 1945 1894 1848 2022 1960 1765 1414 1591 1126 1779 1803 1447 1177 1105 1101 1172 989 364 243 243 710 574 659 652 565 348 308 399 670 569 339 101 559
736 996 1191 1460 1500 1634 1406 1692 1739 1592 2041 2000 2099 2246 2132 1727 1564 1444 1384 349 912 1205 349 983 1082 556 392 256 309 416 558 436 445 731 623 401 460 469 559 635 673 841 427
848 835 991 1244 1547 1588 1612 1465 1343 1163 1765 1811 2018 1971 1926 1641 1263 1136 1205 1052 901 1147 1380 905 837 929 434 296 208 410 309 151 230 458 475 412 510 633 534 813 1428 1043 798
990 830 862 1142 1311 1469 1449 1133 1202 1118 1469 1576 1705 1859 1802 1501 1407 1526 1329 1500 455 1212 1353 1396 1216 895 484 208 209 411 181 350 427 479 571 423 452 754 572 633 1257 981 835
1073 902 915 907 1127 1393 1155 1324 1407 1140 1286 1640 1381 1495 1836 1443 1387 1509 1391 1139 1367 462 857 1164 1157 696 471 302 302 466 495 749 698 738 829 678 444 860 669 435 919 1132 1002
998 953 948 880 828 949 1073 1168 1240 1037 1001 933 1325 1693 1549 1480 1487 1268 1178 832 1185 1154 1477 1257 1506 1208 499 401 337 281 536 628 658 729 885 830 982 960 833 256 432 714 729
1044 940 998 840 899 883 851 1012 946 953 1010 1027 1194 1297 1655 1590 1438 1337 916 702 854 1327 1197 544 704 747 507 248 233 199 327 472 599 669 749 842 937 974 729 230 238 261 273
1069 926 932 994 1004 1035 1020 928 800 892 918 886 967 914 1489 1555 1313 1178 985 1146 1248 1074 909 741 451 255 566 561 300 273 310 486 655 526 609 783 827 641 595 524 200 120 214
1264 1048 903 1054 1050 1076 1024 952 791 687 913 1217 1212 1220 1101 1145 1227 1097 1194 1381 1488 1199 1364 1160 718 332 49 306 213 89 286 577 752 737 711 585 596 733 626 881 917 769 508
1496 1330 1086 994 1063 1056 949 726 635 536 599 885 957 1201 1444 1149 913 1033 913 1299 1226 1282 1360 1352 1133 863 69 372 467 321 559 931 796 690 817 591 462 509 585 792 906 639 532
1546 1517 1368 1175 1137 1001 872 770 612 490 380 420 564 706 851 912 959 937 906 1022 1151 1140 1319 1392 1348 1166 896 1006 452 610 226 259 614 613 641 738 660 640 580 670 769 867 843
1558 1595 1491 1396 1286 1154 986 913 799 658 514 441 409 538 632 852 1066 1254 1324 1249 1238 1177 1003 1202 1253 1190 1008 840 882 465 203 193 333 461 701 695 655 662 659 693 971 1082 1280
1613 1582 1497 1412 1365 1269 1153 994 858 703 569 443 358 383 578 827 934 1167 1256 1265 1245 1095 1080 1109 1103 947 908 664 517 593 559 476 208 260 430 543 746 695 841 791 693 887 1165
1428 1631 1568 1462 1385 1302 1180 1066 1001 861 780 701 654 734 933 1082 1110 1206 1234 1212 1174 1259 1130 1070 1044 911 834 764 493 528 562 463 549 390 438 323 363 558 761 933 657 757 886
1542 1596 1675 1656 1530 1440 1320 1180 1125 1048 941 933 1063 1112 1029 1079 1139 1369 1445 1426 1250 1263 1166 1028 967 896 614 751 562 457 446 452 553 617 578 520 381 400 362 258 161 232 476

GFSSE_con_mlcape_114.txt.gz
CAPE
498 520 1021 1302 1421 1229 1386 1573 1554 1457 1400 1158 933 960 1020 1134 1108 1214 791 528 433 445 608 633 738 1205 1318 1309 1397 1305 1074 1043 723 642 721 606 770 860 588 149 869 939 1015
477 769 1080 1488 1806 1671 1673 1389 1555 1500 1404 1218 1094 1115 1115 1255 1282 1114 825 813 793 1054 958 1000 1149 1144 1263 1314 1310 1377 1191 1081 1390 672 1138 1310 1186 1142 1169 472 434 323 886
500 796 832 1797 1863 1908 1623 1311 1623 1582 1462 1224 1205 1236 1281 1208 1173 1208 1090 987 1234 1260 1206 1249 1282 1018 929 1159 1361 1350 1435 1404 1220 500 89 53 486 732 884 271 817 861 518
504 891 681 1778 1854 1880 1464 1418 1589 1586 1445 1443 1271 1349 1194 1198 1255 1155 1097 1289 1399 1418 1278 1198 1378 1228 823 1111 1225 1332 1017 793 468 27 0 0 0 240 210 27 785 1001 1138
578 818 977 1701 1863 1735 1650 1428 1740 1771 1596 1628 1513 1310 1235 1076 1285 1214 1395 1485 1455 1305 1237 1259 1302 1208 1139 1125 1271 1296 1486 1314 862 659 18 367 277 257 49 919 1177 651 537
701 684 1217 1596 1862 1792 1660 1571 1799 1864 1856 1920 1580 1493 1289 1189 1319 1259 1118 1382 1386 1259 1125 1134 1075 1306 1188 1101 1315 1305 1138 630 517 277 316 50 465 1018 441 1045 1274 697 67
781 769 1023 1519 1858 1816 1841 1930 1860 1894 1867 1918 1847 1675 1600 1419 1568 1655 1529 1527 1308 1101 1157 966 1156 1158 1146 1148 1309 1114 801 263 108 178 206 337 147 1137 1387 1315 1205 735 430
530 889 1218 1498 1727 1832 1741 1948 2048 2059 1926 1911 1741 1730 1693 1549 1737 1610 1488 1361 1431 1290 1464 1297 1259 885 1026 902 917 971 646 600 112 24 86 375 447 482 367 526 750 1009 1191
434 815 998 1008 1024 1603 1796 1797 1955 1980 1937 2009 1965 2077 1982 1789 1569 1414 1293 1343 1405 1476 1295 1448 1081 970 1025 1202 1230 1107 1147 784 706 175 27 2 588 1134 1085 560 33 220 613
484 689 989 912 865 767 1101 1967 1826 2010 2111 2113 2081 1917 1924 1986 1856 1832 1222 1198 1611 1804 1286 1411 1119 1325 1087 1115 922 953 974 426 338 178 102 338 19 1142 1217 1251 700 181 353
711 803 939 1168 1044 939 1132 1550 1861 1816 1688 1725 2021 2186 1910 1268 1682 1542 1169 1018 1233 1198 1422 1439 1287 1395 1168 1162 1066 588 666 512 139 164 123 23 3 838 1838 1088 634 415 60
863 965 904 1211 1326 1240 1266 1611 1464 1622 1784 1789 1677 1832 1443 1358 981 1350 1239 1327 1647 1301 1297 1265 1209 1270 871 550 389 289 579 464 585 477 694 239 55 303 927 865 391 127 119
885 953 1059 1078 1301 1400 1120 1603 1708 1689 1601 1847 1620 1689 1618 1541 1203 1180 1184 947 1476 1285 1100 830 737 488 190 237 112 248 452 631 548 668 814 469 400 596 515 599 581 620 144
960 1016 1169 1231 1258 1346 1201 1496 1207 951 1245 1725 1727 1926 1650 1651 1251 1424 1129 344 330 1246 793 200 221 359 162 392 230 492 611 469 451 576 911 589 464 634 798 694 715 982 1037
1120 1174 1285 1428 1636 1621 1529 1231 1127 802 885 1479 1649 1953 1669 1386 1439 1522 1443 1135 170 1293 980 588 324 854 322 376 359 533 653 393 554 788 741 809 636 472 841 847 868 1390 1254
1327 1302 1342 1502 1820 1784 1705 1402 1054 936 751 1003 1218 1700 1712 1414 1433 1492 1087 1140 687 240 1101 1052 1052 933 342 86 187 295 722 522 638 937 917 1262 742 628 771 944 815 1092 1010
1620 1489 1363 1340 1532 1667 1711 1414 1173 895 815 704 776 1014 1285 1292 1378 1152 1269 612 1100 267 243 1098 1249 521 133 37 41 125 617 625 621 875 1076 1216 1094 553 805 1013 781 1080 955
1720 1687 1507 1297 1332 1587 1514 1203 937 880 753 624 638 847 1431 1430 1164 1126 889 505 421 1090 211 646 697 408 83 34 32 181 320 389 573 872 982 1004 987 1096 1105 701 431 265 448
1782 1834 1626 1390 1210 1406 1404 1144 965 932 940 617 542 601 1210 1271 1148 1004 519 453 597 419 458 103 138 173 65 82 64 179 206 181 339 522 580 890 1045 947 768 1002 596 245 141
1823 1867 1739 1525 1307 1372 1263 1088 915 729 870 738 671 699 749 1099 1030 972 689 697 788 304 262 171 90 71 65 97 176 117 104 117 155 458 732 879 694 763 832 710 1023 1070 656
1873 1885 1826 1620 1434 1450 1318 1193 800 626 589 656 856 903 957 911 833 1053 603 939 1035 687 514 590 491 299 103 29 102 105 108 192 302 438 655 620 507 637 739 751 838 675 578
1872 1933 1878 1767 1615 1595 1340 1216 943 803 587 541 812 958 1212 1390 983 734 624 644 1241 1192 1069 990 918 286 111 0 72 3 2 5 32 104 267 244 217 368 486 462 651 884 974
1461 2075 1951 1874 1779 1732 1438 1286 1119 998 855 611 553 726 983 1086 1100 915 700 706 963 1319 1017 1357 1221 911 280 170 258 0 20 21 48 214 372 625 449 534 767 780 898 999 1310
1191 1942 2111 2100 2016 1949 1776 1341 1359 1081 1009 812 668 557 581 844 854 944 1040 1210 1423 1241 1128 1022 1296 1199 942 775 787 965 743 416 29 70 483 747 1029 1177 1025 973 779 968 1191
1647 1889 1975 2024 2053 2055 1981 1723 1589 1449 1205 1121 923 767 621 724 817 794 1051 1309 1562 1537 1384 1128 1183 1062 992 933 718 802 894 609 685 501 334 413 652 516 687 922 906 725 766
1824 1878 1807 1925 2023 1910 1991 2063 1871 1901 1624 1419 1241 1033 791 683 847 913 889 1291 1563 1536 1623 1568 1613 1429 1347 967 974 1071 432 495 540 533 557 652 502 346 413 583 459 335 287

GFSSE_con_mlcape_117.txt.gz
CAPE
60 132 843 1157 715 1378 1472 1670 1458 1426 1319 1125 1034 912 836 918 980 1043 729 657 627 743 577 1124 1462 1464 1477 1514 1462 1314 1039 1142 1228 1251 536 367 463 602 1092 1011 752 609 702
519 524 1125 1189 1204 1641 1709 1505 1467 1292 1209 1031 1126 1015 958 1158 1061 790 561 575 854 844 764 1017 1322 1506 1613 1351 1331 1191 1019 1109 425 424 1292 1526 1339 1337 1206 447 684 965 1011
589 774 953 1640 1963 1952 1881 1700 1584 1552 1154 1223 1139 1315 1165 1273 1148 661 940 1045 1270 1176 1196 1186 1155 1255 1312 1451 1440 1416 1550 1396 341 1399 1080 111 791 954 1157 949 979 713 754
667 709 1045 2046 2124 2041 1651 1721 1668 1586 1279 1431 1324 1293 1255 1379 1171 665 924 1205 1458 1333 1354 1395 1158 909 1226 1384 1509 1321 1176 222 382 510 620 0 0 416 147 366 382 213 379
606 795 1569 2153 2145 1860 1531 1552 1738 1651 1449 1546 1666 1356 1177 1237 1379 1090 1066 1371 1527 1533 1335 1360 1359 1130 1193 1527 1283 1212 1017 567 580 660 83 0 0 20 731 1284 1077 1201 973
579 756 1706 2030 2157 1718 1693 1680 1652 1757 1714 1608 1709 1367 1271 1458 1359 1388 1704 1652 1565 1397 1345 1539 1315 1221 1187 1242 1234 1186 684 334 864 375 120 647 0 133 1140 1275 728 217 789
821 1210 1250 1971 2062 2012 1707 1910 1697 1830 1984 1818 1553 1480 1356 1464 1427 1327 1404 1651 1514 1332 1165 1056 1498 1363 1271 1037 1295 768 324 399 825 204 155 354 1060 1005 1315 1369 1166 229 215
840 954 932 1972 1987 2001 1880 2052 1933 1733 2021 1753 1802 1655 1457 1400 1454 1553 1514 1592 1342 1249 1252 1161 1282 1063 1344 1054 1222 812 123 365 467 87 80 435 274 1101 1394 1185 815 1026 970
897 719 710 1067 1794 1844 1924 1951 1921 1837 1853 1972 1981 2021 1896 1581 1677 1659 1674 1276 1388 1460 1385 1148 1200 955 1145 895 895 995 853 847 1135 14 81 637 737 767 429 157 366 937 702
875 968 753 701 1029 1030 1446 2107 2115 2006 1960 1946 1786 1841 1798 1626 1603 1502 1388 1030 1350 1575 1318 1282 1315 1048 1225 1414 1075 896 425 385 721 0 228 33 140 855 1088 568 97 94 267
831 1176 937 761 675 724 774 1368 1941 2047 2061 1975 1867 1989 1982 1462 1519 1573 982 956 1290 1156 1310 1308 1419 1261 1216 1165 996 633 487 833 274 27 379 0 96 1132 1693 1193 656 343 180
749 1110 1147 1060 763 660 641 1524 1170 1137 1236 1644 1739 1712 1419 1243 1133 1422 1104 1246 786 548 1209 1433 1444 1444 801 489 486 255 390 818 168 104 335 0 0 685 1765 1234 665 289 116
836 925 1181 1180 1219 795 908 1374 1361 1378 1327 1555 1366 1575 1129 1564 1334 1152 1482 1058 1305 1210 583 850 1012 295 72 412 106 0 156 179 304 518 578 153 129 163 409 839 547 258 83
1036 1000 1067 1279 1731 1122 1504 1547 1220 1002 1327 1434 1424 1666 1673 1861 1624 1293 1086 1184 1151 1042 908 826 232 75 32 299 113 83 338 225 265 632 1025 507 269 430 643 571 683 721 797
1201 1103 1130 1304 2003 1962 1834 1512 1163 1212 994 1820 1698 1799 1510 1453 1095 1284 1103 960 323 1432 974 628 312 282 333 205 199 264 243 197 212 180 1298 777 623 476 621 959 859 1005 1176
1327 1280 1260 1451 1913 1772 1686 1888 1514 1072 815 1106 1637 1627 1464 1333 1279 1190 1229 1016 515 1199 413 693 734 603 650 93 229 256 312 312 194 589 1010 956 932 591 450 923 933 1049 1503
1501 1487 1507 1437 1712 1967 2041 1820 1408 990 728 433 1277 1862 1836 1165 1299 1188 1169 1119 920 429 783 532 1101 1244 793 123 59 99 360 430 336 711 842 1269 1432 632 436 611 742 674 1133
1530 1720 1697 1650 1733 2038 2056 1727 1263 828 604 515 429 1390 1916 1661 1225 1220 893 929 949 836 188 903 949 512 351 63 17 14 203 386 527 668 885 835 878 1301 708 651 448 345 662
1895 1978 1883 1846 1773 1977 2089 1857 1320 1043 932 486 505 560 1359 1171 1132 928 652 773 890 811 363 126 273 347 254 74 42 30 176 234 226 311 537 740 824 581 994 1421 505 404 250
2066 2285 2221 2077 2000 1985 1789 2017 1223 947 895 747 454 412 1579 1356 1407 834 506 859 600 239 305 198 116 161 204 127 69 80 164 182 99 58 258 397 584 866 954 1085 1245 1259 815
2028 2155 2340 2101 2133 1777 1759 1549 1128 815 805 750 732 857 1191 1201 1268 1249 517 915 918 547 243 577 317 214 122 110 151 151 253 192 167 119 121 252 505 875 827 692 956 612 699
2045 2344 2237 2106 2259 1850 1662 1465 1083 952 732 712 664 933 1109 1134 1254 1345 1182 847 1222 962 765 1022 627 197 163 125 50 44 67 53 68 120 105 99 262 414 357 624 925 1012 832
1528 2368 2249 2223 2314 2101 1737 1626 1558 1357 1154 966 842 931 1115 1286 1379 1361 1429 1080 1131 1346 788 1247 559 361 383 183 59 13 1 0 29 156 196 155 300 199 376 405 834 1074 1735
1362 1870 2230 2069 2238 2277 2118 1664 1657 1319 1341 1199 1022 969 1194 1425 1524 1674 1489 1373 1216 1309 1388 1259 1402 864 1064 685 456 187 145 637 454 299 276 718 192 1073 1281 1203 936 917 1487
1589 2107 2536 2405 2354 2107 1841 1984 1756 1740 1438 1383 1299 1199 1081 1492 1617 1327 1604 1537 1564 1293 1382 1547 1432 1496 1428 1009 788 850 837 812 984 373 244 389 308 818 994 1247 1044 820 986
1195 1624 2336 2267 2404 2133 1950 1871 1723 1909 1870 1660 1718 1449 1275 1134 1536 1430 1323 1642 1762 1727 1756 1723 1776 1540 1516 1488 1351 1145 1109 1206 908 839 695 631 622 550 511 404 717 666 606